     2              OBSERVATION DATA    GPS                 RINEX VERSION / TYPE
ASRINEXO V2.4.4 UX USGS 06-FEB-98 12:10                     PGM / RUN BY / DATE
                                                            COMMENT
Original Marker Name: law3 LAPW3_USGS                       COMMENT
Campaign Name: usgs.landers.pro                             COMMENT
4-Character Station Name: LAW3                              COMMENT
6-Character Antenna Code: DMRCHT                            COMMENT
Vertical Measurement Point: BCR                             COMMENT
Vertical Offset to Rinex Ref. Point: 0.0348                 COMMENT
Radial Measurement Point: ECF                               COMMENT
Radial Offset to Rinex Ref. Point: 0.1897                   COMMENT
Antenna Height from Field Measurement: 1.3850 m             COMMENT
Additional Antenna Identification Info.:                    COMMENT
Turborogue and Ashtech Choke Ring                           COMMENT
Original XYZ: -2362113.3953 -4702915.0082 3592974.8966      COMMENT
New XYZ position is based on association with SCEC monument COMMENT
E1F2J6B6+0011. Position of that monument is believed to be  COMMENT
valid to within 1 m horizontally; vertical accuracy         COMMENT
should be no worse than 3-times this value.                 COMMENT
                                                            COMMENT
Revised Rinex header created by UCSD GPS archive for        COMMENT
GSAC on 11-Nov-1999 (1999:315) 01:01:07 GMT                 COMMENT
For assistance contact dagnew@ucsd.edu or hjohnson@ucsd.edu COMMENT
                                                            COMMENT
LAW3 LAPW3_USGS                                             MARKER NAME
JMS US GEOLOGICAL SURVEY                                    OBSERVER / AGENCY
591 ASHTECH Z-XII3 1E95                                     REC # / TYPE / VERS
329 DORNE-MARGOL. TYPE T                                    ANT # / TYPE
 -2362106.0000 -4702863.0000  3592975.0000                  APPROX POSITION XYZ
        1.3371        0.0000        0.0000                  ANTENNA: DELTA H/E/N
     1     1     0                                          WAVELENGTH FACT L1/2
     5    C1    L1    L2    P1    P2                        # / TYPES OF OBSERV
    30                                                      INTERVAL
  1998     2     4    16    41    0.000000                  TIME OF FIRST OBS
  1998     2     4    23    38   30.000000                  TIME OF LAST OBS
                                                            END OF HEADER
 98  2  4 16 41  0.0000000  0  6 22  3 19 18 16 14
  22387338.873       35354.02849                  22387338.408    22387342.9084
  24280364.149     -330433.04349   -239648.60949  24280363.4644   24280370.2134
  22247224.462     -343238.70449   -253584.65949  22247223.5384   22247228.2954
  21068940.442     -340569.82349   -253465.37349  21068939.5274   21068943.2444
  20778185.885       22648.12349     16954.93749  20778185.0924   20778189.8734
  21626023.757      245732.48249    184266.22049  21626023.5854   21626028.7454
 98  2  4 16 41 30.0000000  0  6 22  3 19 18 16 14
  22398159.888      279049.21059     79663.28149  22398159.2074   22398163.9944
  24263716.547     -417919.30249   -307819.68349  24263716.8284   24263722.9014
  22231427.312     -426251.29749   -318269.79649  22231426.5744   22231430.9954
  21053167.143     -423457.79049   -318053.41049  21053166.5164   21053170.2164
  20779607.088       30117.28549     22775.04049  20779606.4084   20779611.3784
  21637382.294      305421.32949    230776.96549  21637382.1524   21637387.0884
 98  2  4 16 42  0.0000000  0  6 22  3 19 18 16 14
  22409149.828      336801.14249    124664.73949  22409149.7184   22409153.8144
  24247214.479     -504640.03649   -375394.26249  24247215.0524   24247220.3494
  22215767.748     -508542.02149   -382392.44149  22215767.5744   22215772.0524
  21037541.463     -505570.79549   -382037.57349  21037541.0034   21037544.6764
  20781238.792       38692.15649     29456.73749  20781238.3284   20781242.9164
  21648914.618      366024.09249    277999.86049  21648914.3284   21648919.5314
 98  2  4 16 42 30.0000000  0  6 22  3 19 18 16 14
  22420308.804      395441.44249    170358.43249  22420308.3544   22420313.0964
  24230860.410     -590582.03549   -442362.06949  24230861.0444   24230865.8024
  22200246.166     -590108.26749   -445950.55249  22200245.8504   22200250.2654
  21022066.767     -586890.50249   -445403.59049  21022066.4064   21022070.1024
  20783081.384       48374.90449     37001.71149  20783080.8824   20783085.7144
  21660621.492      427543.96249    325937.37549  21660621.5544   21660626.2104
 98  2  4 16 43  0.0000000  0  6 22  3 19 18 16 14
  22431599.211      454772.55749    216590.42549  22431598.6874   22431603.2244
  24214614.768     -675953.68949   -508885.40449  24214614.3014   24214620.7404
  22184822.186     -671161.65949   -509109.04449  22184822.1274   22184826.3514
  21006704.712     -667618.56749   -508308.58149  21006704.4714   21006708.0124
  20785094.854       58955.65649     45246.43149  20785094.2294   20785099.0844
  21672466.982      489792.17349    374442.43649  21672466.8634   21672471.8994
 98  2  4 16 43 30.0000000  0  6 22  3 19 18 16 14
  22442979.218      514574.30849    263189.14249  22442979.0194   22442983.4264
  24198429.926     -761005.63949   -575159.64349  24198429.5864   24198435.4994
  22169452.400     -751930.41749   -572045.73649  22169452.3674   22169456.8054
  20991409.162     -747997.38149   -570941.43349  20991408.8504   20991412.6794
  20787232.927       70191.09849     54001.29249  20787232.4384   20787237.2084
  21684403.381      552518.25349    423319.86249  21684403.1304   21684408.2764
 98  2  4 16 44  0.0000000  0  6 22  3 19 18 16 14
  22454414.108      574664.25049    310012.42349  22454414.3024   22454417.5234
  24182266.253     -845947.04649   -641347.78049  24182265.7364   24182271.7934
  22154096.668     -832625.42749   -634924.96149  22154096.6084   22154101.0024
  20976139.330     -828240.95349   -633468.90249  20976138.9214   20976142.5734
  20789456.329       81875.07749     63105.66449  20789455.8194   20789460.7534
  21696391.383      615515.38049    472408.48649  21696391.4714   21696396.3874
 98  2  4 16 44 30.0000000  0  6 22  3 19 18 16 14
  22465901.684      635031.13149    357051.50249  22465901.9904   22465905.8924
  24166118.702     -930802.53949   -707468.94049  24166117.8654   24166124.4574
  22138750.647     -913269.32049   -697764.35549  22138750.6524   22138755.2854
  20960890.656     -908373.01649   -695909.47749  20960890.1284   20960894.0944
  20791761.055       93986.27349     72542.93249  20791760.6544   20791765.3394
  21708429.722      678776.97549    521703.18849  21708429.8774   21708434.5174
 98  2  4 16 45  0.0000000  0  6 22  3 19 18 16 14
  22477430.696      695615.95849    404260.39449  22477430.4194   22477434.9294
  24149975.296    -1015634.62049   -773571.84849  24149973.3814   24149981.9104
  22123405.976     -993906.17949   -760598.26049  22123405.9254   22123410.4594
  20945652.365     -988450.66549   -758307.65749  20945651.8274   20945655.6424
  20794136.840      106470.85649     82271.15549  20794136.3894   20794141.1614
  21720505.509      742235.16049    571151.08349  21720505.2774   21720510.0434
 98  2  4 16 45 30.0000000  0  6 22  3 19 18 16 14
  22489006.366      756445.88449    451660.28249  22489005.8854   22489010.4144
  24133843.703    -1100405.25949   -839626.85849  24133843.9774   24133850.7394
  22108071.403    -1074489.98149   -823390.83249  22108071.1214   22108075.9034
  20930430.524    -1068441.72949   -820638.37149  20930430.1354   20930434.2354
  20796589.278      119358.24249     92313.24249  20796588.8714   20796593.6144
  21732621.158      805903.21949    620762.50749  21732620.8804   21732626.0944
 98  2  4 16 46  0.0000000  0  6 22  3 19 18 16 14
  22500611.419      817430.41349    499180.64049  22500610.6414   22500615.2074
  24117713.685    -1185170.72849   -905677.91049  24117714.0044   24117719.5744
  22092733.542    -1155091.03849   -886196.84049  22092733.1094   22092737.7864
  20915214.748    -1148401.06249   -882944.35349  20915214.4384   20915218.3664
  20799103.570      132570.69849    102608.63649  20799103.1414   20799108.0334
  21744762.612      869706.90749    670479.62049  21744762.9544   21744767.5524
 98  2  4 16 46 30.0000000  0  6 22  3 19 18 16 14
  22512248.905      878585.20449    546833.67449  22512248.6454   22512252.4864
  24101590.679    -1269898.63749   -971699.69149  24101590.1164   24101596.9124
  22077402.382    -1235656.79849   -948975.35049  22077401.6934   22077406.8634
  20900015.461    -1228273.80049   -945182.85849  20900015.1414   20900019.0994
  20801683.722      146129.39749    113173.82649  20801683.2444   20801688.2684
  21756933.045      933662.91549    720315.42449  21756932.7594   21756937.9404
 98  2  4 16 47  0.0000000  0  6 22  3 19 18 16 14
  22523905.089      939838.34849    594563.33349  22523904.8454   22523908.6044
  24085463.059    -1354650.11649  -1037739.81949  24085463.4714   24085469.2154
  22062065.254    -1316253.75249  -1011778.17249  22062065.1504   22062069.2144
  20884821.068    -1308121.01149  -1007401.48149  20884820.7894   20884824.6154
  20804316.654      159965.29649    123955.01549  20804316.2324   20804320.9414
  21769118.886      997699.92749    770214.34349  21769118.4834   21769123.9674
 98  2  4 16 47 30.0000000  0  6 22  3 19 18 16 14
  22535572.632     1001151.53549    642339.79149  22535571.5384   22535576.9364
  24069328.853    -1439436.33449  -1103806.99049  24069328.3714   24069334.8024
  22046715.669    -1396916.69049  -1074632.40749  22046715.1174   22046720.1924
  20869626.291    -1387970.30949  -1069621.72549  20869626.0194   20869629.9734
  20806997.073      174050.82149    134930.71949  20806996.7364   20807001.3964
  21781318.482     1061809.10049    820169.49349  21781318.2074   21781323.4544
 98  2  4 16 47 59.9990000  0  6 22  3 19 18 16 14
  22547262.370     1062581.76149    690207.44149  22547261.5864   22547266.0094
  24053202.278    -1524182.78349  -1169843.17149  24053201.8754   24053208.3134
  22031363.569    -1477592.63949  -1137496.77249  22031363.3154   22031367.8674
  20854442.783    -1467760.34949  -1131795.79149  20854442.4304   20854446.3574
  20809737.622      188452.15449    146152.50949  20809737.0194   20809741.9734
  21793544.584     1126057.54249    870233.16949  21793544.4934   21793549.6664
 98  2  4 16 48 29.9990000  0  6 22  3 19 18 16 14
  22558969.716     1124104.18049    738146.93349  22558969.1414   22558974.2814
  24037071.179    -1608951.89849  -1235896.99249  24037070.7024   24037075.3634
  22015998.086    -1558338.94049  -1200415.96649  22015997.6924   22016002.8624
  20839258.371    -1547555.01349  -1193973.46749  20839258.2424   20839262.2934
  20812530.976      203131.17449    157590.67449  20812530.4254   20812535.3284
  21805790.043     1190407.73749    920376.13449  21805789.9964   21805795.2264
 98  2  4 16 48 59.9990000  0  6 22  3 19 18 16 14
  22570701.425     1185754.85249    786186.36349  22570700.5894   22570705.1854
  24020944.307    -1693698.16649  -1301932.98649  24020943.3974   24020950.1034
  22000624.300    -1639128.32949  -1263368.73749  22000623.8554   22000628.6024
  20824076.213    -1627338.15049  -1256142.16349  20824075.9124   20824080.0734
  20815385.769      218133.12049    169280.46549  20815385.1694   20815390.2924
  21818062.430     1254899.22149    970629.18449  21818062.0904   21818067.4114
 98  2  4 16 49 29.9990000  0  6 22  3 19 18 16 14
  22582450.426     1247496.41849    834296.62549  22582449.3364   22582454.8524
  24004816.384    -1778450.58049  -1367973.76049  24004815.9124   24004822.9514
  21985236.122    -1719993.90449  -1326380.87449  21985235.6284   21985240.6424
  20808889.290    -1707146.09349  -1318330.17949  20808888.9064   20808892.9554
  20818294.677      233419.48749    181191.89049  20818294.1454   20818299.0394
  21830353.351     1319488.20449   1020958.20949  21830353.5214   21830358.5164
 98  2  4 16 49 59.9990000  0  6 22  3 19 18 16 14
  22594223.930     1309366.75949    882507.22149  22594222.8454   22594228.2364
  23988691.124    -1863190.06249  -1434004.46949  23988691.1554   23988697.3874
  21969838.588    -1800908.70349  -1389431.37449  21969838.1984   21969843.0994
  20793704.494    -1786943.00049  -1380509.59749  20793704.3584   20793708.1364
  20821262.981      249018.24049    193346.72849  20821262.6604   20821267.6664
  21842661.704     1384168.66049   1071358.51349  21842661.7404   21842667.0774
 98  2  4 16 50 29.9990000  0  6 22  3 19 18 16 14
  22606024.118     1371376.72149    930826.61749  22606023.2464   22606028.0854
  23972570.133    -1947906.53049  -1500017.22849  23972568.9164   23972575.9034
  21954434.171    -1881859.56949  -1452509.98549  21954434.1714   21954438.7084
  20778526.563    -1866703.59349  -1442660.71449  20778526.2264   20778530.2574
  20824294.679      264949.62849    205760.76249  20824294.4014   20824299.2694
  21854988.751     1448947.27849   1121835.30249  21854988.6664   21854994.1464
 98  2  4 16 50 59.9990000  0  6 22  3 19 18 16 14
  22617850.884     1433526.49349    979254.94649  22617851.2274   22617855.2604
  23956460.514    -2032562.89149  -1565983.15049  23956460.6474   23956466.5464
  21939027.818    -1962820.69649  -1515596.58949  21939027.9574   21939032.0404
  20763361.594    -1946396.10849  -1504758.79349  20763361.3744   20763365.0824
  20827394.456      281238.47249    218453.33449  20827394.1654   20827398.9324
  21867338.990     1513847.88349   1172407.14749  21867339.0364   21867344.1254
 98  2  4 16 51 29.9990000  0  6 22  3 19 18 16 14
  22629700.017     1495793.45549   1027774.61449  22629699.8354   22629704.1584
  23940358.566    -2117180.03049  -1631918.52949  23940358.9144   23940363.9554
  21923614.361    -2043819.18349  -1578712.29849  21923614.0984   21923619.0244
  20748210.356    -2026016.49449  -1566800.65849  20748210.1634   20748213.8354
  20830559.443      297870.40549    231413.25049  20830559.1044   20830563.9524
  21879708.647     1578850.50249   1223058.47949  21879708.3534   21879713.6794
 98  2  4 16 51 59.9990000  0  6 22  3 19 18 16 14
  22641578.274     1558213.86049   1076413.82949  22641578.1824   22641583.5944
  23924271.145    -2201720.03949  -1697793.81449  23924269.6534   23924277.5884
  21908200.141    -2124821.45049  -1641830.95349  21908199.7894   21908204.6684
  20733079.175    -2105531.62049  -1628760.50949  20733078.8884   20733082.6664
  20833796.105      314878.97649    244666.65049  20833795.4844   20833800.4784
  21892105.913     1643998.53649   1273823.12449  21892105.9404   21892111.1704
 98  2  4 16 52 29.9990000  0  6 22  3 19 18 16 14
  22653483.560     1620775.97149   1125163.45849  22653483.0304   22653487.7894
  23908202.542    -2286160.53749  -1763591.56149  23908202.1564   23908208.5034
  21892788.458    -2205810.18649  -1704939.06849  21892788.5684   21892793.4124
  20717969.987    -2184931.16249  -1690630.30049  20717969.5884   20717973.6104
  20837104.229      332263.14849    258212.71849  20837103.7834   20837108.6824
  21904537.102     1709324.41049   1324726.34349  21904537.0754   21904542.1814
 98  2  4 16 52 59.9990000  0  6 22  3 19 18 16 14
  22665415.004     1683475.20849   1174019.96049  22665414.2004   22665419.1364
  23892155.998    -2370486.28649  -1829299.87049  23892156.0354   23892161.3414
  21877382.123    -2286771.26049  -1768025.62749  21877381.6044   21877386.7784
  20702883.374    -2264211.81549  -1752407.44149  20702883.0124   20702886.9144
  20840481.102      350008.53049    272040.25149  20840480.6754   20840485.6194
  21917000.063     1774817.74649   1375760.04549  21916999.7174   21917005.5384
 98  2  4 16 53 29.9990000  0  6 22  3 19 18 16 14
  22677374.744     1746323.48949   1222992.59049  22677374.0614   22677379.0764
  23876132.794    -2454688.36249  -1894911.81049  23876131.6184   23876138.0014
  21861981.691    -2367700.82449  -1831087.63249  21861981.4454   21861986.5294
  20687821.198    -2343364.22149  -1814084.65449  20687820.9304   20687824.9614
  20843924.672      368104.47849    286140.95749  20843924.0624   20843929.1914
  21929492.499     1840465.81549   1426914.32549  21929492.4884   21929498.0164
 98  2  4 16 53 59.9990000  0  6 22  3 19 18 16 14
  22689361.770     1809315.54149   1272077.24349  22689361.5624   22689365.7944
  23860135.722    -2538753.39949  -1960417.02049  23860135.1124   23860140.7664
  21846590.051    -2448584.53149  -1894113.91549  21846589.7714   21846594.7244
  20672781.604    -2422398.09849  -1875669.50949  20672781.3014   20672785.3524
  20847432.493      386537.89349    300504.61749  20847432.1434   20847437.0584
  21942012.842     1906260.29349   1478182.68849  21942012.8414   21942018.4654
 98  2  4 16 54 29.9990000  0  6 22  3 19 18 16 14
  22701382.221     1872483.36049   1321298.86749  22701381.4414   22701387.1904
  23844168.854    -2622659.24249  -2025798.14849  23844168.4064   23844174.3784
  21831213.212    -2529390.59449  -1957079.69049  21831213.2364   21831217.9844
  20657769.678    -2501286.47649  -1937140.98449  20657769.4344   20657773.4044
  20851010.221      405338.54949    315154.44149  20851009.5964   20851014.8024
  21954562.167     1972207.23249   1529569.86049  21954562.1234   21954567.7134
 98  2  4 16 54 59.9990000  0  6 22  3 19 18 16 14
  22713440.492     1935850.19349   1370675.55249  22713440.2924   22713444.3144
  23828229.777    -2706419.15949  -2091065.56549  23828228.4114   23828236.1894
  21815849.231    -2610128.87949  -2019992.65149  21815848.5424   21815853.6524
  20642783.388    -2580040.17349  -1998507.51549  20642783.0794   20642786.9784
  20854660.003      424518.16549    330099.55749  20854659.6004   20854664.4544
  21967138.317     2038295.00149   1581066.75949  21967137.8474   21967143.8284
 98  2  4 16 55 29.9990000  0  6 22  3 19 18 16 14
  22725533.086     1999397.38949   1420192.80249  22725531.5824   22725536.9104
  23812313.818    -2790057.12449  -2156237.97449  23812312.1294   23812319.6904
  21800493.424    -2690824.23449  -2082872.15949  21800493.4424   21800497.6034
  20627819.262    -2658677.27549  -2059783.19249  20627819.0584   20627822.9894
  20858382.636      444080.64449    345343.01549  20858382.1824   20858387.0574
  21979741.768     2104526.39249   1632675.58349  21979741.8114   21979747.1014
 98  2  4 16 55 59.9990000  0  7 22  3 31 19 18 16 14
  22737660.899     2063129.16149   1469853.86449  22737660.2854   22737664.6464
  23796422.395    -2873566.76349  -2221310.39749  23796421.6004   23796427.5204
  24529812.269    -3864615.91049  -2992688.93649  24529810.3964   24529820.8114
  21785146.803    -2771471.46449  -2145714.17849  21785146.5574   21785151.3294
  20612877.657    -2737195.95649  -2120966.59549  20612877.2224   20612881.2744
  20862181.738      464044.78549    360899.44949  20862181.1234   20862186.0314
  21992376.754     2170923.20149   1684413.28849  21992376.4454   21992382.2164
 98  2  4 16 56 29.9990000  0  7 22  3 31 19 18 16 14
  22749823.866     2127045.47949   1519658.73449  22749823.5854   22749827.2854
  23780555.463    -2956948.52449  -2286283.18649  23780554.8144   23780561.0014
  24507420.556    -3982284.58749  -3084378.82549  24507421.5054   24507427.5114
  21769808.728    -2852073.95649  -2208521.32049  21769808.4254   21769813.4194
  20597963.223    -2815571.85949  -2182038.74449  20597962.8474   20597966.8314
  20866057.708      484413.06249    376770.80049  20866057.3794   20866062.2064
  22005046.434     2237502.57949   1736293.25449  22005046.3634   22005051.2014
 98  2  4 16 56 59.9990000  0  7 22  3 31 19 18 16 14
  22762018.197     2191126.86549   1569592.22149  22762017.6434   22762022.3054
  23764716.179    -3040184.46849  -2351142.33649  23764716.4194   23764722.6794
  24484995.707    -4100127.89949  -3176204.74849  24484995.1414   24485001.4824
  21754478.744    -2932633.97049  -2271295.36949  21754478.4184   21754483.1954
  20583077.505    -2893797.06249  -2242993.46249  20583077.2224   20583081.3374
  20870009.187      505177.93049    392951.17849  20870008.4944   20870013.4284
  22017754.659     2304284.26249   1788330.86049  22017754.8364   22017759.8494
 98  2  4 16 57 29.9990000  0  7 22  3 31 19 18 16 14
  22774249.306     2255401.68049   1619676.43549  22774248.6364   22774253.1444
  23748913.645    -3123227.62149  -2415851.27949  23748913.7294   23748920.2094
  24462543.231    -4218115.87649  -3268143.42549  24462542.6944   24462551.5504
  21739164.603    -3013110.29749  -2334004.21149  21739164.3904   21739169.3484
  20568228.907    -2971827.10549  -2303796.10849  20568228.5624   20568232.6514
  20874037.668      526347.56649    409446.96349  20874037.1954   20874042.0844
  22030508.340     2371305.23849   1840554.93349  22030508.1274   22030513.8354
 98  2  4 16 57 59.9990000  0  7 22  3 31 19 18 16 14
  22786517.556     2319871.68649   1669912.74049  22786517.1324   22786522.1874
  23733148.364    -3206074.43549  -2480407.23249  23733148.1234   23733154.8174
  24440059.728    -4336268.09949  -3360210.10349  24440059.6694   24440065.4564
  21723866.064    -3093504.48149  -2396649.04549  21723865.9214   21723870.4844
  20553416.295    -3049668.01649  -2364451.37949  20553415.9964   20553420.0624
  20878135.478      547881.35249    426226.50149  20878135.0284   20878139.9434
  22043304.682     2438550.34049   1892953.65049  22043304.5284   22043309.8884
 98  2  4 16 58 29.9990000  0  7 22  3 31 19 18 16 14
  22798826.942     2384557.41649   1720317.15449  22798825.6514   22798831.2964
  23717423.836    -3288707.65949  -2544796.73949  23717423.5594   23717429.9624
  24417545.707    -4454581.00549  -3452401.98049  24417545.4354   24417552.5224
  21708585.459    -3173804.97349  -2459220.86549  21708585.2294   21708589.7644
  20538643.488    -3127299.47149  -2424943.43949  20538643.2134   20538647.0194
  20882305.067      569792.53349    443300.11049  20882304.7214   20882309.4224
  22056143.078     2506015.87849   1945524.13649  22056142.6904   22056148.4164
 98  2  4 16 58 59.9990000  0  7 22  3 31 19 18 16 14
  22811176.208     2449452.85749   1770884.96349  22811175.9614   22811180.8814
  23701738.073    -3371136.94249  -2609027.30949  23701736.8294   23701743.2374
  24394997.998    -4573070.57149  -3544731.50149  24394997.6854   24395004.0034
  21693320.547    -3254022.70249  -2521728.19249  21693320.4574   21693325.1064
  20523904.829    -3204751.76349  -2485295.88449  20523904.6064   20523908.6534
  20886544.082      592068.55949    460658.01749  20886543.4574   20886548.6924
  22069017.641     2573671.94849   1998243.09349  22069017.2174   22069023.3734
 98  2  4 16 59 29.9990000  0  7 22  3 31 19 18 16 14
  22823567.721     2514570.45649   1821625.90049  22823567.1034   22823571.8794
  23686092.637    -3453354.46449  -2673092.90749  23686092.0404   23686099.1244
  24372421.133    -4691713.11549  -3637180.22549  24372421.1544   24372428.0124
  21678071.858    -3334155.49049  -2584169.33449  21678071.8434   21678076.2674
  20509204.052    -3282004.99649  -2545493.22049  20509203.7144   20509207.9434
  20890855.419      614724.63949    478312.06049  20890854.8924   20890859.8714
  22081926.898     2641510.52249   2051104.25349  22081926.7604   22081932.3684
 98  2  4 16 59 59.9990000  0  7 22  3 31 19 18 16 14
  22835999.630     2579900.41949   1872532.30649  22835998.6574   22836003.6784
  23670488.777    -3535352.76849  -2736987.66649  23670487.7824   23670493.8994
  24349819.641    -4810484.82149  -3729729.59849  24349818.8114   24349826.2004
  21662840.131    -3414198.78249  -2646540.74549  21662839.7784   21662844.4284
  20494543.528    -3359046.65549  -2605525.69849  20494543.3534   20494547.3044
  20895246.768      637800.99349    496293.59049  20895246.2524   20895251.2324
  22094870.209     2709527.87149   2104104.71149  22094870.2704   22094875.8764
 98  2  4 17  0 29.9990000  0  7 22  3 31 19 18 16 14
  22848465.978     2645411.28649   1923579.67549  22848464.5374   22848470.4604
  23654925.559    -3617137.23249  -2800715.80749  23654925.5864   23654930.7454
  24327192.142    -4929393.10349  -3822385.38749  24327191.1064   24327197.4854
  21647623.616    -3494161.89949  -2708849.67549  21647623.4524   21647628.3534
  20479921.702    -3435885.08749  -2665399.81149  20479921.3064   20479925.3774
  20899720.151      661308.76349    514611.29349  20899719.6054   20899724.8154
  22107842.703     2777698.30849   2157224.46249  22107842.2594   22107848.2184
 98  2  4 17  0 59.9990000  0  8 27 22  3 31 19 18 16 14
  24882796.550    -4541642.28649  -3523989.70849  24882796.4684   24882802.1964
  22860966.622     2711102.75149   1974767.78249  22860965.7934   22860971.3974
  23639406.543    -3698689.54749  -2864263.03549  23639405.2704   23639412.4404
  24304543.382    -5048412.87349  -3915128.05549  24304542.8654   24304549.8464
  21632427.278    -3574019.37349  -2771076.28649  21632426.6734   21632432.0094
  20465341.630    -3512503.98149  -2725102.86149  20465341.1694   20465345.3364
  20904278.488      685262.92749    533276.83249  20904277.8604   20904283.1374
  22120850.250     2846053.26349   2210487.98549  22120849.9844   22120856.4104
 98  2  4 17  1 29.9990000  0  8 27 22  3 31 19 18 16 14
  24862874.859    -4646331.57849  -3605565.77949  24862873.5514   24862881.1684
  22873496.512     2776947.66149   2026075.44849  22873495.5594   22873502.0674
  23623930.642    -3780015.50749  -2927633.89449  23623931.2134   23623936.2784
  24281871.925    -5167551.82249  -4007963.58549  24281871.1504   24281878.7154
  21617249.387    -3653779.59849  -2833227.12149  21617249.1404   21617253.8194
  20450802.406    -3588908.15849  -2784638.59349  20450802.1044   20450806.2114
  20908922.634      709668.07949    552293.79349  20908922.0944   20908927.3814
  22133890.598     2914580.32649   2263885.62249  22133890.8664   22133896.5364
 98  2  4 17  1 59.9990000  0  8 27 22  3 31 19 18 16 14
  24842935.678    -4751113.03249  -3687213.64649  24842934.8644   24842941.9904
  22886047.872     2842905.31149   2077470.97149  22886047.0594   22886052.2334
  23608492.141    -3861145.65449  -2990852.17149  23608491.6914   23608497.8934
  24259170.750    -5286847.79049  -4100921.47549  24259170.8654   24259176.8274
  21602084.492    -3733471.58749  -2895324.78349  21602084.1084   21602088.8984
  20436295.181    -3665144.10349  -2844043.24349  20436294.8774   20436298.9364
  20913644.780      734483.16249    571630.17749  20913644.2154   20913649.5514
  22146958.650     2983252.75449   2317396.52749  22146959.1194   22146964.3234
 98  2  4 17  2 29.9990000  0  8 27 22  3 31 19 18 16 14
  24822988.372    -4855936.66149  -3768894.40049  24822988.7424   24822993.7614
  22898628.609     2909017.49049   2128986.89649  22898627.8804   22898633.3374
  23593100.850    -3942027.31749  -3053876.82349  23593100.6164   23593106.8714
  24236445.583    -5406269.02649  -4193976.98849  24236445.0684   24236451.9954
  21586940.645    -3813052.97549  -2957336.26649  21586940.6324   21586945.3934
  20421828.222    -3741168.56749  -2903283.09649  20421827.7034   20421831.8534
  20918447.599      759721.74449    591296.56049  20918447.0404   20918452.4994
  22160063.073     3052116.64649   2371056.63149  22160063.2874   22160068.7084
 98  2  4 17  2 59.9990000  0  8 27 22  3 31 19 18 16 14
  24803031.892    -4960808.57449  -3850612.75749  24803029.7004   24803038.0604
  22911237.273     2975276.21449   2180617.02149  22911237.0914   22911242.3584
  23577752.161    -4022685.67549  -3116727.48149  23577751.2424   23577757.2354
  24213693.787    -5525831.61449  -4287142.64549  24213694.3884   24213699.5174
  21571812.995    -3892549.53649  -3019281.65049  21571812.6254   21571817.6294
  20407399.447    -3816992.34849  -2962366.57549  20407399.1124   20407403.2324
  20923324.755      785351.37349    611267.66249  20923324.2444   20923329.5294
  22173200.307     3121153.11049   2424851.20649  22173200.2534   22173206.5674
 98  2  4 17  3 29.9990000  0  8 27 22  3 31 19 18 16 14
  24783078.078    -5065666.73749  -3932320.39649  24783077.8524   24783083.3004
  22923883.033     3041729.52449   2232398.77549  22923882.3964   22923887.5024
  23562453.995    -4103078.07349  -3179370.88449  23562454.6024   23562459.8524
  24190922.681    -5645495.15549  -4380386.95149  24190922.8134   24190927.9364
  21556708.998    -3971921.93149  -3081130.27949  21556708.9014   21556713.5444
  20393018.603    -3892564.36149  -3021253.86949  20393018.3374   20393022.4294
  20928282.515      811404.31649    631568.61649  20928282.1524   20928287.3144
  22186374.336     3190382.79849   2478796.34049  22186374.1834   22186380.1044
 98  2  4 17  3 59.9990000  0  8 27 22  3 31 19 18 16 14
  24763126.466    -5170513.43349  -4014019.13049  24763126.6344   24763132.8504
  22936568.749     3108392.46849   2284343.87249  22936568.5644   22936573.6064
  23547206.247    -4183205.71449  -3241807.98749  23547205.7194   23547211.5044
  24168133.943    -5765250.59949  -4473702.89249  24168133.9094   24168140.0904
  21541627.543    -4051175.61349  -3142886.40849  21541627.4224   21541632.0504
  20378687.675    -3967873.79849  -3079936.56249  20378687.2684   20378691.5034
  20933315.880      837854.35549    652178.99349  20933315.4274   20933320.5284
  22199583.438     3259796.54149   2532884.89649  22199583.1584   22199589.2464
 98  2  4 17  4 29.9990000  0  8 27 22  3 31 19 18 16 14
  24743179.332    -5275335.76349  -4095698.85049  24743178.6244   24743185.6224
  22949299.065     3175290.03849   2336471.79549  22949298.8614   22949303.9054
  23532010.143    -4263062.03049  -3304033.68649  23532009.9294   23532015.5314
  24145332.771    -5885071.37049  -4567069.69649  24145332.6844   24145338.4784
  21526572.469    -4130290.64349  -3204534.49649  21526572.2344   21526576.9434
  20364412.581    -4042890.01849  -3138390.76949  20364412.4114   20364416.4744
  20938429.138      864724.21049    673116.50249  20938428.7174   20938433.9754
  22212827.965     3329396.57149   2587118.61049  22212827.6894   22212833.8354
 98  2  4 17  4 59.9990000  0  8 27 22  3 31 19 18 16 14
  24723229.234    -5380174.30349  -4177391.23249  24723228.4254   24723234.5874
  22962068.688     3242394.34549   2388760.79749  22962067.3824   22962073.5494
  23516856.859    -4342693.39349  -3366084.07849  23516856.2294   23516862.2694
  24122515.376    -6004977.74349  -4660503.19249  24122515.0304   24122521.2754
  21511539.127    -4209291.60749  -3266093.70549  21511538.4824   21511543.5234
  20350188.006    -4117640.79049  -3196638.13349  20350187.6484   20350191.7324
  20943617.689      891990.10249    694362.61049  20943617.1964   20943622.5514
  22226100.649     3399144.78049   2641467.78349  22226100.4614   22226106.5634
 98  2  4 17  5 29.9990000  0  8 27 22  3 31 19 18 16 14
  24703272.586    -5485047.05349  -4259110.24149  24703272.7104   24703278.4344
  22974873.526     3309684.01849   2441194.24749  22974873.7664   22974876.9324
  23501743.400    -4422114.77249  -3427970.86349  23501743.0324   23501749.6764
  24099679.579    -6124979.16849  -4754010.77149  24099678.3104   24099685.5424
  21496523.237    -4288200.65649  -3327581.29349  21496522.8674   21496527.5544
  20336010.470    -4192144.49949  -3254692.98749  20336010.1634   20336014.1974
  20948879.267      919639.60549    715907.62849  20948878.7934   20948884.2384
  22239400.595     3469036.25349   2695928.58649  22239400.5434   22239406.5914
 98  2  4 17  5 59.9990000  0  8 27 22  3 31 19 18 16 14
  24683314.628    -5589926.67649  -4340834.63349  24683313.6984   24683320.7044
  22987718.394     3377183.63249   2493791.30149  22987717.8344   22987721.5874
  23486677.913    -4501284.37049  -3489661.45649  23486677.2324   23486684.0484
  24076833.188    -6245036.21349  -4847561.66449  24076831.7264   24076838.4164
  21481531.298    -4366983.77049  -3388970.74649  21481531.0854   21481535.8124
  20321885.185    -4266373.39249  -3312533.69749  20321885.0224   20321888.8414
  20954222.494      947718.47449    737787.22149  20954222.0244   20954227.3714
  22252736.927     3539118.51949   2750538.05549  22252736.9014   22252742.7804
 98  2  4 17  6 29.9990000  0  8 27 22  3 31 19 18 16 14
  24663353.948    -5694820.53449  -4422570.10749  24663355.1354   24663359.8514
  23000599.843     3444875.96849   2546538.51549  23000598.7474   23000604.2684
  23471660.985    -4580199.10749  -3551153.42049  23471660.9574   23471666.5414
  24053974.196    -6365160.56749  -4941165.02549  24053973.7804   24053979.6024
  21466564.315    -4445635.62149  -3450257.91549  21466563.8274   21466568.7394
  20307809.852    -4340339.91249  -3370169.95649  20307809.7064   20307813.6334
  20959649.091      976235.19449    760007.99749  20959648.7174   20959653.8864
  22266109.544     3609391.93049   2805296.47849  22266109.3234   22266115.8204
 98  2  4 17  6 59.9990000  0  8 27 22  3 31 19 18 16 14
  24643395.046    -5799705.38449  -4504298.59149  24643394.7734   24643401.9304
  23013520.019     3512771.82549   2599444.31949  23013519.8624   23013523.7784
  23456700.672    -4658816.30449  -3612413.56149  23456700.1144   23456706.8494
  24031106.338    -6485332.46949  -5034805.44149  24031104.9224   24031113.3734
  21451622.996    -4524152.54749  -3511439.95049  21451622.6814   21451627.5784
  20293785.934    -4414036.22649  -3427595.66949  20293785.7444   20293789.6384
  20965160.964     1005200.36149    782578.21449  20965160.5214   20965165.7324
  22279521.826     3679873.55649   2860217.13449  22279522.4284   22279527.9374
 98  2  4 17  7 29.9990000  0  8 27 22  3 31 19 18 16 14
  24623439.696    -5904571.27049  -4586012.28049  24623439.2984   24623445.7104
  23026479.428     3580873.52649   2652510.53649  23026479.7404   23026483.3434
  23441802.819    -4737105.39149  -3673418.02749  23441802.4984   23441808.6484
  24008230.519    -6605546.49549  -5128478.70349  24008229.7984   24008235.5234
  21436705.494    -4602544.53149  -3572524.62949  21436705.3084   21436710.0894
  20279812.703    -4487466.15049  -3484813.80849  20279812.3884   20279816.4864
  20970758.293     1034614.23849    805498.07149  20970757.6474   20970762.8454
  22292974.181     3750565.38349   2915301.58949  22292974.1154   22292980.2644
 98  2  4 17  7 59.9990000  0  8 27 22  3 31 19 18 16 14
  24603481.431    -6009452.89549  -4667738.22749  24603481.3944   24603488.8384
  23039471.472     3649146.46449   2705710.18549  23039470.1974   23039475.2434
  23426963.457    -4815086.17149  -3734182.28349  23426963.9404   23426969.0524
  23985339.354    -6725840.35049  -5222214.15749  23985338.0064   23985345.9864
  21421808.754    -4680827.50749  -3633524.36349  21421808.4114   21421813.2724
  20265883.226    -4560666.03449  -3541852.69649  20265882.8614   20265886.8254
  20976432.490     1064432.19049    828732.79749  20976431.9984   20976437.3154
  22306458.045     3821422.82249   2970515.09049  22306458.1204   22306463.8954
 98  2  4 17  8 29.9990000  0  8 27 22  3 31 19 18 16 14
  24583518.800    -6114358.18549  -4749482.64349  24583519.2344   24583524.3054
  23052496.087     3717591.24949   2759043.73249  23052495.1604   23052500.7814
  23412182.568    -4892760.19149  -3794707.49949  23412182.0744   23412187.9644
  23962433.453    -6846211.34949  -5316009.71649  23962432.7834   23962439.5374
  21406929.520    -4759018.39349  -3694452.34149  21406929.1414   21406934.3544
  20251997.617    -4633635.46049  -3598712.00849  20251997.2844   20252001.3214
  20982178.509     1094627.24249    852261.36349  20982178.0004   20982183.2584
  22319972.062     3892438.82249   3025852.14749  22319971.2954   22319977.2994
 98  2  4 17  8 59.9990000  0  8 27 22  3 31 19 18 16 14
  24563556.555    -6219260.45249  -4831224.69749  24563556.2344   24563562.7554
  23065554.816     3786215.56749   2812517.16449  23065553.4604   23065558.7644
  23397461.520    -4970119.67249  -3854987.60649  23397460.4654   23397466.9124
  23939517.678    -6966634.53749  -5409845.92649  23939516.5584   23939523.7834
  21392069.289    -4837109.52449  -3755302.58749  21392068.9094   21392073.8724
  20238161.541    -4706344.56549  -3655368.46549  20238161.2624   20238165.2854
  20987997.386     1125205.31549    876088.39049  20987996.9724   20988002.1554
  22333521.092     3963639.05349   3081332.76049  22333521.2254   22333526.8714
 98  2  4 17  9 29.9990000  0  8 27 22  3 31 19 18 16 14
  24543594.789    -6324160.46949  -4912964.98349  24543594.7034   24543600.9504
  23078645.846     3855009.51249   2866122.78349  23078644.9474   23078650.6124
  23382798.462    -5047174.64249  -3915030.41949  23382798.2464   23382802.7154
  23916592.722    -7087106.50949  -5503720.15949  23916592.4484   23916599.7194
  21377233.856    -4915070.43049  -3816051.36049  21377233.6194   21377238.6134
  20224377.858    -4778778.32649  -3711810.37149  20224377.5254   20224381.6134
  20993889.651     1156169.30549    900216.12749  20993889.0634   20993894.4274
  22347107.567     4035036.56149   3136967.09249  22347107.0704   22347113.2804
 98  2  4 17  9 59.9990000  0  8 27 22  3 31 19 18 16 14
  24523627.268    -6429090.18549  -4994728.42449  24523627.4164   24523633.4224
  23091759.253     3923921.02349   2919820.01949  23091758.7384   23091763.6804
  23368184.643    -5123969.89649  -3974870.87149  23368184.7124   23368189.2394
  23893653.513    -7207652.98449  -5597652.41949  23893651.6694   23893658.8854
  21362418.885    -4992923.45049  -3876716.06349  21362418.5954   21362423.3984
  20210642.145    -4850960.17149  -3768055.98449  20210641.7544   20210645.9074
  20999850.997     1187496.32949    924626.74849  20999850.4664   20999855.6864
  22360723.251     4106587.47949   3192720.96749  22360722.7444   22360728.6754
 98  2  4 17 10 29.9990000  0  8 27 22  3 31 19 18 16 14
  24503661.136    -6534013.04149  -5076486.53749  24503660.6394   24503667.4954
  23104899.701     3992974.33449   2973627.73549  23104898.3124   23104904.6344
  23353626.359    -5200474.63949  -4034484.93949  23353626.6414   23353631.6504
  23870707.869    -7328232.83949  -5691610.72849  23870706.8744   23870714.1214
  21347629.526    -5070641.78849  -3937275.82549  21347629.3244   21347634.2964
  20196964.012    -4922839.32149  -3824065.72949  20196963.7834   20196967.8654
  21005890.217     1219232.36349    949356.07849  21005889.7854   21005895.0624
  22374372.001     4178312.02649   3248610.14149  22374371.6654   22374377.2214
 98  2  4 17 10 59.9990000  0  8 27 22  3 31 19 18 16 14
  24483704.132    -6638888.01249  -5158207.30449  24483704.0844   24483709.9024
  23118071.032     4062190.27449   3027562.18349  23118070.5334   23118075.5534
  23339130.366    -5276650.94249  -4093843.08449  23339130.0864   23339136.2594
  23847760.371    -7448823.18449  -5785577.19749  23847759.8594   23847767.0364
  21332876.252    -5148171.02349  -3997688.22349  21332876.1174   21332881.1644
  20183349.634    -4994383.50249  -3879814.46149  20183349.4284   20183353.3874
  21012015.747     1251422.10349    974438.94849  21012015.4444   21012020.5694
  22388055.105     4250216.81449   3304639.75649  22388054.7024   22388061.0024
 98  2  4 17 11 29.9990000  0  8 27 22  3 31 19 18 16 14
  24463755.626    -6743718.65449  -5239893.55249  24463754.7254   24463760.6434
  23131276.646     4131586.40449   3081637.03249  23131275.8514   23131281.3104
  23324700.849    -5352478.74349  -4152929.68549  23324700.4464   23324706.1944
  23824813.841    -7569407.77049  -5879539.20249  23824812.9954   23824820.8334
  21318160.905    -5225500.90549  -4057945.28949  21318160.9544   21318165.5204
  20169798.074    -5065597.53649  -3935305.93449  20169797.6404   20169801.8694
  21018227.977     1284067.41649    999876.79249  21018227.4444   21018232.7274
  22401768.468     4322280.60149   3360793.26349  22401768.0194   22401774.7704
 98  2  4 17 11 59.9990000  0  9 27 22  3 31 19 18 16 13 14
  24443816.917    -6848496.88349  -5321538.93749  24443817.6274   24443823.6574
  23144520.831     4201184.79649   3135869.48749  23144519.9624   23144525.8564
  23310339.732    -5427946.75749  -4211735.92349  23310339.9074   23310345.2294
  23801871.220    -7689971.96649  -5973485.31549  23801870.2684   23801877.6394
  21303479.475    -5302652.41849  -4118063.36349  21303479.4284   21303484.1774
  20156311.330    -5136470.72649  -3990531.81349  20156311.1164   20156315.1654
  21024525.726     1317162.32749   1025664.98249  21024525.2144   21024530.7194
  24206161.283    -2945987.07249  -1686577.52549  24206160.4844   24206166.8754
  22415510.515     4394495.31549   3417064.36749  22415510.5354   22415516.5574
 98  2  4 17 12 29.9990000  0  9 27 22  3 31 19 18 16 13 14
  24423878.767    -6953272.98449  -5403182.66649  24423878.2814   24423884.1574
  23157797.787     4270955.52649   3190236.23849  23157797.5604   23157802.6094
  23296039.239    -5503096.24549  -4270293.94649  23296038.8484   23296044.2854
  23778924.273    -7810558.62649  -6067448.88549  23778923.6444   23778931.0574
  21288823.495    -5379670.33849  -4178077.33749  21288823.3244   21288828.4184
  20142882.120    -5207042.01649  -4045522.44249  20142881.7934   20142885.8534
  21030898.287     1350649.98449   1051759.21249  21030897.8124   21030903.3144
  24182472.911    -3070470.45649  -1783577.55849  24182473.2524   24182478.0164
  22429276.887     4466837.74349   3473434.99349  22429276.9154   22429282.1794
 98  2  4 17 12 59.9990000  0  9 27 22  3 31 19 18 16 13 14
  24403938.893    -7058058.05349  -5484833.39649  24403938.9654   24403943.7954
  23171106.293     4340892.01449   3244732.16049  23171105.4084   23171111.7694
  23281796.277    -5577943.51349  -4328616.49349  23281795.8284   23281802.0934
  23755974.741    -7931157.85449  -6161422.25149  23755974.3814   23755981.5684
  21274190.453    -5456568.12549  -4237997.70849  21274190.0954   21274194.9464
  20129505.061    -5277339.19649  -4100299.48349  20129504.7244   20129508.7124
  21037341.670     1384509.86649   1078143.48949  21037341.0124   21037346.3364
  24158761.896    -3195072.68849  -1880670.22049  24158761.8274   24158765.9004
  22443068.118     4539310.76449   3529907.37049  22443067.6984   22443073.9224
 98  2  4 17 13 29.9990000  0  9 27 22  3 31 19 18 16 13 14
  24384002.079    -7162827.04449  -5566471.59949  24384002.6464   24384007.8784
  23184451.742     4411022.26549   3299379.05049  23184450.8794   23184456.6624
  23267616.238    -5652459.90849  -4386681.23649  23267616.1554   23267621.5634
  23733030.648    -8051729.36049  -6255374.01149  23733029.6154   23733036.8184
  21259582.223    -5533335.08649  -4297816.12949  21259581.9284   21259586.8804
  20116186.029    -5347331.29849  -4154838.80349  20116185.6944   20116189.7954
  21043861.752     1418773.09049   1104842.05149  21043861.1684   21043866.7664
  24135035.993    -3319752.85749  -1977823.56249  24135035.9224   24135040.1834
  22456894.445     4611968.24149   3586523.48449  22456894.9354   22456901.1174
 98  2  4 17 13 59.9990000  0  9 27 22  3 31 19 18 16 13 14
  24364068.428    -7267578.72249  -5648096.27749  24364066.6884   24364074.5704
  23197831.942     4481335.36849   3354168.42649  23197832.6854   23197836.5114
  23253500.129    -5726640.96049  -4444484.65649  23253500.0374   23253505.8234
  23710089.244    -8172287.60549  -6349315.42649  23710088.1784   23710095.2304
  21244998.007    -5609975.86949  -4357536.22849  21244997.7744   21245003.0744
  20102925.742    -5417014.67349  -4209137.54949  20102925.4544   20102929.4524
  21050461.630     1453455.54549   1131867.29249  21050461.2494   21050466.4944
  24111295.868    -3444507.11249  -2075034.64749  24111296.8274   24111298.9584
  22470760.642     4684835.09549   3643302.75149  22470760.9964   22470766.9224
 98  2  4 17 14 29.9990000  0  9 27 22  3 31 19 18 16 13 14
  24344132.847    -7372340.97449  -5729729.24749  24344133.1574   24344138.1474
  23211238.620     4551787.66649   3409066.28049  23211237.9944   23211244.2084
  23239444.074    -5800506.57549  -4502042.28449  23239443.5484   23239450.1304
  23687143.305    -8292869.84049  -6443275.54849  23687143.1424   23687150.1534
  21230433.983    -5686510.29349  -4417173.45749  21230433.7074   21230438.6784
  20089715.159    -5486436.84549  -4263232.76549  20089714.8604   20089718.9554
  21057136.189     1488530.41449   1159198.30349  21057135.6784   21057141.1934
  24087537.643    -3569357.20449  -2172320.37649  24087537.3154   24087542.2264
  22484660.779     4757880.47449   3700221.12449  22484660.8434   22484666.8844
 98  2  4 17 14 59.9990000  0  9 27 22  3 31 19 18 16 13 14
  24324198.810    -7477095.03649  -5811355.78749  24324199.4774   24324204.7594
  23224673.876     4622389.87449   3464080.91449  23224673.1334   23224679.0774
  23225454.267    -5874023.66949  -4559328.34049  23225453.9434   23225460.7324
  23664195.082    -8413463.92149  -6537244.91149  23664194.5094   23664200.7214
  21215892.749    -5762924.83249  -4476717.27149  21215892.6634   21215897.3584
  20076556.665    -5555585.31549  -4317114.71049  20076556.3994   20076560.5764
  21063888.507     1524013.66449   1186847.53049  21063888.0544   21063893.7734
  24063762.544    -3694296.58749  -2269675.76649  24063762.4844   24063767.8624
  22498594.108     4831100.25549   3757275.39949  22498594.5374   22498599.6634
 98  2  4 17 15 29.9980000  0  9 27 22  3 31 19 18 16 13 14
  24304263.481    -7581856.04949  -5892987.78649  24304263.9984   24304268.8874
  23238134.611     4693126.59949   3519200.38349  23238134.2644   23238140.4634
  23211533.279    -5947179.67049  -4616333.03349  23211533.3204   23211539.2194
  23641240.575    -8534090.60249  -6631239.68549  23641240.4204   23641245.5424
  21201373.868    -5839222.17949  -4536169.76249  21201373.5644   21201378.2794
  20063452.854    -5624446.29349  -4370772.63049  20063452.3814   20063456.4934
  21070716.044     1559892.48249   1214804.99849  21070715.6174   21070720.9774
  24039966.685    -3819344.73249  -2367115.83349  24039967.0274   24039972.1204
  22512556.719     4904473.80449   3814449.48149  22512557.0714   22512563.1704
 98  2  4 17 15 59.9980000  0  9 27 22  3 31 19 18 16 13 14
  24284327.692    -7686619.42349  -5974621.58949  24284327.5604   24284333.9974
  23251625.211     4764020.09449   3574441.99849  23251624.2354   23251631.8154
  23197680.879    -6019975.23049  -4673056.86549  23197681.0204   23197686.5794
  23618281.448    -8654741.13749  -6725253.04349  23618281.0244   23618286.0184
  21186880.445    -5915385.80349  -4595518.05449  21186880.1584   21186885.1034
  20050406.808    -5693003.72849  -4424194.02649  20050406.3434   20050410.6194
  21077619.396     1596169.65449   1243072.87049  21077618.8784   21077624.3864
  24016151.099    -3944496.73749  -2464636.87049  24016151.9644   24016156.4674
  22526547.513     4977995.40749   3871738.94149  22526547.8154   22526553.0284
 98  2  4 17 16 29.9980000  0  9 27 22  3 31 19 18 16 13 14
  24264396.224    -7791360.66449  -6056238.15649  24264395.4094   24264402.3894
  23265149.099     4835088.46949   3629819.88549  23265148.8334   23265154.4244
  23183900.500    -6092392.16749  -4729485.64049  23183900.4304   23183905.8094
  23595326.283    -8775371.45949  -6819250.66849  23595323.8774   23595331.6544
  21172418.700    -5991382.74949  -4654736.46249  21172418.3504   21172423.4834
  20037427.047    -5761213.01449  -4477344.13449  20037426.6784   20037430.8454
  21084597.772     1632840.99149   1271647.88749  21084597.2374   21084602.4914
  23992322.066    -4069719.58349  -2562213.10149  23992322.4214   23992326.7524
  22540564.404     5051654.24749   3929135.32749  22540564.6124   22540570.7274
 98  2  4 17 16 59.9980000  0  9 27 22  3 31 19 18 16 13 14
  24244465.519    -7896097.68749  -6137851.42549  24244464.7864   24244471.7544
  23278702.790     4906313.44849   3685319.80049  23278702.6594   23278707.9904
  23170188.071    -6164451.53849  -4785635.82149  23170187.5934   23170194.2554
  23572375.352    -8895979.12849  -6913230.61249  23572373.4154   23572381.6864
  21157987.698    -6067218.04849  -4713828.91649  21157987.4504   21157992.1984
  20024516.703    -5829057.49049  -4530209.97449  20024516.4164   20024520.6014
  21091651.015     1669905.90349   1300529.58449  21091650.4844   21091656.0254
  23968480.404    -4195008.54249  -2659840.84249  23968480.6464   23968485.2354
  22554604.606     5125435.53349   3986627.13549  22554605.2124   22554610.6544
 98  2  4 17 17 29.9980000  0  9 27 22  3 31 19 18 16 13 14
  24224540.043    -8000807.19849  -6219443.27249  24224539.5304   24224546.2164
  23292291.144     4977719.88049   3740961.12749  23292291.5924   23292295.5104
  23156546.405    -6236138.98649  -4841496.16749  23156546.1374   23156551.9114
  23549436.478    -9016523.20349  -7007161.01049  23549436.8644   23549443.0624
  21143590.854    -6142873.93349  -4772781.55849  21143590.7874   21143595.4214
  20011681.212    -5896508.51549  -4582769.22749  20011680.7424   20011684.9304
  21098783.815     1707388.75849   1329736.95249  21098783.4164   21098788.9594
  23944633.910    -4320322.60949  -2757488.13549  23944634.4644   23944639.2414
  22568672.532     5199362.14449   4044232.15849  22568671.9244   22568678.4644
 98  2  4 17 17 59.9980000  0  9 27 22  3 31 19 18 16 13 14
  24204619.233    -8105491.47749  -6301015.42749  24204619.2514   24204624.4064
  23305909.451     5049283.65049   3796725.03749  23305907.5064   23305914.2914
  23142970.411    -6307481.04149  -4897087.37749  23142969.7354   23142976.4444
  23526508.117    -9137013.04349  -7101049.13549  23526508.2874   23526514.1584
  21129223.860    -6218373.40749  -4831612.32849  21129223.8034   21129228.3074
  19998916.838    -5963585.77049  -4635037.23049  19998916.2984   19998920.3434
  21105993.324     1745274.52949   1359258.27549  21105992.9154   21105998.5814
  23920782.592    -4445662.75149  -2855155.79849  23920782.5874   23920785.4344
  22582763.866     5273412.09949   4101933.30249  22582763.0084   22582769.7194
 98  2  4 17 18 29.9980000  0  9 27 22  3 31 19 18 16 13 14
  24184705.936    -8210136.52749  -6382557.01949  24184705.9564   24184711.4704
  23319558.359     5121008.42249   3852614.40049  23319558.8254   23319561.9324
  23129466.222    -6378445.68949  -4952384.51049  23129466.1544   23129471.9854
  23503591.904    -9257438.09649  -7194886.80749  23503591.5224   23503598.3334
  21114887.614    -6293711.10949  -4890317.03849  21114887.2184   21114891.9994
  19986224.063    -6030286.64749  -4687011.95749  19986223.7454   19986227.8264
  21113281.444     1783573.63449   1389101.67049  21113281.1404   21113286.5614
  23896928.129    -4571018.78749  -2952835.87749  23896929.3304   23896930.8554
  22596883.059     5347608.73649   4159748.74249  22596882.5144   22596889.4064
 98  2  4 17 18 59.9980000  0  9 27 22  3 31 19 18 16 13 14
  24164797.852    -8314753.85349  -6464077.02449  24164798.1184   24164803.8174
  23333234.746     5192877.56049   3908616.29349  23333234.3384   23333240.3104
  23116031.929    -6449043.09549  -5007395.47149  23116031.8544   23116037.9624
  23480686.438    -9377806.64449  -7288680.42949  23480685.4604   23480692.5024
  21100576.902    -6368914.49749  -4948917.08649  21100576.3854   21100581.4014
  19973595.393    -6096651.01249  -4738724.46149  19973594.8684   19973599.1224
  21120644.632     1822266.97149   1419252.26949  21120644.1624   21120649.9174
  23873066.026    -4696414.94549  -3050547.19049  23873066.6304   23873070.4714
  22611028.010     5421940.42249   4217669.41249  22611028.5214   22611033.8784
 98  2  4 17 19 29.9980000  0  9 27 22  3 31 19 18 16 13 14
  24144901.614    -8419309.06549  -6545548.59649  24144902.0024   24144907.4094
  23346944.913     5264924.35549   3964756.59649  23346945.0764   23346949.5104
  23102673.611    -6519240.83449  -5062095.00949  23102673.4924   23102679.3464
  23457795.183    -9498100.09849  -7382415.54849  23457794.1474   23457801.2494
  21086295.395    -6443964.14449  -5007397.33749  21086294.9324   21086299.9424
  19961032.657    -6162668.54349  -4790166.70849  19961032.2154   19961036.5034
  21128082.864     1861354.81549   1449710.27149  21128082.2834   21128088.0394
  23849199.543    -4821834.12949  -3148276.43649  23849199.6134   23849204.4284
  22625203.959     5496434.66649   4275716.75149  22625204.0874   22625210.1004
 98  2  4 17 19 59.9980000  0  9 27 22  3 31 19 18 16 13 14
  24125015.359    -8523812.16249  -6626979.59049  24125014.6104   24125020.9524
  23360684.032     5337123.14049   4021015.34249  23360682.9764   23360690.0444
  23089388.837    -6589052.09449  -5116493.37149  23089388.3094   23089394.6354
  23434913.416    -9618344.60049  -7476112.52449  23434913.0874   23434919.2064
  21072042.832    -6518861.95949  -5065759.27649  21072042.7084   21072047.5254
  19948532.019    -6228359.65549  -4841354.60249  19948531.5894   19948535.9684
  21135591.277     1900811.64449   1480455.79349  21135590.6154   21135596.3284
  23825325.458    -4947293.63349  -3246037.05649  23825325.9704   23825330.8344
  22639407.750     5571075.82749   4333878.57049  22639407.2054   22639414.5164
 98  2  4 17 20 29.9980000  0  9 27 22  3 31 19 18 16 13 14
  24105136.230    -8628277.77349  -6708381.38249  24105135.7924   24105141.4294
  23374449.828     5409462.41349   4077383.52649  23374448.0064   23374455.2334
  23076176.301    -6658483.88649  -5170596.05449  23076175.7364   23076181.3594
  23412040.028    -9738544.92649  -7569775.08749  23412039.0134   23412045.6494
  21057819.054    -6593608.53149  -5124003.36749  21057818.7254   21057823.5144
  19936089.629    -6293744.91949  -4892304.17649  19936089.3334   19936093.4804
  21143166.650     1940620.46649   1511475.59249  21143166.0114   21143171.9084
  23801439.134    -5072815.23049  -3343846.04449  23801438.4474   23801445.2064
  22653637.274     5645851.93349   4392145.53849  22653637.5734   22653643.9184
 98  2  4 17 20 59.9980000  0  9 27 22  3 31 19 18 16 13 14
  24085268.464    -8732683.77649  -6789736.67449  24085269.1754   24085273.2304
  23388246.573     5481964.86149   4133878.87349  23388246.2544   23388250.9264
  23063037.929    -6727526.41149  -5224395.40549  23063037.0024   23063043.9874
  23389181.235    -9858668.57349  -7663377.90649  23389180.3774   23389187.8534
  21043629.143    -6668176.85249  -5182108.55349  21043628.7394   21043633.6204
  19923709.949    -6358800.55549  -4942996.89449  19923709.7034   19923713.7654
  21150816.576     1980821.00549   1542800.63449  21150815.9654   21150821.6774
  23777546.504    -5198371.34049  -3441681.95649  23777546.3674   23777550.4904
  22667897.207     5720787.91549   4450537.08549  22667897.5314   22667902.9264
 98  2  4 17 21 29.9980000  0  9 27 22  3 31 19 18 16 13 14
  24065411.341    -8837033.94249  -6871048.48449  24065410.8334   24065418.4224
  23402071.741     5554616.36649   4190490.37349  23402070.6444   23402075.6924
  23049972.394    -6796186.15749  -5277896.49049  23049972.3164   23049978.2764
  23366333.362    -9978735.23149  -7756936.30449  23366332.0554   23366339.6484
  21029472.162    -6742572.27149  -5240079.01549  21029471.7304   21029476.8394
  19911392.453    -6423529.46349  -4993435.02249  19911392.2204   19911396.3034
  21158544.001     2021428.82449   1574443.02949  21158543.5054   21158549.0824
  23753645.865    -5323969.70849  -3539550.83849  23753646.1634   23753650.6644
  22682187.332     5795882.93549   4509052.56049  22682186.8994   22682193.4744
 98  2  4 17 21 59.9980000  0  9 27 22  3 31 19 18 16 13 14
  24045562.640    -8941339.29049  -6952325.37649  24045563.5534   24045568.4894
  23415922.492     5627402.55449   4247206.81149  23415920.6654   23415925.7264
  23036979.296    -6864465.69249  -5331101.30949  23036979.3114   23036985.0304
  23343499.883   -10098725.83049  -7850435.42449  23343498.0034   23343505.8294
  21015346.702    -6816802.18749  -5297920.52049  21015346.4384   21015351.3474
  19899137.998    -6487927.08349  -5043615.00149  19899137.6344   19899141.8594
  21166351.130     2062455.33349   1606411.67549  21166350.6404   21166356.5944
  23729734.648    -5449624.33049  -3637463.55849  23729735.1064   23729739.3754
  22696506.492     5871130.06149   4567686.55049  22696506.0364   22696513.4914
 98  2  4 17 22 29.9980000  0  9 27 22  3 31 19 18 16 13 14
  24025715.268    -9045637.64749  -7033596.81249  24025714.6544   24025720.8044
  23429793.891     5700297.65849   4304008.11349  23429793.2624   23429797.5654
  23024054.845    -6932384.49049  -5384025.03249  23024054.5694   23024060.7004
  23320678.731   -10218651.58349  -7943884.00949  23320677.8314   23320685.3914
  21001244.764    -6890908.49749  -5355665.70249  21001244.5914   21001249.3524
  19886943.216    -6552011.30049  -5093550.76749  19886942.6764   19886946.9114
  21174233.776     2103878.68949   1638689.55649  21174233.2334   21174239.0544
  23705805.727    -5575371.82349  -3735448.63049  23705806.0324   23705810.5424
  22710849.802     5946504.20949   4626419.53749  22710849.8164   22710856.1124
 98  2  4 17 22 59.9980000  0  9 27 22  3 31 19 18 16 13 14
  24005877.644    -9149884.03649  -7114827.73549  24005876.0084   24005882.8934
  23443694.923     5773347.86749   4360930.29849  23443695.2384   23443699.4274
  23011209.084    -6999889.79549  -5436626.56149  23011209.7514   23011214.7114
  23297879.141   -10338464.19249  -8037244.42749  23297879.2144   23297885.1344
  20987173.504    -6964853.28549  -5413285.02949  20987173.2324   20987178.2284
  19874821.268    -6615712.67849  -5143188.22649  19874820.8984   19874825.2444
  21182198.426     2145732.73049   1671303.03149  21182197.9694   21182203.7134
  23681868.603    -5701161.89349  -3833466.84649  23681868.8934   23681874.8654
  22725225.062     6022046.41149   4685283.44849  22725224.5044   22725231.4924
 98  2  4 17 23 29.9980000  0  9 27 22  3 31 19 18 16 13 14
  23986042.614    -9254117.08449  -7196048.28449  23986043.0884   23986048.7874
  23457617.718     5846512.86749   4417941.91249  23457617.8694   23457622.6304
  22998438.870    -7066998.70149  -5488919.20249  22998439.2224   22998443.8714
  23275094.445   -10458198.93949  -8130544.18449  23275093.7584   23275100.6144
  20973128.116    -7038662.36849  -5470798.61449  20973127.6864   20973132.8714
  19862770.064    -6679042.25149  -5192535.96449  19862769.9014   19862774.1374
  21190232.320     2187950.73749   1704200.12049  21190231.7484   21190237.4754
  23657915.548    -5827035.78649  -3931550.35949  23657915.3864   23657919.9984
  22739621.614     6097700.32849   4744234.42349  22739621.1384   22739628.6024
 98  2  4 17 23 59.9980000  0  9 27 22  3 31 19 18 16 13 14
  23966209.778    -9358339.46849  -7277260.50149  23966208.7894   23966216.0534
  23471564.476     5919802.92949   4475050.99949  23471563.9744   23471569.3754
  22985749.153    -7133684.26949  -5540881.96949  22985749.9364   22985754.3224
  23252328.411   -10577835.10949  -8223767.13449  23252327.3994   23252334.0934
  20959112.905    -7112313.04649  -5528188.75949  20959112.7184   20959117.4294
  19850795.568    -6741968.86749  -5241569.71149  19850795.3804   19850799.5434
  21198332.752     2230518.34049   1737369.62649  21198332.3204   21198337.7934
  23633950.078    -5952975.38949  -4029685.07349  23633950.4874   23633955.0534
  22754039.349     6173465.97449   4803272.44349  22754039.2364   22754046.4234
 98  2  4 17 24 29.9980000  0  9 27 22  3 31 19 18 16 13 14
  23946378.694    -9462551.98049  -7358465.05249  23946377.9974   23946384.3114
  23485533.610     5993210.87849   4532251.95949  23485532.5644   23485537.6174
  22973140.536    -7199943.52649  -5592512.55849  22973139.9464   22973145.7224
  23229576.069   -10697399.38449  -8316934.05949  23229576.0594   23229582.3934
  20945127.545    -7185806.91449  -5585456.71749  20945127.1904   20945132.1434
  19838897.480    -6804493.92349  -5290290.55049  19838897.2774   19838901.6504
  21206496.580     2273419.23049   1770798.82749  21206496.0284   21206501.5984
  23609974.250    -6078969.19349  -4127862.05149  23609974.9444   23609979.2994
  22768476.011     6249330.86649   4862387.79749  22768475.5624   22768482.4804
 98  2  4 17 24 59.9980000  0  9 27 22  3 31 19 18 16 13 14
  23926553.975    -9566731.57249  -7439643.95549  23926554.4314   23926559.5074
  23499529.079     6066757.99049   4589561.34149  23499527.9254   23499534.0454
  22960616.930    -7265755.43849  -5643794.55349  22960615.9664   22960622.1284
  23206841.412   -10816870.46649  -8410028.37049  23206840.8184   23206847.7944
  20931179.220    -7259105.74249  -5642572.70349  20931178.9864   20931183.9204
  19827080.869    -6866590.77049  -5338677.72349  19827080.5084   19827084.7994
  21214729.537     2316683.68949   1804511.33149  21214728.8694   21214734.6814
  23585995.514    -6204978.98649  -4226051.50649  23585995.7754   23586000.1854
  22782933.268     6325303.83149   4921587.35549  22782933.5634   22782939.8544
 98  2  4 17 25 29.9980000  0  9 27 22  3 31 19 18 16 13 14
  23906728.495    -9670915.55549  -7520826.26149  23906727.8974   23906734.4244
  23513544.342     6140408.32149   4646951.12749  23513542.7434   23513548.9974
  22948171.571    -7331156.59949  -5694756.52049  22948170.7424   22948176.6934
  23184118.758   -10936278.61749  -8503073.62949  23184118.3794   23184124.2814
  20917260.468    -7332249.27749  -5699567.68549  20917260.1324   20917264.8244
  19815336.457    -6928308.03949  -5386769.11949  19815336.2284   19815340.2624
  21223028.508     2360294.98849   1838494.10549  21223027.7844   21223033.1064
  23562006.486    -6331042.80449  -4324283.08349  23562006.5024   23562011.1374
  22797404.469     6401349.86949   4980843.85149  22797404.9354   22797411.4974
 98  2  4 17 25 59.9980000  0  9 27 22  3 31 19 18 16 13 14
  23886908.599    -9775070.24949  -7601985.75349  23886908.5874   23886915.1244
  23527583.274     6214182.96149   4704437.81649  23527581.9944   23527589.1814
  22935805.208    -7396142.41249  -5745394.80749  22935804.4834   22935810.4194
  23161413.083   -11055597.74149  -8596049.52349  23161411.6484   23161417.8354
  20903370.823    -7405240.13949  -5756443.69549  20903370.8374   20903375.4354
  19803666.754    -6989632.94049  -5434554.77149  19803666.2074   19803670.4184
  21231400.404     2404289.40449   1872775.41149  21231399.9984   21231405.8184
  23538012.698    -6457130.35949  -4422533.08849  23538012.2234   23538019.0464
  22811895.503     6477500.24149   5040181.65449  22811895.5234   22811901.7724
 98  2  4 17 26 29.9980000  0  9 27 22  3 31 19 18 16 13 14
  23867095.194    -9879190.63949  -7683118.51149  23867095.6044   23867101.3184
  23541643.638     6288070.08949   4762012.17649  23541641.9604   23541648.1844
  22923512.193    -7460742.61849  -5795732.63649  22923511.5234   22923516.4444
  23138723.237   -11174833.64949  -8688960.57549  23138723.1754   23138727.8674
  20889505.158    -7478105.01049  -5813221.53249  20889504.8674   20889509.7674
  19792067.517    -7050587.42149  -5482051.78749  19792067.2674   19792071.3514
  21239842.514     2448652.78249   1907344.21849  21239841.9134   21239847.9094
  23514011.994    -6583254.58749  -4520811.67449  23514011.4394   23514017.2464
  22826404.846     6553746.66649   5099594.30849  22826404.6694   22826412.1854
 98  2  4 17 26 59.9980000  0  9 27 22  3 31 19 18 16 13 14
  23847283.706    -9983301.29449  -7764243.70149  23847283.3394   23847289.7254
  23555721.515     6362049.43449   4819658.36849  23555720.3944   23555725.0274
  22911285.310    -7524994.94949  -5845799.38949  22911284.9374   22911290.6134
  23116047.239   -11293996.48949  -8781814.69049  23116046.9344   23116051.3464
  20875656.829    -7550878.44949  -5869928.12049  20875656.5244   20875661.5894
  19780531.509    -7111209.62249  -5529289.87849  19780531.1034   19780535.2974
  21248347.436     2493346.11349   1942170.12649  21248347.0254   21248352.8254
  23489995.963    -6709459.93649  -4619153.47649  23489996.3544   23490000.0784
  22840926.758     6630059.00949   5159058.32349  22840926.8554   22840933.0544
 98  2  4 17 27 29.9980000  0  9 27 22  3 31 19 18 16 13 14
  23827480.197   -10087369.44149  -7845335.75349  23827479.3494   23827485.2164
  23569818.965     6436132.26649   4877385.18649  23569816.7254   23569823.6254
  22899129.130    -7588875.95849  -5895576.80249  22899128.1134   22899134.9904
  23093389.468   -11413064.21549  -8874594.69549  23093388.3204   23093394.9534
  20861826.159    -7623558.84249  -5926562.20549  20861825.9284   20861830.6244
  19769061.255    -7171486.29849  -5576258.73149  19769060.9544   19769065.2514
  21256914.830     2538367.71749   1977251.83549  21256914.3144   21256920.0794
  23465968.776    -6835724.16249  -4717541.18049  23465968.9484   23465972.9744
  22855465.963     6706462.11049   5218593.06049  22855465.3214   22855473.2294
 98  2  4 17 27 59.9980000  0  9 27 22  3 31 19 18 16 13 14
  23807689.171   -10191371.89749  -7926376.62249  23807688.6704   23807695.0744
  23583938.954     6510333.65149   4935204.38349  23583936.8604   23583943.8124
  22887050.546    -7652349.12649  -5945036.41849  22887048.9064   22887055.7114
  23070755.250   -11532007.95349  -8967278.07649  23070754.7094   23070760.6324
  20848021.462    -7696103.18849  -5983090.28749  20848021.0854   20848026.0524
  19757660.623    -7231397.10649  -5622942.49949  19757660.3264   19757664.5504
  21265547.807     2583734.19349   2012602.26349  21265547.2884   21265552.9614
  23441939.511    -6961998.46549  -4815936.73449  23441939.0234   23441944.1254
  22870027.567     6782983.30049   5278219.80349  22870027.7694   22870034.6824
 98  2  4 17 28 29.9980000  0  9 27 22  3 31 19 18 16 13 14
  23787907.096   -10295327.64249  -8007381.08449  23787906.0854   23787912.5834
  23598083.079     6584661.69449   4993122.28749  23598082.3884   23598089.7314
  22875052.621    -7715397.90949  -5994165.34049  22875051.3024   22875058.0374
  23048145.745   -11650820.82449  -9059859.47049  23048145.3814   23048151.9764
  20834249.114    -7768477.37749  -6039485.76949  20834248.5604   20834253.7624
  19746328.085    -7290950.19049  -5669347.51449  19746327.7824   19746332.0354
  21274245.903     2629442.73649   2048219.24149  21274245.4664   21274251.2624
  23417909.843    -7088274.93849  -4914334.00349  23417907.8704   23417915.1424
  22884610.250     6859615.79949   5337933.29249  22884611.1134   22884617.2134
 98  2  4 17 28 59.9980000  0  9 27 22  3 31 19 18 16 13 14
  23768131.949   -10399246.79549  -8088357.06049  23768131.8054   23768137.1214
  23612250.284     6659110.59449   5051134.39049  23612248.8104   23612257.4984
  22863139.550    -7778000.96249  -6042946.94949  22863139.1384   22863145.0374
  23025562.669   -11769495.47149  -9152333.16049  23025562.0454   23025568.6594
  20820512.900    -7840661.41849  -6095733.08849  20820512.4894   20820517.7774
  19735064.964    -7350138.44549  -5715468.25249  19735064.5494   19735068.9484
  21283013.773     2675517.99749   2084121.97549  21283013.4064   21283019.1974
  23393884.405    -7214529.58749  -5012714.24949  23393885.3504   23393888.2874
  22899214.830     6936362.51549   5397735.76649  22899215.0834   22899221.7514
 98  2  4 17 29 29.9980000  0  9 27 22  3 31 19 18 16 13 14
  23748360.218   -10503147.94549  -8169318.99749  23748360.1624   23748365.7324
  23626436.083     6733657.21049   5109222.64049  23626434.4204   23626443.8434
  22851311.841    -7840155.50949  -6091379.07249  22851310.6174   22851317.2634
  23003005.694   -11888033.53649  -9244700.42949  23003005.0014   23003011.2734
  20806813.880    -7912650.28149  -6151828.31449  20806813.4134   20806818.6014
  19723872.282    -7408956.50349  -5761300.52049  19723871.5584   19723876.0834
  21291851.608     2721961.09049   2120311.32049  21291851.0784   21291856.9984
  23369866.576    -7340744.73149  -5111063.73149  23369866.6384   23369871.2554
  22913838.905     7013211.83549   5457618.19749  22913838.5404   22913845.7404
 98  2  4 17 29 59.9980000  0  9 27 22  3 31 19 18 16 13 14
  23728588.710   -10607047.84649  -8250279.95049  23728587.8304   23728593.5584
  23640640.065     6808299.78649   5167385.62249  23640638.3774   23640645.2504
  22839567.213    -7901873.52049  -6139471.02549  22839566.1274   22839573.4824
  22980473.977   -12006438.50649  -9336963.99249  22980471.9704   22980479.3664
  20793153.387    -7984436.81249  -6207765.88049  20793152.8604   20793157.8184
  19712750.110    -7467403.83849  -5806843.91449  19712749.7674   19712754.1114
  21300758.197     2768765.58549   2156782.28349  21300757.6424   21300764.2844
  23345850.752    -7466949.36549  -5209405.01049  23345850.7444   23345855.4224
  22928479.849     7090149.85049   5517569.74849  22928479.6844   22928487.5264
 98  2  4 17 30 29.9980000  0  9 27 22  3 31 19 18 16 13 14
  23708813.752   -10710966.30949  -8331255.37149  23708813.0104   23708819.0844
  23654858.442     6883017.75949   5225607.32549  23654856.7234   23654862.4314
  22827898.892    -7963191.06149  -6187250.92249  22827899.4344   22827905.6794
  22957962.745   -12124735.17449  -9429143.17049  22957962.0544   22957968.5124
  20779521.476    -8056072.99449  -6263586.28949  20779521.1774   20779525.9734
  19701696.454    -7525491.37449  -5852106.94649  19701696.0904   19701700.3854
  21309726.729     2815895.26649   2193506.64749  21309726.3534   21309732.3774
  23321825.888    -7593201.10649  -5307782.97849  23321826.5154   23321830.9624
  22943130.048     7167136.66849   5577559.30749  22943129.5524   22943137.5214
 98  2  4 17 30 59.9980000  0  9 27 22  3 31 19 18 16 13 14
  23689049.416   -10814828.73949  -8412187.14849  23689048.7734   23689055.2534
  23669099.715     6957855.70449   5283922.57849  23669098.6644   23669105.4094
  22816319.035    -8024044.13349  -6234668.91649  22816319.0514   22816324.7934
  22935482.545   -12242868.99149  -9521195.45349  22935480.5274   22935488.1314
  20765923.178    -8127532.58349  -6319269.10449  20765922.9214   20765928.1144
  19690724.597    -7583149.02649  -5897035.00749  19690724.2254   19690728.5474
  21318767.711     2863405.49249   2230527.53649  21318767.0154   21318773.4164
  23297799.461    -7719460.51149  -5406166.90949  23297799.0494   23297804.1654
  22957799.849     7244226.10749   5637628.83949  22957799.6564   22957807.0754
 98  2  4 17 31 29.9980000  0  9 27 22  3 31 19 18 16 13 14
  23669291.062   -10918659.18849  -8493093.98249  23669289.7824   23669296.2664
  23683358.762     7032787.31649   5342310.79149  23683356.7334   23683364.0504
  22804819.748    -8084473.60049  -6281756.83049  22804820.3914   22804825.0234
  22913025.523   -12360880.89949  -9613152.72449  22913024.8434   22913031.0294
  20752350.472    -8198857.94649  -6374847.31849  20752350.3574   20752355.2014
  19679827.056    -7640415.88049  -5941658.54549  19679826.6794   19679831.1144
  21327869.266     2911234.36249   2267796.71549  21327868.7444   21327874.9384
  23273758.866    -7845794.64649  -5504609.07249  23273759.2624   23273763.8024
  22972480.142     7321370.79749   5697741.43149  22972480.3734   22972487.4744
 98  2  4 17 31 59.9980000  0  9 27 22  3 31 19 18 16 13 14
  23649537.469   -11022465.13649  -8573981.72949  23649538.0754   23649543.1734
  23697633.290     7107800.10749   5400762.24649  23697632.2514   23697637.8854
  22793399.350    -8144488.54749  -6328521.73949  22793399.8884   22793404.9374
  22890585.023   -12478806.20449  -9705042.50449  22890584.1784   22890590.7794
  20738799.330    -8270069.99249  -6430337.23149  20738799.3184   20738803.9174
  19668999.581    -7697314.73149  -5985995.32749  19668999.1654   19669003.5484
  21337027.887     2959363.18649   2305299.63049  21337027.3734   21337033.5924
  23249698.879    -7972230.32649  -5603130.39549  23249698.4894   23249703.4644
  22987166.167     7398545.73149   5757877.58649  22987166.3064   22987173.6384
 98  2  4 17 32 29.9980000  0  9 27 22  3 31 19 18 16 13 14
  23629800.517   -11126183.86849  -8654801.50249  23629799.4404   23629806.0134
  23711933.172     7182946.02649   5459317.46349  23711931.4514   23711937.2034
  22782071.573    -8204016.61849  -6374907.26849  22782071.1804   22782076.4014
  22868170.934   -12596593.10949  -9796824.45449  22868170.8854   22868176.1504
  20725281.030    -8341109.40749  -6485692.62649  20725280.9574   20725285.4434
  19658253.177    -7753787.41249  -6030000.02949  19658252.6254   19658257.2014
  21346255.962     3007856.65649   2343086.68749  21346255.5554   21346261.5904
  23225637.384    -8098674.07949  -5701658.00149  23225638.1054   23225642.4904
  23001869.081     7475809.58349   5818083.00849  23001869.0874   23001875.9684
 98  2  4 17 32 59.9980000  0  9 27 22  3 31 19 18 16 13 14
  23610068.358   -11229876.79449  -8735601.19549  23610067.6704   23610073.6814
  23726245.394     7258156.92449   5517923.28449  23726243.9634   23726249.4034
  22770824.578    -8263119.74649  -6420961.67249  22770824.7064   22770829.9264
  22845771.400   -12714304.11849  -9888547.27949  22845771.2024   22845776.9244
  20711787.699    -8412017.23749  -6540945.49149  20711787.2084   20711792.1164
  19647574.614    -7809903.60549  -6073726.94449  19647574.2574   19647578.4664
  21355542.630     3056658.19549   2381113.79949  21355542.4664   21355548.4544
  23201568.566    -8225155.90349  -5800215.21349  23201568.7284   23201573.6004
  23016577.277     7553101.44549   5878310.27449  23016578.0454   23016584.4364
 98  2  4 17 33 29.9980000  0  9 27 22  3 31 19 18 16 13 14
  23590344.941   -11333523.84449  -8816365.10949  23590344.9544   23590352.2394
  23740575.084     7333459.15049   5576600.32149  23740572.3344   23740582.2204
  22759661.990    -8321779.88449  -6466670.88349  22759661.3644   22759667.3574
  22823393.855   -12831898.77749  -9980179.42549  22823392.9844   22823399.6094
  20698327.805    -8482749.56349  -6596061.59849  20698327.5164   20698332.4794
  19636969.824    -7865631.97049  -6117151.65549  19636969.4294   19636973.7594
  21364891.580     3105786.80849   2419395.77249  21364891.3144   21364897.2194
  23177502.236    -8351624.62849  -5898762.21349  23177502.7694   23177507.7574
  23031295.939     7630448.22549   5938580.31249  23031295.2764   23031302.8684
 98  2  4 17 33 59.9980000  0  9 27 22  3 31 19 18 16 13 14
  23570632.488   -11437113.58949  -8897084.40149  23570632.8204   23570638.5454
  23754921.956     7408852.70249   5635348.49649  23754921.0304   23754928.6994
  22748586.185    -8379983.56249  -6512024.41249  22748585.9224   22748591.5354
  22801045.394   -12949340.92549 -10071692.73649  22801044.5954   22801049.9304
  20684901.816    -8553303.58649  -6651038.76549  20684901.3114   20684906.1024
  19626444.658    -7920942.12649  -6160250.49249  19626444.4354   19626448.6754
  21374307.727     3155268.51349   2457952.88049  21374307.4654   21374313.2084
  23153444.773    -8478047.10749  -5997273.19549  23153444.4244   23153449.9414
  23046030.389     7707877.83349   5998914.90149  23046031.2754   23046038.7594
 98  2  4 17 34 29.9980000  0  9 27 22  3 31 19 18 16 13 14
  23550924.670   -11540678.76549  -8977784.54549  23550924.2244   23550930.6344
  23769279.731     7484302.98449   5694140.86649  23769279.7404   23769284.3474
  22737589.404    -8437771.89049  -6557054.29749  22737589.6544   22737594.8584
  22778728.594   -13066616.28549 -10163076.09949  22778727.5354   22778733.6574
  20671502.480    -8623717.47049  -6705906.73949  20671502.0574   20671506.9674
  19615995.221    -7975854.41549  -6203039.30349  19615995.0794   19615999.2624
  21383782.580     3205058.81649   2496750.44749  21383782.1064   21383788.3424
  23129390.596    -8604452.73449  -6095771.10549  23129390.9364   23129396.6214
  23060777.400     7785372.98149   6059300.56249  23060777.7064   23060785.6514
 98  2  4 17 34 59.9980000  0  9 27 22  3 31 19 18 16 13 14
  23531222.657   -11644212.92749  -9058460.50349  23531221.0854   23531228.5994
  23783650.383     7559821.44549   5752986.33249  23783649.9324   23783654.6394
  22726674.411    -8495131.03249  -6601749.75249  22726674.9604   22726678.9964
  22756451.908   -13183681.00049 -10254295.32749  22756451.1574   22756457.5954
  20658131.688    -8693981.23649  -6760657.73649  20658131.4334   20658136.2774
  19605624.645    -8030352.32949  -6245505.22849  19605624.2994   19605628.5624
  21393317.874     3255166.82849   2535795.58149  21393317.1854   21393323.5864
  23105338.371    -8730847.82849  -6194260.82149  23105338.3474   23105343.4614
  23075540.176     7862950.94549   6119750.74949  23075540.6864   23075547.8474
 98  2  4 17 35 29.9980000  0  9 27 22  3 31 19 18 16 13 14
  23511521.422   -11747743.11049  -9139133.38549  23511520.5234   23511528.2774
  23798030.013     7635386.35549   5811868.00649  23798030.8264   23798033.2534
  22715841.335    -8552059.32049  -6646109.48649  22715841.6604   22715846.4154
  22734212.789   -13300548.13649 -10345360.59949  22734212.4324   22734218.2894
  20644785.383    -8764116.60249  -6815308.67549  20644785.1234   20644790.1054
  19595330.851    -8084446.74649  -6287656.73649  19595330.5954   19595334.8294
  21402908.518     3305565.48649   2575067.19649  21402908.1754   21402914.1204
  23081281.152    -8857269.35149  -6292771.05949  23081282.2214   23081286.5784
  23090317.103     7940603.33849   6180258.92449  23090317.1264   23090325.8294
 98  2  4 17 35 59.9980000  0  9 27 22  3 31 19 18 16 13 14
  23491826.665   -11851239.50349  -9219779.91449  23491825.8074   23491831.7114
  23812423.169     7711022.96949   5870805.60649  23812423.9224   23812428.3694
  22705098.616    -8608512.69349  -6690099.14749  22705098.0884   22705104.8974
  22712015.483   -13417195.47449 -10436254.60649  22712014.5994   22712021.3614
  20631468.869    -8834095.66849  -6869837.82549  20631468.5524   20631473.5154
  19585119.109    -8138110.06649  -6329472.32749  19585118.7644   19585122.9304
  21412559.839     3356282.90249   2614587.18949  21412559.4844   21412565.6154
  23057223.331    -8983694.39249  -6391284.06549  23057223.3964   23057227.8424
  23105113.410     8018357.91949   6240846.72449  23105113.8924   23105121.9254
 98  2  4 17 36 29.9980000  0  9 27 22  3 31 19 18 16 13 14
  23472127.316   -11954760.01049  -9300445.23349  23472126.8654   23472132.5894
  23826823.078     7786694.12149   5929770.12649  23826822.5044   23826829.3324
  22694440.287    -8664522.85649  -6733743.41949  22694439.9864   22694446.1814
  22689847.488   -13533688.92049 -10527028.71549  22689846.4764   22689853.3554
  20618176.416    -8903948.05649  -6924268.26349  20618175.9644   20618180.9074
  19574978.738    -8191398.05749  -6370995.45549  19574978.3154   19574982.5134
  21422262.765     3407271.87749   2654318.79149  21422262.2664   21422268.5024
  23033157.761    -9110160.11549  -6489828.78749  23033159.2364   23033163.1934
  23119917.347     8096151.88449   6301465.21749  23119916.2954   23119925.3144
 98  2  4 17 36 59.9980000  0  9 27 22  3 31 19 18 16 13 14
  23452434.902   -12058244.00049  -9381082.10249  23452434.0084   23452441.1864
  23841241.987     7862466.02849   5988813.11649  23841240.8424   23841248.4614
  22683880.477    -8720015.72449  -6776984.63749  22683880.4564   22683886.0554
  22667712.889   -13650006.10949 -10617665.46249  22667712.0494   22667717.9394
  20604921.657    -8973602.06849  -6978544.11849  20604921.3004   20604926.5084
  19564920.255    -8244255.55649  -6412183.13249  19564919.8284   19564924.1954
  21432029.687     3458597.46749   2694312.68649  21432029.1154   21432035.3864
  23009097.246    -9236599.54849  -6588353.04849  23009097.6834   23009101.9144
  23134737.405     8174031.05949   6362150.09449  23134737.7944   23134745.2084
 98  2  4 17 37 29.9980000  0  9 27 22  3 31 19 18 16 13 14
  23432751.334   -12161681.96049  -9461683.11749  23432751.1644   23432757.8234
  23855678.865     7938331.81549   6047929.26549  23855677.4684   23855682.3224
  22673416.725    -8775003.11649  -6819831.94649  22673417.3704   22673421.0894
  22645608.002   -13766167.18949 -10708180.57649  22645607.0624   22645613.8694
  20591704.875    -9043056.82349  -7032664.70449  20591704.7694   20591709.2824
  19554944.812    -8296676.97749  -6453031.01049  19554944.5344   19554948.8034
  21441859.475     3510253.06649   2734563.72949  21441858.8604   21441865.3194
  22985043.458    -9363002.90249  -6686849.17249  22985043.9854   22985047.8804
  23149569.540     8251973.62249   6422884.37849  23149569.6964   23149577.6464
 98  2  4 17 37 59.9980000  0  9 27 22  3 31 19 18 16 13 14
  23413074.139   -12265086.87349  -9542258.36449  23413074.1964   23413079.5534
  23870130.473     8014275.65049   6107106.23949  23870128.9944   23870135.8554
  22663042.938    -8829518.53549  -6862311.50949  22663042.9024   22663047.8604
  22623531.128   -13882181.69049 -10798581.49049  22623530.1364   22623536.9024
  20578523.097    -9112327.63749  -7086641.97149  20578522.7754   20578527.5784
  19545050.143    -8348673.90649  -6493548.11649  19545049.7644   19545054.1634
  21451750.378     3562229.95949   2775065.12749  21451750.0624   21451756.0204
  22960996.474    -9489370.70049  -6785317.56149  22960997.1524   22961001.2344
  23164407.101     8329944.58849   6483640.77649  23164406.3054   23164415.7454
 98  2  4 17 38 29.9980000  0  9 27 22  3 31 19 18 16 13 14
  23393401.039   -12368469.95849  -9622816.59349  23393400.3164   23393407.2514
  23884594.578     8090285.44549   6166334.57349  23884594.4294   23884599.4754
  22652753.183    -8883591.75349  -6904446.47549  22652752.0464   22652759.8094
  22601482.291   -13998049.18249 -10888867.85649  22601481.5704   22601487.6224
  20565372.958    -9181432.16049  -7140489.65449  20565372.6194   20565377.7284
  19535233.007    -8400263.66849  -6533747.94949  19535232.8804   19535237.0994
  21461698.830     3614509.13249   2815802.07549  21461698.1664   21461704.7454
  22936952.960    -9615720.50949  -6883771.95149  22936952.3284   22936957.3774
  23179245.677     8407921.13649   6544401.53149  23179246.9014   23179252.8374
 98  2  4 17 38 59.9980000  0  9 27 22  3 31 19 18 16 13 14
  23373740.511   -12471787.10249  -9703323.44249  23373739.9574   23373746.7634
  23899071.284     8166360.76449   6225613.98349  23899072.3964   23899076.9494
  22642548.805    -8937216.41249  -6946231.91249  22642548.4604   22642553.3794
  22579468.639   -14113732.00449 -10979010.32549  22579468.4394   22579474.2224
  20552255.463    -9250365.18949  -7194203.71249  20552255.1104   20552260.0704
  19525498.786    -8451417.56249  -6573608.13749  19525498.5294   19525502.6314
  21471705.079     3667091.87149   2856775.57349  21471704.9984   21471710.5654
  22912913.978    -9742045.98649  -6982207.36849  22912914.5794   22912917.9774
  23194088.732     8485921.06849   6605180.49349  23194089.3864   23194096.4634
 98  2  4 17 39 29.9980000  0  9 27 22  3 31 19 18 16 13 14
  23354089.899   -12575051.99749  -9783789.57649  23354088.6514   23354095.6564
  23913556.222     8242478.50549   6284926.51549  23913556.4494   23913561.7694
  22632426.468    -8990409.63649  -6987681.16549  22632425.9984   22632431.0874
  22557491.764   -14229221.66949 -11069002.26949  22557491.8234   22557497.2784
  20539166.510    -9319148.12049  -7247800.81449  20539166.2014   20539171.2214
  19515846.631    -8502140.15949  -6613132.25549  19515846.2614   19515850.5694
  21481765.655     3719960.27449   2897971.66149  21481764.9844   21481771.4614
  22888876.818    -9868361.28449  -7080634.85449  22888876.6804   22888880.6374
  23208935.212     8563938.91349   6665973.41749  23208936.3084   23208944.0824
 98  2  4 17 39 59.9970000  0  9 27 22  3 31 19 18 16 13 14
  23334440.902   -12678308.24849  -9864248.97949  23334440.8834   23334446.4014
  23928040.171     8318591.87949   6344235.56249  23928040.5924   23928041.9014
  22622380.148    -9043203.19549  -7028818.98749  22622379.6824   22622385.2724
  22535545.435   -14344549.97449 -11158868.47749  22535545.3974   22535551.8524
  20526095.887    -9387834.79649  -7301322.90649  20526095.7004   20526100.5834
  19506265.184    -8552491.03949  -6652366.72249  19506264.8644   19506269.0514
  21491870.722     3773062.44949   2939349.90749  21491869.9984   21491876.6524
  22864833.467    -9994709.91949  -7179088.33449  22864834.4054   22864838.5034
  23223776.841     8641931.78049   6726746.86849  23223776.5144   23223784.9784
 98  2  4 17 40 29.9970000  0  9 27 22  3 31 19 18 16 13 14
  23314804.373   -12781498.74749  -9944657.12549  23314803.8774   23314811.0584
  23942533.651     8394755.52849   6403583.80449  23942533.5494   23942538.8934
  22612423.080    -9095527.83949  -7069591.42349  22612422.0764   22612428.1534
  22513638.170   -14459673.45549 -11248575.08649  22513637.4334   22513644.2074
  20513053.007    -9456375.71349  -7354731.41749  20513052.5094   20513057.6134
  19496762.728    -8602426.89249  -6691277.78849  19496762.3724   19496766.5884
  21502028.894     3826444.03549   2980945.87449  21502027.9864   21502035.0224
  22840791.834   -10121050.15249  -7277535.26149  22840791.8594   22840797.4524
  23238625.985     8719963.73149   6787550.76649  23238626.6744   23238635.0844
 98  2  4 17 40 59.9970000  0  9 27 22  3 31 19 18 16 13 14
  23295186.188   -12884592.72549 -10024990.08949  23295185.8184   23295192.4144
  23957042.620     8471000.42249   6462995.38949  23957042.7544   23957047.5504
  22602564.500    -9147334.68249  -7109960.38449  22602563.8514   22602569.1874
  22491774.639   -14574566.77649 -11338102.36149  22491774.3794   22491779.4014
  20500046.678    -9524724.40049  -7407990.14549  20500046.3434   20500051.3134
  19487346.806    -8651908.06649  -6729834.57149  19487346.3714   19487350.7094
  21512247.830     3880144.51149   3022790.31749  21512247.6714   21512253.6914
  22816760.243   -10247337.43249  -7375940.89049  22816759.5664   22816763.6644
  23253489.706     8798072.23549   6848414.33449  23253489.6344   23253496.9304
 98  2  4 17 41 29.9970000  0  9 27 22  3 31 19 18 16 13 14
  23275573.623   -12987657.14049 -10105299.99749  23275573.0964   23275579.6624
  23971561.186     8547295.92849   6522446.34949  23971561.9134   23971565.7934
  22592797.552    -9198660.08849  -7149954.20349  22592797.3624   22592802.7074
  22469947.822   -14689267.96849 -11427479.90149  22469947.4794   22469953.0434
  20487071.467    -9592909.40049  -7461121.31749  20487071.0564   20487075.9164
  19478008.180    -8700983.13049  -6768074.89549  19478007.6264   19478011.8994
  21522522.667     3934138.81149   3064863.73149  21522522.3084   21522528.5324
  22792733.245   -10373599.64649  -7474327.01349  22792733.4494   22792737.5504
  23268358.742     8876208.36249   6909299.42449  23268358.6804   23268366.5774
 98  2  4 17 41 59.9970000  0  9 27 22  3 31 19 18 16 13 14
  23255968.026   -13090685.20549 -10185581.59449  23255968.1984   23255974.0694
  23986091.569     8623652.68649   6581945.09349  23986091.1154   23986096.1324
  22583123.231    -9249498.09149  -7189568.21049  22583123.0594   22583128.9894
  22448158.518   -14803772.31849 -11516704.08349  22448158.1144   22448164.4544
  20474129.351    -9660920.90249  -7514117.30049  20474129.1354   20474134.1004
  19468746.496    -8749653.64149  -6805999.99149  19468746.1384   19468750.5444
  21532854.272     3988431.56449   3107169.69349  21532854.2654   21532860.2194
  22768710.135   -10499842.81549  -7572698.32349  22768710.6604   22768714.6384
  23283232.092     8954368.18249   6970202.95249  23283232.7034   23283241.2184
 98  2  4 17 42 29.9970000  0  9 27 22  3 31 19 18 16 13 14
  23236370.753   -13193669.77149 -10265829.29549  23236370.9454   23236376.6794
  24000635.161     8700079.52449   6641498.50049  24000634.2274   24000641.6504
  22573543.246    -9299840.39349  -7228795.97449  22573542.9214   22573548.9694
  22426410.690   -14918057.97349 -11605757.85349  22426409.5204   22426416.2734
  20461222.744    -9728745.65949  -7566967.76949  20461222.3814   20461227.2124
  19459568.461    -8797884.58549  -6843582.56949  19459568.0514   19459572.4444
  21543244.706     4043033.20649   3149716.35649  21543244.2324   21543250.6014
  22744690.814   -10626065.50849  -7671053.66249  22744691.1384   22744694.8304
  23298111.891     9032561.21749   7031132.37549  23298111.7934   23298119.2874
 98  2  4 17 42 59.9970000  0  9 27 22  3 31 19 18 16 13 14
  23216781.916   -13296609.77149 -10346042.23949  23216781.3074   23216788.1514
  24015194.595     8776590.13649   6701117.11149  24015192.8384   24015201.1054
  22564057.097    -9349689.57549  -7267639.47649  22564055.7494   22564063.0544
  22404710.087   -15032094.75949 -11694617.67349  22404709.4024   22404717.2204
  20448351.728    -9796383.14049  -7619672.30949  20448351.4514   20448356.6224
  19450479.186    -8845649.16449  -6880801.74749  19450478.7944   19450482.9854
  21553696.077     4097955.40249   3192512.80049  21553695.4174   21553702.0264
  22720678.187   -10752252.45949  -7769381.12049  22720677.6124   22720683.3744
  23312999.626     9110795.81749   7092094.18549  23312999.9664   23313007.7724
 98  2  4 17 43 29.9970000  0  9 27 22  3 31 19 18 16 13 14
  23197198.553   -13399521.40149 -10426233.10149  23197198.3544   23197204.8004
  24029765.763     8853162.56949   6760783.91049  24029766.4694   24029770.8374
  22554660.856    -9399066.69449  -7306115.13949  22554659.9844   22554666.7164
  22383058.292   -15145875.46549 -11783277.95049  22383057.4624   22383063.1754
  20435509.625    -9863868.85249  -7672258.58349  20435509.2714   20435514.3174
  19441477.376    -8892953.96349  -6917662.65049  19441477.0464   19441481.2034
  21564203.034     4153169.47949   3235536.68149  21564202.5134   21564208.8854
  22696668.131   -10878426.00449  -7867698.13949  22696667.9544   22696671.5964
  23327890.095     9189044.67549   7153067.11449  23327890.6574   23327897.7414
 98  2  4 17 43 59.9970000  0  8 27  3 31 19 18 16 13 14
  23177625.510   -13502378.83649 -10506381.76149  23177624.8444   23177630.5954
  22545357.362    -9447956.11349  -7344210.78749  22545356.7044   22545362.8754
  22361459.054   -15259380.50849 -11871723.45249  22361459.1544   22361464.2104
  20422696.638    -9931201.46049  -7724725.56449  20422696.3224   20422701.4244
  19432568.460    -8939770.70249  -6954143.24849  19432567.9634   19432572.2444
  21574764.840     4208671.84949   3278785.20649  21574764.7414   21574770.7954
  22672662.520   -11004576.55749  -7965997.26849  22672662.1034   22672665.8904
  23342786.878     9267327.27949   7214066.32549  23342787.3154   23342794.9954
 98  2  4 17 44 29.9970000  0  8 27  3 31 19 18 16 13 14
  23158056.673   -13605213.71249 -10586512.83149  23158056.1014   23158061.9954
  22536143.907    -9496373.40549  -7381938.54049  22536144.7724   22536149.4804
  22339911.684   -15372613.09349 -11959956.65049  22339911.5714   22339917.1654
  20409908.013    -9998406.23149  -7777092.92449  20409907.8654   20409912.5994
  19423750.624    -8986108.70049  -6990250.79749  19423750.4074   19423754.8134
  21585376.465     4264435.87449   3322237.61249  21585376.2854   21585382.6534
  22648661.717   -11130701.43649  -8064276.39849  22648661.3184   22648665.1184
  23357686.632     9345624.81049   7275077.16949  23357686.5804   23357695.8974
 98  2  4 17 44 59.9970000  0  8 27  3 31 19 18 16 13 14
  23138480.441   -13708087.23649 -10666673.99949  23138479.7144   23138486.2564
  22527009.600    -9544375.33149  -7419342.63849  22527008.8364   22527015.2884
  22318403.957   -15485636.81149 -12048027.08049  22318402.6914   22318408.7464
  20397134.603   -10065530.99849  -7829397.94449  20397134.2784   20397139.1504
  19415009.295    -9032044.72449  -7026045.12049  19415008.8494   19415013.3744
  21596024.158     4320389.28749   3365837.59649  21596023.6844   21596030.5964
  22624658.388   -11256839.72949  -8162565.95049  22624658.3754   22624662.2044
  23372577.816     9423877.48049   7336053.06449  23372577.3614   23372586.7624
 98  2  4 17 45 29.9970000  0  8 27  3 31 19 18 16 13 14
  23118911.611   -13810921.76049 -10746804.78149  23118910.6114   23118917.4794
  22517970.149    -9591878.52149  -7456358.11249  22517970.0944   22517975.3064
  22296948.761   -15598384.58149 -12135882.49349  22296948.9734   22296954.0864
  20384393.314   -10132486.80349  -7881571.31149  20384393.0384   20384397.9894
  19406355.008    -9077523.42549  -7061483.09349  19406354.5004   19406358.9114
  21606720.831     4376600.45249   3409638.42149  21606720.2794   21606727.1664
  22600665.275   -11382924.12749  -8260813.50949  22600664.7254   22600669.9874
  23387474.020     9502156.97449   7397049.83749  23387474.1394   23387482.8444
 98  2  4 17 45 59.9970000  0  8 27  3 31 19 18 16 13 14
  23099345.196   -13913743.81149 -10826925.85649  23099344.6564   23099350.5754
  22509022.469    -9638899.27649  -7492997.68849  22509023.1484   22509028.0894
  22275536.865   -15710904.58249 -12223560.41649  22275537.1674   22275542.7894
  20371681.781   -10199286.58749  -7933623.10449  20371681.4784   20371686.3634
  19397777.655    -9122597.63549  -7096605.87649  19397777.2284   19397781.6624
  21617458.703     4433028.33349   3453608.11549  21617457.9754   21617464.9504
  22576678.423   -11508975.22549  -8359035.14449  22576678.7214   22576682.8534
  23402369.768     9580433.51549   7458044.32149  23402370.7064   23402377.8024
 98  2  4 17 46 29.9970000  0  8 27  3 31 19 18 16 13 14
  23079789.416   -14016510.40049 -10907003.73549  23079788.8954   23079795.5864
  22500176.348    -9685386.97349  -7529221.88149  22500177.1124   22500182.2874
  22254174.636   -15823163.88649 -12311035.19249  22254173.5064   22254180.0894
  20359008.624   -10265884.37949  -7985517.49649  20359008.0824   20359013.0904
  19389281.392    -9167245.93149  -7131396.77249  19389280.9904   19389285.4584
  21628246.019     4489715.62149   3497779.94549  21628245.4674   21628251.8494
  22552706.000   -11634950.19349  -8457197.44649  22552707.0464   22552710.0024
  23417269.902     9658733.31649   7519056.90349  23417269.9414   23417278.2174
 98  2  4 17 46 59.9970000  0  8 27  3 31 19 18 16 13 14
  23060246.263   -14119210.74749 -10987030.01249  23060246.3544   23060251.8504
  22491429.428    -9731352.98549  -7565039.57849  22491429.3174   22491435.5774
  22232857.194   -15935187.57549 -12398326.37549  22232856.7344   22232863.7704
  20346373.345   -10332283.22049  -8037256.86049  20346373.0594   20346378.1724
  19380865.578    -9211471.38349  -7165858.18549  19380865.2464   19380869.5874
  21639084.244     4546670.54149   3542160.31749  21639083.9844   21639090.7104
  22528744.321   -11760869.41949  -8555316.32249  22528745.0544   22528748.5694
  23432171.040     9737038.34649   7580073.57349  23432171.1854   23432180.8144
 98  2  4 17 47 29.9970000  0  8 27  3 31 19 18 16 13 14
  23040715.688   -14221843.80749 -11067003.76949  23040714.6954   23040721.4164
  22482780.610    -9776803.29449  -7600455.41849  22482780.2454   22482785.7824
  22211582.934   -16046984.94349 -12485441.20549  22211581.4824   22211587.8304
  20333771.752   -10398505.06649  -8088858.30649  20333771.3134   20333776.4434
  19372531.549    -9255266.95849  -7199984.63249  19372531.2564   19372535.6734
  21649975.657     4603904.96349   3586758.48749  21649975.0544   21649981.8864
  22504790.805   -11886745.60649  -8653401.64249  22504791.3974   22504796.2314
  23447072.671     9815346.22349   7641092.45049  23447072.8494   23447081.4544
 98  2  4 17 47 59.9970000  0  8 27  3 31 19 18 16 13 14
  23021197.511   -14324411.84949 -11146926.91749  23021196.5574   23021204.0134
  22474228.194    -9821747.07949  -7635476.58449  22474228.3954   22474234.2034
  22190350.736   -16158560.23049 -12572382.99049  22190350.7804   22190355.7654
  20321199.087   -10464574.97649  -8140341.35749  20321198.8574   20321203.9354
  19364282.578    -9298615.69349  -7233762.88949  19364282.1964   19364286.5994
  21660919.951     4661417.16049   3631573.10249  21660919.1584   21660925.9154
  22480847.162   -12012569.78449  -8751446.42149  22480846.7944   22480852.1174
  23461973.185     9893648.30449   7702106.80249  23461973.7344   23461981.8194
 98  2  4 17 48 29.9970000  0  8 27  3 31 19 18 16 13 14
  23001689.763   -14426925.80949 -11226807.93049  23001689.7824   23001695.5054
  22465767.484    -9866209.18049  -7670122.40149  22465768.1624   22465772.4964
  22169160.606   -16269915.08349 -12659153.02249  22169159.5604   22169165.9074
  20308651.639   -10530512.43649  -8191721.21149  20308651.3134   20308656.3694
  19356121.733    -9341501.15749  -7267180.15249  19356121.4564   19356125.9174
  21671917.762     4719210.78149   3676607.00949  21671917.4644   21671923.7184
  22456912.040   -12138349.91749  -8849456.91249  22456911.8734   22456917.0304
  23476870.292     9971932.72049   7763107.37349  23476869.3124   23476879.7884
 98  2  4 17 48 59.9970000  0  8 27  3 31 19 18 16 13 14
  22982188.234   -14529407.00249 -11306663.37949  22982187.9224   22982194.0084
  22457394.182    -9910211.77349  -7704410.16449  22457393.5804   22457399.9364
  22148010.504   -16381059.65649 -12745759.18649  22148010.5814   22148016.3684
  20296127.432   -10596327.53649  -8243005.71449  20296127.0044   20296132.2914
  19348049.605    -9383920.74349  -7300234.39649  19348049.2444   19348053.8114
  21682966.172     4777270.06049   3721847.92549  21682965.6254   21682972.8634
  22432983.220   -12264097.71949  -8947442.20849  22432983.6694   22432987.6454
  23491764.310    10050200.90849   7824095.32049  23491764.7704   23491775.6354
 98  2  4 17 49 29.9970000  0  8 27  3 31 19 18 16 13 14
  22962699.052   -14631823.27449 -11386468.27849  22962699.0444   22962704.3294
  22449120.012    -9953692.35849  -7738291.16149  22449119.7884   22449125.3064
  22126913.979   -16491923.24949 -12832146.41249  22126914.2764   22126919.2224
  20283636.931   -10661965.60549  -8294152.27649  20283636.7204   20283641.9164
  19340072.444    -9425841.18649  -7332899.69949  19340072.0974   19340076.5304
  21694067.867     4835609.30649   3767306.99249  21694067.8694   21694073.4314
  22409074.068   -12389741.11149  -9045346.11149  22409074.0814   22409078.6394
  23506664.530    10128501.00149   7885108.10749  23506666.0444   23506673.7254
 98  2  4 17 49 59.9970000  0  8 27  3 31 19 18 16 13 14
  22943214.595   -14734214.81949 -11466253.88949  22943214.6334   22943220.7034
  22440939.663    -9996680.10749  -7771788.12149  22440939.4714   22440945.4024
  22105868.083   -16602520.43049 -12918326.03849  22105867.4364   22105873.4284
  20271176.330   -10727446.64649  -8345176.47849  20271176.0874   20271181.4224
  19332181.177    -9467309.95149  -7365213.04749  19332180.7504   19332185.3254
  21705212.528     4894174.78349   3812942.34349  21705212.2344   21705218.8144
  22385179.904   -12515305.83749  -9143188.75049  22385179.6934   22385185.0214
  23521560.418    10206778.65149   7946103.41149  23521561.1724   23521571.5824
 98  2  4 17 50 29.9970000  0  8 27  3 31 19 18 16 13 14
  22923733.466   -14836588.81349 -11546025.82649  22923734.3594   22923738.4634
  22432854.779   -10039166.37249  -7804894.32749  22432854.7884   22432860.2924
  22084874.202   -16712844.13149 -13004292.54949  22084873.3604   22084880.5734
  20258749.186   -10792751.81349  -8396063.63249  20258749.0304   20258753.7284
  19324373.363    -9508340.25149  -7397184.72849  19324372.8954   19324377.3474
  21716398.782     4952958.30549   3858747.60049  21716397.9414   21716404.8904
  22361300.779   -12640791.67049  -9240969.91649  22361299.7244   22361304.6314
  23536453.975    10285043.57449   8007088.81049  23536455.4914   23536463.7994
 98  2  4 17 50 59.9970000  0  8 27  3 31 19 18 16 13 14
  22904255.527   -14938946.49349 -11625785.05349  22904255.6744   22904260.5504
  22424867.294   -10081140.90649  -7837601.78949  22424866.5784   22424872.2274
  22063935.074   -16822879.52549 -13090034.40449  22063934.6564   22063940.1914
  20246356.662   -10857875.07449  -8446809.04149  20246356.4794   20246361.3434
  19316646.438    -9548945.56049  -7428825.25149  19316646.0744   19316650.6494
  21727623.797     5011946.22749   3904712.12949  21727623.5794   21727629.8524
  22337438.055   -12766190.85449  -9338683.55649  22337437.8944   22337443.9694
  23551344.249    10363291.16749   8068060.69449  23551345.0434   23551354.3474
 98  2  4 17 51 29.9970000  0  8 27  3 31 19 18 16 13 14
  22884784.325   -15041268.89749 -11705516.78349  22884783.7044   22884789.2634
  22416979.329   -10122591.61249  -7869901.06449  22416979.1884   22416985.9054
  22043054.522   -16932607.34849 -13175536.60549  22043053.4824   22043059.4244
  20233999.152   -10922814.04949  -8497410.84549  20233998.8244   20234003.9874
  19309002.863    -9589112.98249  -7460124.56049  19309002.4164   19309006.8754
  21738888.215     5071140.83349   3950837.70949  21738887.5014   21738894.2874
  22313594.568   -12891488.92049  -9436318.38649  22313595.3694   22313598.7644
  23566230.353    10441516.47449   8129015.22549  23566231.0584   23566241.6454
 98  2  4 17 51 59.9970000  0  8 27  3 31 19 18 16 13 14
  22865317.739   -15143566.16149 -11785228.91649  22865316.7114   22865322.5954
  22409184.561   -10163552.63849  -7901818.75849  22409184.4644   22409191.2184
  22022226.593   -17042058.18349 -13260822.96549  22022225.8504   22022232.3554
  20221671.184   -10987597.76149  -8547891.67149  20221670.7894   20221675.9894
  19301442.363    -9628843.79549  -7491083.66249  19301442.0404   19301446.4284
  21750191.668     5130540.36949   3997122.97149  21750191.5364   21750198.1604
  22289762.224   -13016728.75049  -9533907.84949  22289762.0494   22289766.5794
  23581107.837    10519697.09849   8189934.92549  23581107.5394   23581117.7394
 98  2  4 17 52 29.9970000  0  8 27  3 31 19 18 16 13 14
  22845858.281   -15245826.37949 -11864912.21249  22845857.0924   22845863.9974
  22401484.416   -10204016.48049  -7933349.04849  22401483.5464   22401490.0734
  22001451.211   -17151233.90249 -13345894.96749  22001451.2224   22001456.5794
  20209374.355   -11052217.97349  -8598245.09349  20209373.9624   20209379.3874
  19293971.224    -9668105.03549  -7521676.86249  19293970.9424   19293975.3714
  21761536.496     5190157.51849   4043577.80249  21761536.2824   21761543.1114
  22265940.640   -13141911.67149  -9631452.95249  22265940.5104   22265945.5804
  23595979.008    10597844.62549   8250828.84149  23595979.2534   23595988.6654
 98  2  4 17 52 59.9970000  0  8 27  3 31 19 18 16 13 14
  22826410.508   -15348025.30749 -11944547.72449  22826409.4664   22826416.6314
  22393881.598   -10243969.03749  -7964480.92749  22393880.4494   22393887.8924
  21980732.528   -17260111.73149 -13430734.81649  21980731.9664   21980738.4324
  20197109.281   -11116671.40849  -8648468.55649  20197109.0024   20197114.1164
  19286595.242    -9706866.39649  -7551880.53949  19286594.9084   19286599.2734
  21772926.692     5250013.26649   4090218.55649  21772926.2074   21772933.0314
  22242130.254   -13267036.00449  -9728952.40749  22242129.3144   22242134.6744
  23610840.855    10675942.87849   8311684.35649  23610842.0644   23610850.0704
 98  2  4 17 53 29.9970000  0  8 27  3 31 19 18 16 13 14
  22806968.528   -15450193.45449 -12024159.25049  22806967.7154   22806973.9374
  22386368.825   -10283448.54949  -7995244.20049  22386368.7894   22386374.6054
  21960063.748   -17368726.93449 -13515370.01849  21960063.3444   21960069.0584
  20184869.656   -11180991.34149  -8698587.99249  20184869.5264   20184874.6164
  19279307.256    -9745165.20949  -7581723.79249  19279307.0134   19279311.3804
  21784358.522     5310087.54449   4137029.59549  21784357.7734   21784364.3954
  22218322.669   -13392145.58449  -9826440.37749  22218321.3864   22218328.1314
  23625685.738    10753951.71849   8372470.23049  23625686.0184   23625695.9864
 98  2  4 17 53 59.9970000  0  8 27  3 31 19 18 16 13 14
  22787540.026   -15552290.37749 -12103715.28249  22787539.5754   22787546.2744
  22378955.630   -10322405.19849  -8025600.03949  22378956.0014   22378962.4954
  21939454.167   -17477030.57649 -13599762.44749  21939454.2624   21939459.5974
  20172666.630   -11245118.81249  -8748557.45749  20172666.4144   20172671.4724
  19272114.236    -9782964.81549  -7611178.05449  19272113.9734   19272118.3344
  21795842.312     5370434.91449   4184053.43849  21795841.8634   21795848.8344
  22194527.066   -13517191.72949  -9923878.90049  22194526.9794   22194530.7944
  23640522.612    10831919.09349   8433223.76349  23640522.6274   23640532.9574
 98  2  4 17 54 29.9970000  0  8 27  3 31 19 18 16 13 14
  22768125.746   -15654312.92049 -12183213.35249  22768125.5854   22768131.5634
  22371644.289   -10360827.53249  -8055539.52349  22371644.0934   22371650.6864
  21918906.061   -17585012.46249 -13683904.17449  21918905.9774   21918911.3224
  20160501.127   -11309048.92249  -8798373.13549  20160500.8364   20160505.9454
  19265015.628    -9820268.31449  -7640245.74349  19265015.3074   19265019.7074
  21807377.708     5431053.26549   4231288.42949  21807377.5774   21807383.5724
  22170747.250   -13642155.41849 -10021253.20249  22170747.9214   22170751.2244
  23655351.849    10909846.16149   8493945.91849  23655352.1304   23655362.2274
 98  2  4 17 54 59.9970000  0  8 27  3 31 19 18 16 13 14
  22748715.440   -15756314.84749 -12262695.35449  22748715.1024   22748721.3884
  22364424.634   -10398767.32649  -8085103.00949  22364425.6304   22364431.0464
  21898411.883   -17692710.26449 -13767824.54549  21898411.0854   21898417.3944
  20148362.278   -11372838.78049  -8848079.52349  20148362.0594   20148367.0804
  19257998.015    -9857146.08549  -7668981.69049  19257997.7664   19258002.1214
  21818953.577     5491884.27249   4278689.12949  21818952.9234   21818960.1994
  22146977.777   -13767065.28349 -10118585.54849  22146978.4864   22146982.1454
  23670163.937    10987683.03449   8554597.77749  23670164.4564   23670171.6964
 98  2  4 17 55 29.9970000  0  8 27  3 31 19 18 16 13 14
  22729316.589   -15858256.97449 -12342130.76749  22729316.4324   22729322.9144
  22357306.222   -10436174.97849  -8114251.84249  22357305.4104   22357311.9154
  21877980.589   -17800076.85049 -13851486.79849  21877980.0804   21877986.5334
  20136262.238   -11436425.02949  -8897627.26349  20136261.8364   20136267.0184
  19251069.425    -9893556.34749  -7697353.34849  19251069.0524   19251073.4364
  21830577.744     5552969.41949   4326287.84449  21830576.8964   21830584.3124
  22123230.298   -13891858.82949 -10215827.24149  22123230.6664   22123234.2214
  23684973.093    11065504.88049   8615237.91949  23684974.6534   23684981.6114
 98  2  4 17 55 59.9970000  0  8 27  3 31 19 18 16 13 14
  22709926.393   -15960153.57549 -12421530.69749  22709925.7064   22709932.3624
  22350287.225   -10473060.24949  -8142993.62149  22350287.6884   22350292.6274
  21857610.048   -17907124.53049 -13934900.56549  21857609.4524   21857615.7054
  20124196.521   -11499830.84549  -8947034.40149  20124196.2694   20124201.5444
  19244228.342    -9929506.74249  -7725366.67149  19244227.7284   19244232.2454
  21842243.257     5614271.61649   4374055.68649  21842242.4504   21842249.8944
  22099502.407   -14016549.41049 -10312988.72849  22099501.9134   22099507.1564
  23699778.018    11143304.38949   8675860.66349  23699778.3454   23699788.1844
 98  2  4 17 56 29.9970000  0  8 27  3 31 19 18 16 13 14
  22690536.650   -16062047.47149 -12500928.52249  22690536.1494   22690542.4884
  22343359.607   -10509465.76149  -8171361.55849  22343359.5444   22343364.9694
  21837293.285   -18013889.77149 -14018094.23849  21837291.7974   21837298.3824
  20112153.850   -11563115.52649  -8996347.14149  20112153.5164   20112158.5884
  19237467.943    -9965032.72349  -7753049.27649  19237467.5884   19237472.0774
  21853939.161     5675733.67849   4421948.11149  21853938.6134   21853946.2234
  22075785.334   -14141183.42649 -10410106.12849  22075785.2124   22075789.7394
  23714569.625    11221033.64049   8736428.65749  23714569.8654   23714579.3994
 98  2  4 17 56 59.9970000  0  8 27  3 31 19 18 16 13 14
  22671155.980   -16163893.53249 -12580289.07949  22671154.9564   22671160.7314
  22336535.197   -10545328.66549  -8199306.67349  22336534.6194   22336540.6094
  21817043.095   -18120304.91849 -14101015.11349  21817042.4664   21817048.7184
  20100144.964   -11626222.57649  -9045521.46949  20100144.6994   20100149.8954
  19230800.260   -10000071.74549  -7780352.43049  19230799.9644   19230804.4094
  21865674.285     5737401.82549   4470001.11649  21865673.5694   21865680.8464
  22052088.355   -14265711.84949 -10507141.22049  22052088.8974   22052094.2524
  23729358.872    11298751.18949   8796987.54049  23729360.1864   23729367.9914
 98  2  4 17 57 29.9970000  0  8 27  3 31 19 18 16 13 14
  22651774.545   -16265743.54249 -12659652.70049  22651773.9434   22651779.9834
  22329803.950   -10580702.13849  -8226870.42349  22329803.6494   22329809.4804
  21796846.006   -18226441.46649 -14183718.90049  21796845.8084   21796851.3294
  20088158.665   -11689211.12849  -9094603.46749  20088158.4574   20088163.5594
  19224216.033   -10034672.38549  -7807313.99349  19224215.7724   19224220.1654
  21877436.374     5799211.80649   4518164.62749  21877435.7464   21877442.9884
  22028398.219   -14390204.86249 -10604148.75049  22028398.8474   22028402.8014
  23744135.878    11376404.14449   8857496.08749  23744136.5964   23744146.5514
 98  2  4 17 57 59.9970000  0  8 27  3 31 19 18 16 13 14
  22632404.385   -16367534.30049 -12738970.14849  22632403.2734   22632410.1744
  22323177.228   -10615526.20449  -8254006.07849  22323177.6964   22323183.1354
  21776713.772   -18332237.29049 -14266157.19549  21776713.6954   21776719.3144
  20076202.304   -11752042.36049  -9143562.87449  20076201.9254   20076207.1334
  19217727.822   -10068768.42849  -7833882.36549  19217727.6044   19217732.1024
  21889233.792     5861207.30849   4566472.70749  21889233.5394   21889240.5704
  22004726.531   -14514600.67749 -10701080.54149  22004725.8254   22004730.7314
  23758909.296    11454038.05649   8917989.77949  23758908.6004   23758918.0864
 98  2  4 17 58 29.9970000  0  8 27  3 31 19 18 16 13 14
  22613044.170   -16469272.60249 -12818246.73449  22613044.3254   22613050.3464
  22316654.091   -10649805.76449  -8280717.41349  22316653.3424   22316658.6634
  21756643.637   -18437706.43149 -14348340.92249  21756642.8004   21756648.5934
  20064276.542   -11814712.73849  -9192396.94249  20064276.3314   20064281.0574
  19211338.189   -10102346.30149  -7860046.96349  19211337.9474   19211342.3074
  21901064.879     5923379.80549   4614918.70349  21901064.3094   21901071.6684
  21981071.933   -14638906.53949 -10797942.21849  21981072.3804   21981076.8094
  23773675.957    11531636.07049   8978455.51349  23773675.4174   23773687.2584
 98  2  4 17 58 59.9970000  0  8 27  3 31 19 18 16 13 14
  22593696.916   -16570942.85149 -12897470.29949  22593696.2604   22593701.8384
  22310234.198   -10683542.20749  -8307005.56149  22310234.3664   22310238.6244
  21736635.622   -18542849.15249 -14430270.29249  21736635.5504   21736640.9434
  20052384.492   -11877206.08649  -9241093.06949  20052384.1334   20052389.2044
  19205048.414   -10135399.40749  -7885802.65649  19205048.1524   19205052.5824
  21912931.225     5985737.39449   4663508.91349  21912930.3944   21912937.3534
  21957436.900   -14763109.62549 -10894723.82649  21957437.5824   21957441.0584
  23788437.099    11609204.88349   9038898.49249  23788436.7484   23788447.6204
 98  2  4 17 59 29.9970000  0  9 27 10  3 31 19 18 16 13 14
  22574360.189   -16672557.99949 -12976650.90549  22574360.0964   22574366.1564
  23878524.268    -4706259.35259  -3643546.87459  23878523.9324   23878531.7484
  22303908.310   -10716784.69849  -8332908.80049  22303906.5874   22303913.4884
  21716681.708   -18647708.05349 -14511978.49349  21716681.4244   21716687.7244
  20040519.003   -11939559.70449  -9289680.31049  20040518.8574   20040523.8954
  19198850.693   -10167968.59549  -7911181.26549  19198850.3034   19198854.8594
  21924826.960     6048249.68049   4712219.68749  21924826.3094   21924834.0404
  21933816.392   -14887235.96249 -10991445.63849  21933816.3954   21933820.7184
  23803183.647    11686697.72749   9099282.26349  23803184.7084   23803193.0334
 98  2  4 17 59 59.9970000  0  8 27 10  3 31 19 18 16 13
  22555038.312   -16774095.22049 -13055770.80849  22555038.2024   22555043.2384
  23858813.328    -4809839.66949  -3724258.84249  23858812.8484   23858818.0754
  22297681.488   -10749505.94549  -8358405.88549  22297681.0374   22297686.4324
  21696790.997   -18752234.22149 -14593427.42249  21696790.3154   21696796.6094
  20028687.074   -12001737.14749  -9338130.27849  20028686.8894   20028691.9324
  19192751.248   -10200021.45549  -7936157.54649  19192750.9954   19192755.3434
  21936758.186     6110948.19549   4761075.57149  21936757.5994   21936764.7574
  21910217.031   -15011251.58249 -11088081.15149  21910217.3624   21910221.3334
 98  2  4 18  0 29.9970000  0  8 27 10  3 31 19 18 16 13
  22535720.266   -16875612.39949 -13134875.08249  22535719.8464   22535725.4634
  23839167.924    -4913077.28449  -3804703.64149  23839166.6684   23839173.1854
  22291544.347   -10781756.66649  -8383536.33049  22291543.4164   22291548.8634
  21676954.088   -18856478.24949 -14674656.50449  21676953.5874   21676959.4824
  20016882.305   -12063771.75249  -9386468.94149  20016881.9614   20016887.1684
  19186737.193   -10231625.59849  -7960784.17549  19186736.9184   19186741.5644
  21948716.926     6173791.50849   4810044.27449  21948716.7104   21948723.2164
  21886632.289   -15135190.44649 -11184656.85549  21886631.8204   21886636.8974
 98  2  4 18  0 59.9970000  0  8 27 10  3 31 19 18 16 13
  22516410.326   -16977087.07349 -13213946.23649  22516408.4754   22516414.3894
  23819595.642    -5015930.76449  -3884849.34049  23819592.9494   23819602.1594
  22285504.660   -10813495.02649  -8408267.54149  22285504.5464   22285510.2574
  21657179.703   -18960392.91349 -14755628.94349  21657179.2474   21657184.8364
  20005111.272   -12125629.06149  -9434669.45249  20005110.9704   20005116.0804
  19180809.381   -10262776.51249  -7985057.63949  19180809.0624   19180813.5744
  21960712.806     6236829.97349   4859165.03549  21960712.6654   21960721.0304
  21863073.832   -15258990.54649 -11281124.45449  21863073.6494   21863077.0964
 98  2  4 18  1 29.9970000  0  8 27 10  3 31 19 18 16 13
  22497104.188   -17078540.89449 -13293001.13649  22497104.3594   22497108.9424
  23800098.373    -5118390.27649  -3964687.95449  23800098.5854   23800104.3084
  22279567.792   -10844693.95849  -8432578.42149  22279567.2774   22279573.6134
  21637472.789   -19063953.66949 -14836325.62449  21637472.5094   21637478.4474
  19993375.593   -12187300.47649  -9482725.10149  19993375.4744   19993380.4594
  19174968.962   -10293468.33449  -8008973.36449  19174968.7154   19174973.3334
  21972745.820     6300063.41549   4908437.75049  21972745.5254   21972753.0394
  21839542.335   -15382649.06249 -11377481.71449  21839541.8904   21839547.1464
 98  2  4 18  1 59.9970000  0  8 27 10  3 31 19 18 16 13
  22477794.037   -17180015.82149 -13372072.48249  22477793.8274   22477799.6314
  23780669.815    -5220487.58249  -4044244.27549  23780668.0464   23780675.0364
  22273729.915   -10875371.45749  -8456482.97449  22273728.9684   22273735.3974
  21617831.470   -19167169.30649 -14916753.35949  21617830.4074   21617836.7034
  19981672.719   -12248799.48049  -9530646.40549  19981672.3264   19981677.5444
  19169212.520   -10323718.83249  -8032545.20449  19169212.2214   19169216.7464
  21984810.749     6363464.48149   4957841.07349  21984810.9724   21984818.1564
  21816031.689   -15506198.05449 -11473753.64649  21816031.5064   21816035.5504
 98  2  4 18  2 29.9970000  0  8 27 10  3 31 19 18 16 13
  22458488.364   -17281467.20749 -13451125.48849  22458488.1824   22458492.9094
  23761318.072    -5322182.32049  -4123486.99649  23761317.3124   23761321.9294
  22267997.368   -10905496.17149  -8479956.79849  22267997.7464   22268002.2424
  21598261.064   -19270011.95349 -14996890.45949  21598260.2864   21598265.8574
  19970006.576   -12310105.32649  -9578417.19849  19970006.3224   19970011.5684
  19163544.855   -10353502.69149  -8055753.43449  19163544.6144   19163549.0954
  21996913.799     6427066.08449   5007400.65249  21996914.0734   21996921.2574
  21792545.885   -15629616.59349 -11569923.92749  21792546.5744   21792549.8344
 98  2  4 18  2 59.9970000  0  8 27 10  3 31 19 18 16 13
  22439188.903   -17382886.07449 -13530153.16149  22439189.6424   22439194.1934
  23742044.455    -5423466.40749  -4202409.76349  23742043.7754   23742049.8914
  22262368.793   -10935074.77649  -8503005.09449  22262368.8734   22262374.7364
  21578762.245   -19372478.77749 -15076734.71349  21578761.6044   21578768.1084
  19958373.586   -12371237.06949  -9626052.32549  19958373.1464   19958378.4434
  19157969.857   -10382799.64149  -8078582.24849  19157969.4644   19157973.7854
  22009053.513     6490860.47249   5057110.45649  22009053.0004   22009060.8584
  21769079.063   -15752935.71649 -11666016.72049  21769079.0004   21769083.1044
 98  2  4 18  3 29.9970000  0  8 27 10  3 31 19 18 16 13
  22419894.669   -17484278.01649 -13609159.83549  22419894.5804   22419900.2654
  23722846.303    -5524353.84149  -4281023.29649  23722847.3754   23722851.3784
  22256835.263   -10964153.89349  -8525664.16049  22256835.0344   22256841.2084
  21559330.730   -19474591.89549 -15156303.35349  21559330.0164   21559336.7294
  19946767.332   -12432228.10749  -9673577.81249  19946767.0114   19946772.2494
  19152486.714   -10411613.76549  -8101034.83249  19152486.3504   19152490.7934
  22021220.603     6554798.35249   5106932.06749  22021220.4364   22021227.4664
  21745622.229   -15876201.89649 -11762068.26549  21745622.6994   21745627.4874
 98  2  4 18  3 59.9960000  0  8 27 10  3 31 19 18 16 13
  22400620.619   -17585563.88449 -13688083.85549  22400619.1544   22400625.7174
  23703734.744    -5624785.66849  -4359281.89749  23703732.7574   23703741.5534
  22251402.418   -10992704.30049  -8547911.27049  22251402.3154   22251409.1914
  21539974.776   -19576307.97249 -15235562.62549  21539974.4864   21539980.8284
  19935194.770   -12493042.30549  -9720965.50149  19935194.5424   19935199.4854
  19147104.198   -10439898.98949  -8123075.29249  19147103.6364   19147108.4084
  22033423.652     6618924.98649   5156900.77149  22033423.2484   22033430.5304
  21722186.879   -15999355.65549 -11858032.22849  21722186.7534   21722191.8124
 98  2  4 18  4 29.9960000  0  9 27 10  2  3 31 19 18 16 13
  22381361.571   -17686770.75149 -13766946.33249  22381361.1464   22381366.9144
  23684708.355    -5724769.52749  -4437191.43749  23684707.4184   23684715.0874
  23834973.321                                    23834977.638    23835040.6044
  22246067.161   -11020741.63049  -8569758.56249  22246067.2084   22246073.5224
  21520688.653   -19677657.35949 -15314536.15849  21520688.1484   21520694.6504
  19923650.588   -12553707.55849  -9768237.12949  19923650.4044   19923655.2934
  19141818.823   -10467673.74749  -8144717.97749  19141818.5054   19141823.0664
  22045659.886     6683226.52349   5207005.75349  22045659.7274   22045667.0214
  21698772.355   -16122399.82649 -11953910.79149  21698772.4224   21698776.6474
 98  2  4 18  4 59.9960000  0  9 27 10  2  3 31 19 18 16 13
  22362112.338   -17787926.09549 -13845768.66849  22362111.8324   22362117.8694
  23665764.519    -5824319.74449  -4514762.98049  23665763.9534   23665770.3684
  23811326.076                                    23811329.050    23811457.7704
  22240826.056   -11048284.23649  -8591220.36849  22240826.3264   22240832.6824
  21501471.460   -19778644.41949 -15393227.37549  21501470.5224   21501476.4974
  19912135.578   -12614219.23549  -9815389.08949  19912135.3164   19912140.3084
  19136629.010   -10494946.55949  -8165969.54349  19136628.6784   19136633.1494
  22057924.200     6747675.64749   5257225.73249  22057923.8174   22057931.2334
  21675381.188   -16245321.53449 -12049693.91749  21675382.3154   21675384.9494
 98  2  4 18  5 29.9960000  0  9 27 10  2  3 31 19 18 16 13
  22342870.106   -17889044.55249 -13924562.24449  22342869.8334   22342876.3034
  23646900.511    -5923451.97849  -4592008.93649  23646898.7934   23646905.9694
  23787701.495                                    23787705.434    23787708.7274
  22235678.599   -11075334.42349  -8612298.46249  22235678.7704   22235685.1964
  21482323.999   -19879265.02749 -15471633.05749  21482324.2764   21482329.6534
  19900651.869   -12674566.83749  -9862413.19349  19900651.5564   19900656.4324
  19131530.138   -10521741.51949  -8186848.75349  19131529.6884   19131534.3474
  22070211.365     6812244.87449   5307539.29749  22070210.8414   22070218.7644
  21652015.628   -16368108.58449 -12145372.12549  21652015.4424   21652019.6524
 98  2  4 18  5 59.9960000  0  9 27 10  2  3 31 19 18 16 13
  22323634.153   -17990129.67249 -14003329.84349  22323633.8304   22323640.2414
  23628113.903    -6022176.14549  -4668936.89549  23628114.3974   23628119.0144
  23764102.869                                    23764107.571    23764063.2804
  22230630.707   -11101861.89749  -8632969.26649  22230629.9354   22230637.3824
  21463247.296   -19979513.61249 -15549748.85249  21463246.4144   21463253.0924
  19889202.885   -12734731.46549  -9909294.72749  19889202.4824   19889207.5634
  19126522.094   -10548059.04649  -8207355.94449  19126521.5954   19126526.3974
  22082524.815     6876951.93449   5357960.25849  22082524.0374   22082531.5694
  21628677.702   -16490750.05949 -12240936.88749  21628677.8584   21628681.8414
 98  2  4 18  6 29.9960000  0  9 27 10  2  3 31 19 18 16 13
  22304402.095   -18091195.30649 -14082082.26849  22304401.4244   22304407.5674
  23609402.289    -6120505.10949  -4745556.82949  23609402.2514   23609408.6224
  23740530.058                                    23740534.110    23740633.5364
  22225682.734   -11127863.99849  -8653230.67149  22225682.2504   22225689.9474
  21444239.632   -20079399.56449 -15627582.07449  21444239.0024   21444245.2844
  19877791.192   -12794700.35849  -9956023.73849  19877791.1524   19877796.1124
  19121603.245   -10573907.74449  -8227497.80649  19121602.7504   19121607.4134
  22094862.908     6941788.77049   5408482.33449  22094862.4154   22094870.4374
  21605365.737   -16613255.59349 -12336395.72949  21605366.5064   21605369.6464
 98  2  4 18  6 59.9960000  0  9 27 10  2  3 31 19 18 16 13
  22285172.267   -18192248.95749 -14160825.34849  22285171.7174   22285177.6324
  23590760.797    -6218466.95149  -4821890.70749  23590760.3764   23590768.4514
  23716976.779                                    23716980.946    23716979.9244
  22220832.997   -11153349.60249  -8673089.60549  22220833.0774   22220838.7474
  21425299.043   -20178932.74749 -15705140.42249  21425298.1454   21425304.6074
  19866412.790   -12854494.59649 -10002616.65249  19866412.3194   19866417.4604
  19116769.735   -10599308.09949  -8247290.31049  19116769.4664   19116773.8584
  22107220.273     7006726.69249   5459083.18849  22107219.9204   22107227.4284
  21582073.514   -16735656.86149 -12431773.33249  21582073.4714   21582077.8814
 98  2  4 18  7 29.9960000  0  9 27 10  2  3 31 19 18 16 13
  22265953.154   -18293245.92949 -14239524.26649  22265952.2624   22265959.1454
  23572194.003    -6316036.52549  -4897919.00849  23572194.1104   23572200.1384
  23693449.127     -225693.79259                  23693446.698    23693457.8594
  22216091.968   -11178263.94349  -8692503.40749  22216091.7704   22216098.6514
  21406433.483   -20278071.72349 -15782391.58649  21406432.8054   21406439.1974
  19855071.320   -12914094.43949 -10049058.09249  19855071.1104   19855076.0204
  19112028.415   -10624224.04949  -8266705.35749  19112028.0684   19112032.6894
  22119606.442     7071816.21949   5509802.16249  22119606.2054   22119614.3724
  21558807.007   -16857923.24849 -12527045.82749  21558806.8794   21558811.0774
 98  2  4 18  7 59.9960000  0  9 27 10  2  3 31 19 18 16 13
  22246740.856   -18394207.44049 -14318195.55449  22246740.0924   22246746.3994
  23553698.650    -6413229.92949  -4973654.13749  23553698.3844   23553704.1574
  23669946.240    -1201126.57759   -321933.42249  23669945.6084   23669954.2144
  22211457.455   -11202618.70849  -8711481.16049  22211457.6384   22211462.9574
  21387637.648   -20376844.64749 -15859357.50749  21387636.9874   21387643.6714
  19843761.036   -12973530.38249 -10095371.82049  19843760.8404   19843765.7594
  19107376.930   -10648667.99849  -8285752.61149  19107376.4294   19107380.9894
  22132022.930     7137064.73449   5560645.02549  22132022.4704   22132030.6624
  21535564.599   -16980063.28449 -12622219.86749  21535564.6594   21535568.9454
 98  2  4 18  8 29.9960000  0  9 27 10  2  3 31 19 18 16 13
  22227541.050   -18495103.20949 -14396815.62849  22227541.0244   22227547.0764
  23535282.513    -6510007.91849  -5049065.60449  23535280.9944   23535285.6484
  23646474.742    -1324469.48149   -418044.74349  23646474.4964   23646481.9764
  22206934.269   -11226388.20249  -8730002.86949  22206933.7104   22206940.6184
  21368919.482   -20475209.35949 -15936005.34449  21368918.7554   21368925.6884
  19832486.696   -13032777.48449 -10141538.40149  19832486.5754   19832491.4274
  19102823.059   -10672598.89549  -8304400.09049  19102822.7014   19102827.2084
  22144472.177     7202485.15049   5611621.84949  22144472.0414   22144479.8464
  21512355.114   -17102029.64449 -12717258.55549  21512355.2664   21512358.8784
 98  2  4 18  8 59.9960000  0  9 27 10  2  3 31 19 18 16 13
  22208346.634   -18595970.46849 -14475413.45949  22208345.7624   22208352.1814
  23516940.214    -6606396.65749  -5124173.75849  23516939.2124   23516946.8394
  23623028.015    -1447682.44849   -514054.79649  23623026.2894   23623036.0724
  22202515.384   -11249609.34349  -8748097.27549  22202515.0694   22202522.1884
  21350275.879   -20573182.07149 -16012347.71649  21350275.5924   21350280.9014
  19821238.529   -13091886.89449 -10187597.68549  19821238.3624   19821243.3624
  19098363.221   -10696035.68049  -8322662.54149  19098362.9284   19098367.4404
  22156946.771     7268039.11249   5662702.71349  22156945.9854   22156953.9314
  21489174.276   -17223846.05449 -12812180.41149  21489174.1744   21489178.6364
 98  2  4 18  9 29.9960000  0  9 27 10  2  3 31 19 18 16 13
  22189160.019   -18696796.85949 -14553979.46649  22189159.4954   22189166.1164
  23498679.041    -6702359.20249  -5198949.77749  23498678.6734   23498685.0614
  23599609.207    -1570748.48149   -609950.35449  23599608.2714   23599616.2644
  22198202.843   -11272272.06749  -8765756.53449  22198202.4044   22198208.3844
  21331711.878   -20670736.40249 -16088364.07149  21331711.6034   21331718.1884
  19810020.518   -13150837.99249 -10233533.60449  19810020.2484   19810025.5874
  19094001.847   -10718954.69049  -8340521.52749  19094001.4284   19094006.2224
  22169451.771     7333752.75949   5713908.00849  22169451.5284   22169459.4354
  21466026.628   -17345487.59549 -12906965.99549  21466026.3294   21466030.7624
 98  2  4 18  9 59.9960000  0  9 27 10  2  3 31 19 18 16 13
  22169978.494   -18797596.35449 -14632524.51649  22169977.9044   22169984.1924
  23480502.963    -6797875.42649  -5273378.05949  23480503.4864   23480510.9164
  23576215.687    -1693682.17449   -705742.78249  23576215.1664   23576223.6124
  22193992.319   -11294398.02949  -8782997.53049  22193991.1004   22193997.3624
  21313226.170   -20767880.27149 -16164060.58149  21313226.1014   21313231.5814
  19798830.737   -13209640.92749 -10279354.06949  19798830.4054   19798835.7404
  19089736.594   -10741368.71549  -8357987.02049  19089736.1014   19089740.8534
  22181981.048     7399593.80449   5765212.57749  22181980.7844   22181989.2704
  21442910.531   -17466963.39849 -13001622.44049  21442910.4424   21442914.4954
 98  2  4 18 10 29.9960000  0  9 27 10  2  3 31 19 18 16 13
  22150800.922   -18898374.83749 -14711053.16749  22150800.6004   22150806.1944
  23462411.620    -6892946.01749  -5347459.03449  23462412.5404   23462418.1084
  23552844.500    -1816498.30949   -801443.60549  23552843.3464   23552852.3464
  22189877.775   -11316019.74349  -8799845.62249  22189877.7074   22189883.3314
  21294820.102   -20864605.27149 -16239430.69149  21294819.8634   21294825.7224
  19787665.852   -13268312.73949 -10325072.37149  19787665.5644   19787670.6214
  19085565.577   -10763287.56449  -8375066.66049  19085565.1784   19085569.8694
  22194529.227     7465534.41349   5816594.71849  22194529.3474   22194535.8154
  21419821.394   -17588297.36749 -13096168.35649  21419821.2964   21419825.7864
 98  2  4 18 10 59.9960000  0  9 27 10  2  3 31 19 18 16 13
  22131622.128   -18999159.98749 -14789587.03349  22131621.1084   22131627.6194
  23444403.494    -6987579.83249  -5421199.68549  23444402.4484   23444410.5004
  23529492.725    -1939212.48349   -897064.97849  23529491.9724   23529500.6924
  22185852.846   -11337170.73849  -8816326.90649  22185852.9644   22185859.0254
  21276488.178   -20960940.09149 -16314496.74549  21276487.5244   21276493.5844
  19776519.949   -13326884.80149 -10370712.94349  19776519.5204   19776524.7464
  19081481.836   -10784747.89549  -8391789.01549  19081481.4954   19081486.0074
  22207092.884     7531556.04949   5868040.01149  22207093.1094   22207100.6284
  21396751.970   -17709527.62649 -13190633.46149  21396751.7874   21396756.0294
 98  2  4 18 11 29.9960000  0  9 27 10  2  3 31 19 18 16 13
  22112454.039   -19099889.02049 -14868077.17749  22112453.6374   22112460.0564
  23426490.681    -7081712.34449  -5494549.69049  23426489.8494   23426496.2824
  23506171.754    -2061764.50849   -992559.99749  23506170.5774   23506179.5784
  22181929.274   -11357789.14149  -8832393.18049  22181928.0514   22181935.8204
  21258239.550   -21056837.26549 -16389221.77749  21258239.2474   21258245.1534
  19765406.515   -13385286.21149 -10416220.54449  19765406.2144   19765411.3104
  19077495.377   -10805697.02249  -8408113.03649  19077495.0054   19077499.6184
  22219680.950     7597706.16449   5919585.41849  22219681.1854   22219688.4724
  21373712.652   -17830599.78949 -13284975.37849  21373712.1974   21373717.0464
 98  2  4 18 11 59.9960000  0  9 27 10  2  3 31 19 18 16 13
  22093296.684   -19200561.49949 -14946523.25049  22093296.1194   22093301.9934
  23408669.966    -7175360.08849  -5567521.91149  23408670.0654   23408677.5844
  23482883.885    -2184142.80349  -1087919.63449  23482882.1894   23482891.7984
  22178104.739   -11377886.61149  -8848053.53549  22178104.4984   22178109.6894
  21240070.483   -21152316.14149 -16463620.87249  21240070.5654   21240075.9194
  19754327.238   -13443508.05249 -10461588.21849  19754327.1144   19754331.8534
  19073606.553   -10826132.86849  -8424037.09249  19073606.2474   19073611.0644
  22232289.913     7663966.01349   5971216.32449  22232289.1964   22232297.5474
  21350702.416   -17951518.99949 -13379198.12749  21350702.6764   21350706.8054
 98  2  4 18 12 29.9960000  0  9 27 10  2  3 31 19 18 16 13
  22074150.223   -19301176.36949 -15024924.42249  22074150.3544   22074155.6034
  23390935.842    -7268553.99349  -5640140.55549  23390934.5534   23390942.6044
  23459628.643    -2306349.32049  -1183145.41549  23459627.8884   23459636.2054
  22174376.603   -11397477.84849  -8863319.41749  22174376.9084   22174382.2544
  21221976.974   -21247398.77049 -16537711.18549  21221975.9924   21221982.7064
  19743283.689   -13501542.57749 -10506809.93149  19743283.3894   19743288.6084
  19069816.452   -10846049.93249  -8439556.90249  19069816.0314   19069820.6814
  22244918.205     7730327.63249   6022926.54249  22244919.0634   22244925.5594
  21327718.172   -18072302.08949 -13473314.79549  21327718.5784   21327722.6014
 98  2  4 18 12 59.9960000  0  9 27 10  2  3 31 19 18 16 13
  22055021.438   -19401698.40749 -15103253.26149  22055020.7174   22055027.4774
  23373288.263    -7361293.24449  -5712404.92649  23373288.1394   23373295.5244
  23436412.834    -2428348.40549  -1278209.55849  23436412.1104   23436420.0854
  22170753.889   -11416514.76249  -8878153.37349  22170752.0584   22170760.9624
  21203961.255   -21342071.58249 -16611482.14649  21203959.9644   21203966.7714
  19732283.771   -13559347.50449 -10551852.73749  19732283.4344   19732288.4904
  19066130.280   -10865420.99149  -8454651.25349  19066130.0834   19066134.5934
  22257571.544     7796820.71549   6074739.19449  22257570.9644   22257579.5434
  21304766.007   -18192916.57749 -13567300.08349  21304765.8674   21304770.3864
 98  2  4 18 13 29.9960000  0  9 27 10  2  3 31 19 18 16 13
  22035910.722   -19502125.84149 -15181508.38549  22035910.5374   22035915.7764
  23355720.378    -7453613.08349  -5784342.44249  23355720.2714   23355726.4044
  23413235.527    -2550145.97649  -1373116.69449  23413234.1954   23413243.7194
  22167236.764   -11434996.61449  -8892554.81049  22167236.1824   22167242.0834
  21186021.855   -21436343.87449 -16684941.02749  21186021.4334   21186026.9584
  19721326.306   -13616929.51349 -10596721.84449  19721325.9604   19721330.9774
  19062545.723   -10884258.10249  -8469329.54549  19062545.4644   19062549.9894
  22270247.754     7863434.24149   6126645.70749  22270247.4784   22270255.1204
  21281845.096   -18313367.07949 -13661157.60249  21281845.4754   21281849.0374
 98  2  4 18 13 59.9960000  0  9 27 10  2  3 31 19 18 16 13
  22016818.199   -19602457.86649 -15259689.17149  22016817.9844   22016824.0944
  23338227.823    -7545537.37949  -5855971.76249  23338227.0524   23338236.0974
  23390097.109    -2671738.80649  -1467864.29249  23390096.4234   23390104.8124
  22163823.580   -11452933.03049  -8906531.23749  22163823.0754   22163828.1964
  21168159.278   -21530212.26749 -16758085.17949  21168158.5394   21168164.5004
  19710407.440   -13674308.55549 -10641432.78949  19710407.2794   19710412.2404
  19059060.559   -10902572.83749  -8483600.78449  19059060.1374   19059065.0354
  22282946.942     7930168.53549   6178646.32549  22282947.1074   22282954.2194
  21258954.439   -18433658.12449 -13754890.87449  21258954.4924   21258958.5234
 98  2  4 18 14 29.9960000  0  9 27 10  2  3 31 19 18 16 13
  21997743.369   -19702696.56249 -15337797.22349  21997742.9094   21997748.9464
  23320807.888    -7637080.66849  -5927304.23049  23320807.1014   23320813.8364
  23366994.324    -2793144.54849  -1562466.09049  23366992.9474   23367001.8394
  22160514.329   -11470323.19849  -8920082.01349  22160514.7754   22160519.6304
  21150375.017   -21623668.68849 -16830908.30349  21150374.2214   21150380.1374
  19699522.831   -13731507.88649 -10686003.70449  19699522.5944   19699527.7234
  19055671.051   -10920384.83049  -8497480.27249  19055670.6844   19055675.5114
  22295668.954     7997022.86449   6230740.48549  22295668.1404   22295676.8754
  21236093.969   -18553790.64049 -13848500.61449  21236094.0584   21236097.5194
 98  2  4 18 14 59.9960000  0  9 27 10  2  3 31 19 18 16 13
  21978678.523   -19802882.79149 -15415864.38549  21978677.6384   21978683.9564
  23303457.991    -7728255.05449  -5998349.22049  23303457.1224   23303464.8244
  23343921.475    -2914393.25449  -1656945.54349  23343920.7704   23343929.3164
  22157305.304   -11487187.17449  -8933222.77749  22157305.1974   22157311.3714
  21132666.246   -21716728.65249 -16903422.50849  21132665.4204   21132670.3474
  19688665.880   -13788561.64849 -10730461.18949  19688665.6104   19688670.7514
  19052369.942   -10937732.19549  -8510997.71849  19052369.5794   19052374.1474
  22308408.009     8063966.37649   6282904.12649  22308406.9514   22308415.2124
  21213260.922   -18673778.62749 -13941997.72349  21213261.1154   21213264.9164
 98  2  4 18 15 29.9960000  0  9 27 10  2  3 31 19 18 16 13
  21959623.920   -19903015.31549 -15493889.71249  21959624.0294   21959628.8174
  23286190.380    -7818997.17149  -6069057.37749  23286189.7064   23286195.5064
  23320881.393    -3035469.50749  -1751290.60649  23320880.7604   23320888.5444
  22154198.068   -11503515.99649  -8945946.52949  22154197.6384   22154203.4434
  21115039.835   -21809355.33949 -16975599.09149  21115038.7634   21115045.3844
  19677839.060   -13845456.94949 -10774795.19349  19677838.7264   19677843.8094
  19049163.297   -10954583.28949  -8524128.46749  19049163.0294   19049167.6684
  22321165.560     8131007.41249   6335143.74249  22321164.9194   22321172.7754
  21190460.970   -18793592.84349 -14035359.43249  21190460.9694   21190465.0834
 98  2  4 18 15 59.9960000  0  9 27 10  2  3 31 19 18 16 13
  21940577.050   -20003107.22049 -15571883.37749  21940575.9654   21940582.6554
  23269010.456    -7909279.32549  -6139407.13349  23269009.2004   23269017.0154
  23297870.703    -3156391.49149  -1845515.50149  23297870.2204   23297878.2704
  22151190.380   -11519321.82949  -8958262.76549  22151190.2704   22151196.5704
  21097498.098   -21901537.07649 -17047428.96649  21097496.9474   21097503.0674
  19667044.870   -13902180.80149 -10818995.60149  19667044.5784   19667049.7224
  19046055.036   -10970917.43449  -8536856.39749  19046054.6314   19046059.3424
  22333942.001     8198147.50549   6387460.56549  22333942.0144   22333950.3594
  21167696.071   -18913223.12949 -14128577.81349  21167696.3194   21167700.4764
 98  2  4 18 16 29.9960000  0  9 27 10  2  3 31 19 18 16 13
  21921534.975   -20103174.07849 -15649857.50449  21921534.0784   21921539.9114
  23251925.352    -7999061.97949  -6209367.65649  23251923.6084   23251931.9404
  23274888.490    -3277163.88549  -1939623.81349  23274887.4414   23274895.7824
  22148284.932   -11534590.70849  -8970160.60049  22148284.8014   22148291.1174
  21080045.995   -21993248.36449 -17118892.25349  21080044.6794   21080051.0404
  19656288.071   -13958708.15249 -10863042.87849  19656287.5454   19656292.6114
  19043047.061   -10986724.48949  -8549173.60249  19043046.9634   19043051.5764
  22346738.633     8265393.88849   6439860.20149  22346737.9054   22346746.2244
  21144969.579   -19032651.45349 -14221638.82149  21144969.4724   21144973.7454
 98  2  4 18 16 59.9960000  0  9 27 10  2  3 31 19 18 16 13
  21902487.158   -20203270.97549 -15727855.06749  21902486.4644   21902492.3364
  23234932.544    -8088359.16149  -6278949.85449  23234931.0124   23234938.4774
  23251927.235    -3397825.63849  -2033645.90949  23251926.0674   23251934.7814
  22145474.091   -11549362.37249  -8981670.98249  22145473.5884   22145480.0814
  21062679.037   -22084511.98449 -17190006.72549  21062678.5414   21062683.8614
  19645561.929   -14015074.24849 -10906964.51149  19645561.4514   19645566.7544
  19040132.757   -11002039.65049  -8561107.51549  19040132.5314   19040137.0874
  22359546.389     8332698.55849   6492305.26749  22359546.2084   22359553.6934
  21122274.337   -19151916.04849 -14314572.25249  21122274.3144   21122278.3044
 98  2  4 18 17 29.9960000  0  9 27 10  2  3 31 19 18 16 13
  21883442.330   -20303351.97649 -15805840.23149  21883442.0584   21883448.0424
  23218041.113    -8177123.94849  -6348117.25149  23218038.7864   23218048.3524
  23228993.537    -3518343.07049  -2127555.55849  23228992.2434   23229000.5994
  22142766.349   -11563591.88449  -8992758.93249  22142766.7324   22142771.9074
  21045406.640   -22175278.62149 -17260733.92249  21045406.2084   21045411.9224
  19634873.263   -14071243.45049 -10950732.71649  19634872.7404   19634878.1694
  19037318.935   -11016826.56949  -8572629.81149  19037318.7984   19037323.4814
  22372372.486     8400099.76649   6544825.54249  22372372.2894   22372380.1284
  21099617.844   -19270976.67949 -14407346.73949  21099618.4284   21099622.0664
 98  2  4 18 17 59.9960000  0  9 27 10  2  3 31 19 18 16 13
  21864395.955   -20403441.07349 -15883831.71249  21864395.4644   21864401.7314
  23201236.623    -8265431.43349  -6416928.29849  23201234.1304   23201241.1244
  23206080.782    -3638750.42149  -2221379.41949  23206079.5854   23206089.0804
  22140157.094   -11577304.07749  -9003443.77149  22140156.7684   22140163.2114
  21028220.112   -22265594.33449 -17331109.75849  21028219.4374   21028225.7924
  19624213.958   -14127258.52549 -10994380.82649  19624213.7404   19624218.7564
  19034594.017   -11031146.48149  -8583788.20549  19034593.8054   19034598.4924
  22385209.174     8467556.55949   6597389.12949  22385209.5524   22385217.3094
  21076991.447   -19389879.64749 -14499998.38649  21076991.5624   21076995.4224
 98  2  4 18 18 29.9960000  0  9 27 10  2  3 31 19 18 16 13
  21845360.600   -20503472.15049 -15961777.96649  21845360.3824   21845366.2134
  23184525.534    -8353247.59349  -6485356.41249  23184523.3684   23184531.0884
  23183202.203    -3758977.66649  -2315062.96749  23183201.5244   23183209.9554
  22137658.200   -11590436.27849  -9013676.67149  22137658.2984   22137663.8814
  21011126.305   -22355422.71249 -17401105.86249  21011125.5404   21011131.3754
  19613589.483   -14183090.35549 -11037886.15149  19613589.0954   19613594.1234
  19031963.879   -11044968.14749  -8594558.35749  19031963.4864   19031968.0064
  22398061.542     8535095.68049   6650016.87649  22398061.9844   22398070.2504
  21054402.756   -19508583.76049 -14592495.06949  21054402.8304   21054407.1914
 98  2  4 18 18 59.9960000  0  9 27 10  2  3 31 19 18 16 13
  21826335.532   -20603450.09649 -16039682.83049  21826334.9234   21826341.2984
  23167897.748    -8440626.69349  -6553444.00949  23167898.8574   23167904.4104
  23160353.077    -3879050.41849  -2408626.11249  23160352.5724   23160360.4694
  22135263.312   -11603022.01649  -9023483.74649  22135262.4774   22135269.1014
  20994115.754   -22444813.95349 -17470761.33449  20994115.0474   20994120.8274
  19602991.397   -14238783.71449 -11081283.57649  19602991.2824   19602996.1144
  19029423.937   -11058315.61349  -8604959.00049  19029423.6144   19029428.1944
  22410921.781     8602675.64449   6702676.43149  22410920.9524   22410929.8454
  21031846.098   -19627119.47549 -14684860.54649  21031845.7564   21031850.1924
 98  2  4 18 19 29.9960000  0  9 27 10  2  3 31 19 18 16 13
  21807329.422   -20703328.41949 -16117510.06149  21807329.3404   21807334.9844
  23151353.941    -8527564.74649  -6621187.86749  23151350.7034   23151359.8624
  23137540.216    -3998932.89649  -2502041.01649  23137539.6554   23137548.6794
  22132977.879   -11615032.20049  -9032842.33749  22132977.2794   22132984.2634
  20977189.221   -22533763.59849 -17540072.70349  20977188.3754   20977194.5174
  19592425.743   -14294306.96849 -11124548.45149  19592425.4264   19592430.6244
  19026979.430   -11071161.57049  -8614968.86049  19026979.0174   19026983.7654
  22423796.659     8670332.87949   6755396.22049  22423796.7094   22423804.2664
  21009327.416   -19745455.57449 -14777070.46549  21009327.1754   21009331.9374
 98  2  4 18 19 59.9960000  0  9 27 10  2  3 31 19 18 16 13
  21788340.908   -20803113.93549 -16195264.97949  21788340.4864   21788346.1444
  23134889.876    -8614084.48249  -6688605.88849  23134888.1704   23134898.0134
  23114762.892    -4118628.48149  -2595310.27349  23114762.2634   23114770.7044
  22130796.356   -11626495.70549  -9041774.95949  22130796.0494   22130802.7554
  20960343.857   -22622286.48649 -17609051.54449  20960343.5164   20960348.9954
  19581891.571   -14349664.35549 -11167684.08249  19581891.2594   19581896.3094
  19024629.675   -11083509.65549  -8624590.76349  19024629.4834   19024634.1774
  22436685.130     8738061.59349   6808171.69849  22436684.3374   22436692.6194
  20986846.424   -19863593.99749 -14869126.36049  20986846.5484   20986850.8324
 98  2  4 18 20 29.9960000  0  9 27 10  2  3 31 19 18 16 13
  21769362.992   -20902843.50749 -16272976.29549  21769362.3344   21769367.8464
  23118504.416    -8700191.30949  -6755702.09349  23118503.9434   23118509.5044
  23092015.517    -4238166.79449  -2688456.98249  23092014.1914   23092023.0904
  22128708.942   -11637465.44949  -9050322.83849  22128709.3134   22128714.9164
  20943576.591   -22710399.10049 -17677710.68749  20943575.6444   20943581.9194
  19571386.719   -14404867.68349 -11210699.67149  19571386.4114   19571391.4024
  19022373.747   -11095364.82049  -8633828.57049  19022373.3654   19022378.3454
  22449582.429     8805836.64749   6860983.28549  22449581.8284   22449590.7554
  20964401.260   -19981543.90049 -14961035.36249  20964401.6274   20964405.2644
 98  2  4 18 20 59.9960000  0  9 27 10  2  3 31 19 18 16 13
  21750398.791   -21002501.00149 -16350631.45449  21750398.2134   21750403.7934
  23102204.629    -8785847.15649  -6822446.88449  23102204.2574   23102211.2624
  23069304.150    -4357515.16649  -2781455.67549  23069302.8444   23069310.7994
  22126720.210   -11647915.82249  -9058466.00049  22126719.8914   22126725.1664
  20926897.690   -22798046.95449 -17746007.68149  20926897.4404   20926902.5934
  19560920.636   -14459867.49449 -11253556.67749  19560920.5664   19560925.3174
  19020220.019   -11106682.97049  -8642647.92749  19020219.6564   19020224.5754
  22462497.860     8873707.05249   6913869.16249  22462497.6664   22462506.3444
  20941999.980   -20099263.53649 -15052764.93349  20941999.9654   20942003.6694
 98  2  4 18 21 29.9960000  0  9 27 10  2  3 31 19 18 16 13
  21731444.379   -21102107.12549 -16428246.58749  21731442.8754   21731449.6964
  23085992.544    -8871042.77849  -6888833.09849  23085992.0804   23085999.6534
  23046629.703    -4476670.05249  -2874303.59749  23046628.6714   23046637.5764
  22124829.576   -11657850.74649  -9066207.52149  22124829.2494   22124835.4124
  20910308.095   -22885225.99049 -17813939.36549  20910307.4054   20910313.1444
  19550493.286   -14514663.64749 -11296254.99449  19550492.9154   19550498.0774
  19018167.701   -11117467.96749  -8651051.84549  19018167.4874   19018172.1144
  22475431.359     8941672.28849   6966828.95349  22475430.3534   22475440.1594
  20919640.172   -20216764.97949 -15144324.48449  20919640.4844   20919644.0924
 98  2  4 18 21 59.9960000  0  9 27 10  2  3 31 19 18 16 13
  21712486.170   -21201733.23149 -16505877.29049  21712485.9794   21712491.5054
  23069860.334    -8955818.54849  -6954892.13949  23069859.1094   23069866.8594
  23023981.879    -4595684.74049  -2967042.25449  23023980.6404   23023989.5544
  22123026.998   -11667323.70249  -9073589.05749  22123026.9874   22123032.2934
  20893801.733   -22971967.04949 -17881529.76149  20893801.2224   20893807.4224
  19540092.293   -14569321.27849 -11338845.36349  19540092.0364   19540097.1384
  19016207.430   -11127769.59249  -8659079.09949  19016207.0844   19016211.9584
  22488367.065     9009649.58949   7019798.12949  22488366.6684   22488375.3104
  20897312.679   -20334096.41849 -15235751.56149  20897312.4224   20897316.9454
 98  2  4 18 22 29.9960000  0  9 27 10  2  3 31 19 18 16 13
  21693534.488   -21301325.03349 -16583481.25749  21693533.9394   21693539.4554
  23053822.172    -9040099.84149  -7020565.87249  23053821.7414   23053828.8964
  23001372.665    -4714496.85149  -3059623.08149  23001371.7024   23001380.0234
  22121327.306   -11676256.19149  -9080549.45249  22121327.1644   22121333.0544
  20877391.956   -23058201.18649 -17948725.15449  20877391.0934   20877397.7914
  19529727.479   -14623788.73849 -11381287.54949  19529727.2214   19529732.2774
  19014348.779   -11137536.85749  -8666689.97749  19014348.4604   19014353.2454
  22501315.317     9077693.12749   7072818.91249  22501315.3044   22501323.7854
  20875026.476   -20451210.72949 -15327009.45249  20875026.8404   20875030.7694
 98  2  4 18 22 59.9960000  0  9 27 10  2  3 31 19 18 16 13
  21674585.729   -21400901.38149 -16661073.19349  21674584.2384   21674590.0654
  23037873.050    -9123912.88149  -7085874.77049  23037871.6134   23037880.2764
  22978796.616    -4833134.82149  -3152068.20649  22978795.1714   22978804.3074
  22119728.214   -11684659.44149  -9087097.46549  22119727.4414   22119734.3754
  20861071.956   -23143963.19649 -18015552.65549  20861071.2314   20861076.9474
  19519390.305   -14678110.85249 -11423616.47349  19519389.9874   19519394.9754
  19012582.687   -11146817.73549  -8673921.84449  19012582.4134   19012587.1464
  22514271.309     9145776.57249   7125870.80849  22514270.9554   22514280.5344
  20852772.373   -20568156.64549 -15418136.12049  20852771.9864   20852776.5554
 98  2  4 18 23 29.9960000  0  9 27 10  2  3 31 19 18 16 13
  21655654.203   -21500386.98149 -16738594.41649  21655653.8434   21655658.8224
  23022030.178    -9207167.61349  -7150748.57849  23022028.6014   23022036.5584
  22956265.828    -4951534.72449  -3244327.81949  22956264.7194   22956273.7714
  22118244.383   -11692456.55349  -9093173.13649  22118243.7984   22118250.0474
  20844855.198   -23229182.53349 -18081957.30349  20844854.5874   20844860.0854
  19509093.352   -14732221.69149 -11465780.76549  19509093.0764   19509098.1794
  19010920.949   -11155550.46649  -8680726.58949  19010920.5744   19010925.4364
  22527247.448     9213965.77749   7179005.11649  22527246.9314   22527255.5244
  20830566.059   -20684851.67249 -15509067.31049  20830566.1794   20830570.2144
 98  2  4 18 23 59.9960000  0  9 27 10  2  3 31 19 18 16 13
  21636726.644   -21599851.70249 -16816099.36549  21636725.6964   21636732.2584
  23006280.138    -9289934.79149  -7215242.50949  23006279.0344   23006286.1174
  22933762.938    -5069788.09449  -3336473.26649  22933762.7164   22933770.9934
  22116858.674   -11699738.63449  -9098847.50549  22116857.9784   22116865.3554
  20828727.918   -23313931.53649 -18147995.45949  20828727.0124   20828733.2344
  19498824.024   -14786187.28249 -11507831.88649  19498823.3854   19498828.6824
  19009347.363   -11163819.62949  -8687170.11749  19009346.9034   19009351.8164
  22540227.512     9282176.37749   7232156.07749  22540226.8664   22540237.2294
  20808395.303   -20801359.64849 -15599852.72849  20808395.2984   20808399.1764
 98  2  4 18 24 29.9960000  0  9 27 10  2  3 31 19 18 16 13
  21617816.451   -21699225.21349 -16893533.24549  21617816.0474   21617821.9764
  22990634.906    -9372151.25349  -7279307.28949  22990635.5944   22990640.5744
  22911300.183    -5187830.76649  -3428454.51649  22911299.4174   22911306.8634
  22115581.883   -11706448.11249  -9104075.69349  22115581.5514   22115587.4724
  20812698.642   -23398165.78649 -18213632.50149  20812697.7994   20812703.9664
  19488597.696   -14839926.69149 -11549706.74749  19488597.2554   19488602.4454
  19007874.566   -11171559.16949  -8693200.94649  19007874.2034   19007879.0474
  22553226.355     9350485.14849   7285383.54949  22553226.4664   22553234.7284
  20786270.171   -20917627.96849 -15690451.40049  20786270.2254   20786274.5344
 98  2  4 18 24 59.9960000  0  9 27 10  2  3 31 19 18 16 13
  21598917.598   -21798539.16349 -16970920.71449  21598916.3814   21598922.8114
  22975085.698    -9453862.76049  -7342978.62249  22975083.0814   22975090.8664
  22888869.624    -5305703.95949  -3520303.71749  22888868.7664   22888876.8754
  22114408.465   -11712614.95849  -9108881.02949  22114407.7444   22114414.3014
  20796759.765   -23481924.90049 -18278899.32349  20796758.8834   20796764.8504
  19478409.089   -14893468.17949 -11591427.39149  19478408.8084   19478413.9824
  19006497.095   -11178797.82049  -8698841.48249  19006496.7164   19006501.5344
  22566234.592     9418843.27249   7338649.47849  22566234.0414   22566242.6324
  20764186.979   -21033675.88149 -15780878.33249  20764187.3324   20764191.1654
 98  2  4 18 25 29.9960000  0  9 27 10  2  3 31 19 18 16 13
  21580024.448   -21897823.08649 -17048284.79749  21580024.1504   21580029.4544
  22959628.660    -9535089.75849  -7406272.39349  22959628.3604   22959636.0974
  22866468.721    -5423421.28549  -3612031.44749  22866467.8244   22866475.8404
  22113332.738   -11718267.77049  -9113285.84349  22113332.7784   22113338.2254
  20780908.518   -23565224.10649 -18343807.77849  20780907.3574   20780913.4314
  19468256.264   -14946821.76349 -11633001.61549  19468256.0674   19468261.1814
  19005214.444   -11185538.40849  -8704093.91349  19005214.1444   19005218.9244
  22579246.794     9487222.24649   7391931.65449  22579246.6234   22579255.9324
  20742145.674   -21149503.57749 -15871133.65249  20742145.6914   20742149.9894
 98  2  4 18 25 59.9960000  0  9 27 10  2  3 31 19 18 16 13
  21561143.784   -21997041.30849 -17125597.67849  21561142.8614   21561149.2844
  22944263.817    -9615832.71849  -7469188.99249  22944263.2174   22944271.2624
  22844104.550    -5540946.00249  -3703609.09849  22844104.3564   22844111.1134
  22112359.045   -11723384.59749  -9117273.01549  22112359.0824   22112364.3724
  20765147.985   -23648045.77849 -18408344.13449  20765147.2084   20765153.0094
  19458143.555   -14999964.75549 -11674411.73549  19458143.2584   19458148.1144
  19004034.096   -11191741.17449  -8708927.26249  19004033.7414   19004038.5144
  22592266.040     9555637.93549   7445242.43749  22592265.5004   22592275.0994
  20720149.127   -21265096.29949 -15961205.88449  20720149.4094   20720153.4184
 98  2  4 18 26 29.9960000  0  9 27 10  2  3 31 19 18 16 13
  21542276.665   -22096188.37449 -17202855.11349  21542276.3224   21542281.7034
  22928988.057    -9696107.44149  -7531740.73649  22928987.0534   22928993.6754
  22821779.805    -5658263.13449  -3795024.97949  22821779.5014   22821786.4134
  22111489.401   -11727954.67149  -9120834.13649  22111488.4854   22111495.3794
  20749479.371   -23730384.62649 -18472504.24049  20749479.6044   20749484.5864
  19448065.062   -15052927.90849 -11715681.71949  19448064.7454   19448069.9464
  19002955.049   -11197411.66749  -8713345.84949  19002954.6684   19002959.4214
  22605292.244     9624090.36749   7498581.85749  22605291.9324   22605299.9004
  20698197.483   -21380453.25949 -16051094.40949  20698197.7664   20698201.4504
 98  2  4 18 26 59.9960000  0  9 27 10  2  3 31 19 18 16 13
  21523420.891   -22195276.23349 -17280066.41849  21523420.3664   21523425.9204
  22913798.796    -9775927.93649  -7593938.54049  22913797.3784   22913806.5024
  22799491.856    -5775386.83249  -3886290.14549  22799490.9214   22799499.2154
  22110718.618   -11732005.46449  -9123990.61749  22110718.0784   22110724.7814
  20733903.918   -23812234.81149 -18536283.56749  20733903.4674   20733908.6044
  19438014.197   -15105745.69549 -11756838.43249  19438013.7834   19438019.1424
  19001972.861   -11202573.24249  -8717367.87149  19001972.6084   19001977.2834
  22618321.281     9692558.41649   7551933.44149  22618319.6834   22618329.0964
  20676291.178   -21495571.98149 -16140797.28649  20676291.3614   20676295.2184
 98  2  4 18 27 29.9950000  0  9 27 10  2  3 31 19 18 16 13
  21504578.059   -22294295.94849 -17357224.62449  21504577.3914   21504583.4194
  22898697.121    -9855288.07449  -7655777.61249  22898696.5924   22898703.5084
  22777245.327    -5892292.88949  -3977385.72949  22777244.6424   22777251.3904
  22110043.347   -11735553.80449  -9126755.57349  22110042.4064   22110049.3754
  20718424.439   -23893579.73149 -18599669.18349  20718423.4144   20718429.2864
  19427993.634   -15158403.97649 -11797870.86049  19427993.3704   19427998.7224
  19001090.892   -11207208.15749  -8720979.51549  19001090.6794   19001095.2354
  22631353.428     9761042.67049   7605297.64149  22631353.3104   22631363.1104
  20654431.998   -21610442.67049 -16230306.89849  20654432.1444   20654435.9694
 98  2  4 18 27 59.9950000  0  9 27 10  2  3 31 19 18 16 13
  21485749.761   -22393239.41849 -17434323.41849  21485749.2554   21485754.7504
  22883683.828    -9934183.76349  -7717254.78249  22883683.0464   22883690.0634
  22755039.559    -6008984.68849  -4068314.34049  22755038.8944   22755045.9754
  22109466.180   -11738586.72749  -9129118.90749  22109467.0144   22109472.1584
  20703042.045   -23974414.73749 -18662657.46449  20703041.2734   20703046.9224
  19418003.578   -15210901.94149 -11838778.36249  19418003.3264   19418008.4654
  19000307.497   -11211325.22649  -8724187.64249  19000307.1714   19000312.0354
  22644389.655     9829547.36949   7658677.81049  22644389.9354   22644397.9374
  20632619.655   -21725067.23149 -16319624.70849  20632619.7854   20632623.7894
 98  2  4 18 28 29.9950000  0  9 27 10  2  3 31 19 18 16 13
  21466932.100   -22492126.98649 -17511378.64549  21466931.6424   21466937.7984
  22868760.422   -10012607.13149  -7778363.89949  22868759.9774   22868766.7534
  22732872.426    -6125473.47049  -4159084.75049  22732872.0904   22732879.5314
  22108984.928   -11741116.30849  -9131090.02349  22108985.3684   22108991.0564
  20687756.456   -24054740.70349 -18725249.11349  20687755.5754   20687761.1654
  19408044.176   -15263239.09849 -11879560.55849  19408043.9514   19408048.9424
  18999617.465   -11214951.28449  -8727013.16949  18999617.0794   18999621.9894
  22657427.666     9898061.62949   7712065.41849  22657428.0294   22657436.8194
  20610851.053   -21839462.04749 -16408763.50749  20610851.3754   20610855.1234
 98  2  4 18 28 59.9950000  0  9 27 10  2  3 31 19 18 16 13
  21448121.536   -22590976.73849 -17588404.40849  21448120.9854   21448127.2724
  22853928.106   -10090551.96349  -7839100.14049  22853927.3554   22853934.3424
  22710741.659    -6241770.87149  -4249706.03649  22710740.9914   22710749.0824
  22108600.248   -11743138.56849  -9132665.81549  22108599.1754   22108605.4694
  20672567.403   -24134559.57449 -18787445.61349  20672566.5604   20672572.1794
  19398124.147   -15315369.17049 -11920181.38849  19398123.8184   19398128.7684
  18999023.170   -11218074.32549  -8729446.72849  18999022.8904   18999027.5994
  22670467.822     9966587.14849   7765461.77049  22670467.5024   22670476.2604
  20589124.786   -21953634.33249 -16497728.89949  20589124.6964   20589128.7064
 98  2  4 18 29 29.9950000  0  9 27 10  2  3 31 19 18 16 13
  21429314.755   -22689806.85449 -17665414.87249  21429314.1654   21429319.7054
  22839185.273   -10168026.24449  -7899469.72249  22839184.4624   22839191.6374
  22688642.666    -6357901.19049  -4340197.12249  22688642.1804   22688650.6464
  22108314.129   -11744642.62649  -9133837.80449  22108312.7244   22108319.4004
  20657471.042   -24213891.62249 -18849262.76049  20657470.6614   20657476.2444
  19388243.545   -15367291.92749 -11960640.68349  19388243.0794   19388248.2994
  18998521.522   -11220710.54149  -8731500.95149  18998521.1874   18998525.9114
  22683508.218    10035114.33449   7818859.44049  22683507.3654   22683517.9934
  20567436.235   -22067608.53949 -16586539.95249  20567435.9704   20567440.3024
 98  2  4 18 29 59.9950000  0  9 27 10  2  3 31 19 18 16 13
  21410517.293   -22788588.00649 -17742387.17749  21410516.6384   21410523.0044
  22824537.932   -10244998.46349  -7959448.07749  22824536.4224   22824544.2864
  22666577.872    -6473852.47349  -4430548.70049  22666577.3354   22666586.1034
  22108132.488   -11745596.91749  -9134581.40949  22108131.7094   22108138.2304
  20642468.790   -24292729.19549 -18910694.60349  20642468.0274   20642473.6944
  19378403.541   -15419001.33449 -12000933.72549  19378403.2314   19378408.4564
  18998113.634   -11222854.22949  -8733171.38349  18998113.2604   18998118.1064
  22696554.648    10103673.24149   7872281.82049  22696554.6324   22696564.1254
  20545789.131   -22181364.64049 -16675181.05449  20545789.1564   20545793.0834
 98  2  4 18 30 29.9950000  0  9 27 10  2  3 31 19 18 16 13
  21391730.934   -22887310.99849 -17819314.16149  21391730.5334   21391736.2054
  22809986.065   -10321469.07349  -8019035.57649  22809985.1864   22809992.7514
  22644546.229    -6589629.10549  -4520764.20449  22644546.0974   22644554.0484
  22108056.474   -11745996.04749  -9134892.39249  22108055.9214   22108062.5844
  20627561.663   -24371066.68149 -18971736.76349  20627561.1174   20627566.4224
  19368606.602   -15470484.55049 -12041050.51549  19368606.3134   19368611.3964
  18997803.497   -11224484.10449  -8734441.43849  18997803.1854   18997808.0074
  22709611.209    10172285.27949   7925745.60949  22709610.8644   22709619.3104
  20524186.145   -22294889.18549 -16763641.72349  20524185.9024   20524190.0344
 98  2  4 18 30 59.9950000  0  9 27 10  2  3 31 19 18 16 13
  21372953.567   -22985986.79149 -17896204.36849  21372952.8534   21372958.4474
  22795526.494   -10397455.11749  -8078245.47949  22795525.0864   22795533.2194
  22622545.692    -6705242.51049  -4610852.51949  22622544.7784   22622552.9064
  22108081.450   -11745864.91849  -9134790.19849  22108081.6144   22108086.7814
  20612747.444   -24448915.78849 -19032398.37849  20612746.4534   20612752.4194
  19358848.989   -15521761.08749 -12081006.25549  19358848.5784   19358853.8914
  18997591.383   -11225598.88549  -8735310.12349  18997590.9014   18997595.8624
  22722673.839    10240928.95849   7979234.05649  22722673.0914   22722682.5054
  20502629.288   -22408171.15049 -16851913.37149  20502629.0554   20502633.6924
 98  2  4 18 31 29.9950000  0  9 27 10  2  3 31 19 18 16 13
  21354187.264   -23084604.16249 -17973049.05649  21354187.3144   21354192.4854
  22781159.785   -10472952.66149  -8137074.73649  22781158.5824   22781166.9754
  22600577.149    -6820687.94649  -4700809.94049  22600576.2574   22600585.0364
  22108203.345   -11745224.52249  -9134291.15949  22108202.8804   22108208.1994
  20598024.149   -24526286.97049 -19092687.57849  20598023.2854   20598029.2124
  19349121.344   -15572880.27349 -12120839.38649  19349121.0624   19349126.0934
  18997474.675   -11226212.25249  -8735788.09949  18997474.4324   18997479.1904
  22735736.430    10309572.36449   8032722.28249  22735736.0374   22735744.2264
  20481118.282   -22521211.89249 -16939997.04749  20481118.1674   20481122.6874
 98  2  4 18 31 59.9950000  0  9 27 10  2  3 31 19 18 16 13
  21335431.858   -23183164.44449 -18049849.24249  21335431.3384   21335437.0534
  22766884.562   -10547968.95949  -8195528.98549  22766883.2154   22766890.9664
  22578643.255    -6935950.91849  -4790625.18249  22578642.9014   22578650.9904
  22108417.364   -11744099.18949  -9133414.25749  22108417.3514   22108423.6664
  20583393.988   -24603168.99949 -19152595.62049  20583393.2034   20583399.0714
  19339421.850   -15623851.64749 -12160557.33449  19339421.5774   19339426.8824
  18997454.003   -11226320.99549  -8735872.85449  18997453.6274   18997458.4134
  22748796.741    10378204.37149   8086201.61649  22748796.8564   22748805.1634
  20459654.113   -22634006.99549 -17027889.32149  20459654.2264   20459657.9524
 98  2  4 18 32 29.9950000  0  9 27 10  2  3 31 19 18 16 13
  21316679.662   -23281707.66849 -18126636.14649  21316678.9904   21316685.5314
  22752695.541   -10622532.21449  -8253630.21349  22752694.0084   22752701.5224
  22556743.268    -7051036.23749  -4880302.00049  22556742.1024   22556750.6254
  22108719.665   -11742510.47149  -9132176.27149  22108719.8424   22108726.6084
  20568858.493   -24679553.52149 -19212115.99949  20568858.0364   20568863.3794
  19329748.640   -15674684.77049 -12200167.56249  19329748.2044   19329753.5134
  18997526.825   -11225938.50549  -8735574.83649  18997526.4164   18997531.5394
  22761847.814    10446787.87349   8139643.13849  22761847.2114   22761856.6614
  20438232.681   -22746577.13449 -17115606.29649  20438232.8864   20438236.8094
 98  2  4 18 32 59.9950000  0  9 27 10  2  3 31 19 18 16 13
  21297936.286   -23380204.82149 -18203387.14749  21297935.9664   21297941.8304
  22738601.812   -10696594.99049  -8311341.47049  22738601.0044   22738608.5014
  22534888.291    -7165885.45049  -4969794.83449  22534886.6034   22534895.6724
  22109117.017   -11740422.29449  -9130549.08149  22109116.4374   22109122.2524
  20554427.217   -24755389.81049 -19271209.17449  20554426.8064   20554432.2384
  19320105.483   -15725359.76049 -12239654.56549  19320105.1704   19320110.1254
  18997698.115   -11225038.32549  -8734873.41149  18997697.8074   18997702.5924
  22774890.987    10515329.81849   8193052.29949  22774891.1514   22774899.5944
  20416858.423   -22858899.66149 -17203130.33049  20416858.6134   20416862.3984
 98  2  4 18 33 29.9950000  0  9 27 10  2  3 31 19 18 16 13
  21279210.749   -23478608.33449 -18280065.18949  21279209.5504   21279215.9424
  22724611.169   -10770116.54149  -8368630.99349  22724609.4804   22724617.0824
  22513083.870    -7280468.37649  -5059080.17249  22513083.2374   22513090.7854
  22109618.140   -11737788.67749  -9128496.87049  22109617.3304   22109624.1544
  20540107.465   -24830640.62649 -19329846.15749  20540106.9504   20540112.8924
  19310497.682   -15775849.22749 -12278997.00949  19310497.3614   19310502.3224
  18997971.418   -11223602.45049  -8733754.56949  18997971.0384   18997976.0034
  22787932.289    10583861.78349   8246453.66849  22787932.5134   22787942.2954
  20395536.220   -22970948.63249 -17290441.19949  20395536.5044   20395540.4794
 98  2  4 18 33 59.9950000  0  9 27 10  2  3 31 19 18 16 13
  21260496.017   -23576954.10949 -18356698.23149  21260495.3354   21260501.2784
  22710715.050   -10843141.09849  -8425533.27049  22710713.8304   22710720.5894
  22491324.598    -7394813.89549  -5148180.50349  22491323.3414   22491331.9244
  22110219.778   -11734627.17949  -9126033.32049  22110220.2134   22110225.9074
  20525896.422   -24905319.90949 -19388037.78849  20525895.2884   20525901.6204
  19300924.417   -15826156.92449 -12318197.81449  19300924.1784   19300929.2384
  18998340.771   -11221661.54249  -8732242.19249  18998340.4434   18998345.3604
  22800970.486    10652377.40349   8299842.30049  22800970.1874   22800978.9574
  20374262.233   -23082744.10249 -17377554.54349  20374262.6614   20374266.1894
 98  2  4 18 34 29.9950000  0  9 27 10  2  3 31 19 18 16 13
  21241795.828   -23675223.89849 -18433272.07749  21241795.4514   21241801.7594
  22696917.647   -10915647.04449  -8482031.41549  22696916.8714   22696923.6734
  22469612.325    -7508912.35649  -5237088.33649  22469611.3824   22469619.5594
  22110927.170   -11730909.97749  -9123136.77249  22110926.4344   22110932.4174
  20511795.342   -24979421.11849 -19445778.98349  20511794.4304   20511800.0694
  19291389.633   -15876262.80549 -12357241.35849  19291389.3694   19291394.4624
  18998808.193   -11219205.08349  -8730328.09049  18998807.7894   18998812.7924
  22814007.678    10720887.84049   8353226.88449  22814006.2124   22814016.6224
  20353039.907   -23194268.41849 -17464456.59849  20353039.9044   20353043.9554
 98  2  4 18 34 59.9950000  0  9 27 10  2  3 31 19 18 16 13
  21223116.218   -23773385.96649 -18509761.97149  21223115.7434   21223121.6624
  22683224.570   -10987604.84649  -8538102.45049  22683224.1214   22683231.0374
  22447944.751    -7622775.94849  -5325813.13349  22447943.3424   22447951.6704
  22111743.603   -11726619.25149  -9119793.32949  22111743.1294   22111749.1584
  20497802.842   -25052951.95349 -19503075.72049  20497802.2474   20497808.3984
  19281895.436   -15926155.12749 -12396118.49749  19281895.1524   19281900.1514
  18999374.557   -11216228.75949  -8728008.90449  18999374.0974   18999379.0344
  22827046.609    10789407.47149   8406618.62049  22827047.0944   22827055.5884
  20331871.242   -23305510.55949 -17551138.76649  20331871.0194   20331874.8104
 98  2  4 18 35 29.9950000  0  9 27 10  2  3 31 19 18 16 13
  21204452.907   -23871462.51949 -18586185.24549  21204452.5534   21204458.2384
  22669630.292   -11059043.58449  -8593769.01049  22669629.2524   22669635.8844
  22426315.770    -7736436.54349  -5414379.74849  22426315.6254   22426322.8794
  22112664.250   -11721780.48849  -9116022.83149  22112663.1624   22112669.8594
  20483913.364   -25125941.94049 -19559951.01649  20483912.4424   20483918.5674
  19272441.626   -15975835.06849 -12434830.15049  19272441.2574   19272446.3724
  19000036.455   -11212750.30649  -8725298.45249  19000036.1594   19000041.0654
  22840087.216    10857935.75749   8460017.12349  22840085.6384   22840095.7914
  20310757.118   -23416465.93249 -17637597.48449  20310757.0854   20310760.9204
 98  2  4 18 35 59.9950000  0  9 27 10  2  3 31 19 18 16 13
  21185795.639   -23969507.11849 -18662583.62149  21185794.9694   21185800.5134
  22656128.172   -11129997.81049  -8649058.03449  22656126.6604   22656134.4374
  22404720.515    -7849920.04149  -5502808.36149  22404719.2664   22404727.9574
  22113681.599   -11716434.38649  -9111857.01249  22113682.1864   22113687.5274
  20470119.266   -25198430.62649 -19616435.68149  20470118.3324   20470123.9204
  19263024.764   -16025320.98449 -12473390.61049  19263024.7154   19263029.6424
  19000790.236   -11208789.15949  -8722211.86749  19000789.9574   19000794.8094
  22853123.609    10926442.38749   8513398.73549  22853122.7424   22853133.4584
  20289692.680   -23527159.80249 -17723852.42649  20289692.7084   20289696.6424
 98  2  4 18 36 29.9950000  0  9 27 10  2  3 31 19 18 16 13
  21167145.049   -24067516.80649 -18738954.78849  21167144.5514   21167150.4464
  22642723.315   -11200440.83249  -8703948.69849  22642722.6094   22642729.3464
  22383159.102    -7963225.76149  -5591098.45149  22383158.1324   22383165.1244
  22114796.942   -11710572.88949  -9107289.59149  22114796.8154   22114802.1474
  20456420.748   -25270416.66149 -19672528.67049  20456420.2154   20456425.9764
  19253645.247   -16074611.02749 -12511798.44549  19253645.0794   19253650.1884
  19001640.387   -11204321.67549  -8718730.73749  19001640.0184   19001644.9774
  22866156.156    10994927.96149   8566763.95849  22866155.1704   22866165.8444
  20268680.629   -23637578.82849 -17809893.20049  20268680.8844   20268684.5734
 98  2  4 18 36 59.9950000  0  9 27 10  2  3 31 19 18 16 13
  21148497.630   -24165509.82149 -18815312.96449  21148496.9504   21148503.4074
  22629413.154   -11270386.64649  -8758451.92249  22629412.6344   22629419.5064
  22361629.057    -8076366.42249  -5679259.91749  22361628.5674   22361635.8244
  22116007.667   -11704210.12649  -9102331.57249  22116006.5374   22116013.3134
  20442817.059   -25341904.78449 -19728233.67849  20442816.2334   20442822.3514
  19244299.742   -16123721.77549 -12550066.56749  19244299.4394   19244304.5904
  19002586.651   -11199349.11349  -8714856.02849  19002586.3434   19002591.1854
  22879184.164    11063390.01149   8620110.82749  22879183.4014   22879194.2504
  20247722.209   -23747716.03049 -17895714.38349  20247722.3934   20247726.3284
 98  2  4 18 37 29.9950000  0  9 27 10  2  3 31 19 18 16 13
  21129850.833   -24263499.59849 -18891668.62049  21129850.3094   21129855.9484
  22616196.260   -11339842.11149  -8812573.05849  22616195.3844   22616202.6894
  22340133.782    -8189324.74849  -5767279.30949  22340133.0284   22340141.3484
  22117311.507   -11697358.05949  -9096992.28149  22117311.5344   22117317.1234
  20429309.475   -25412887.35249 -19783544.74349  20429308.5444   20429314.4174
  19234986.547   -16172662.79749 -12588202.44549  19234986.3564   19234991.4684
  19003629.927   -11193866.70049  -8710584.04249  19003629.7114   19003634.6214
  22892207.098    11131825.02349   8673436.64849  22892206.6254   22892216.4454
  20226820.286   -23857556.29349 -17981304.18749  20226820.5934   20226824.2644
 98  2  4 18 37 59.9950000  0  9 27 10  2  3 31 19 18 16 13
  21111207.559   -24361470.82749 -18968009.81949  21111207.3554   21111212.5654
  22603075.980   -11408789.33049  -8866298.14949  22603074.2774   22603083.0984
  22318675.353    -8302089.19449  -5855147.62849  22318674.0334   22318682.5724
  22118709.685   -11690010.79449  -9091267.12449  22118708.8374   22118714.6454
  20415902.096   -25483343.32749 -19838445.45549  20415901.5554   20415906.8664
  19225704.676   -16221439.61549 -12626210.36249  19225704.3324   19225709.6614
  19004771.848   -11187866.15749  -8705908.32149  19004771.6504   19004776.4424
  22905222.020    11200218.40049   8726730.02649  22905221.8154   22905232.0404
  20205973.255   -23967108.12849 -18066669.23149  20205973.3564   20205977.2464
 98  2  4 18 38 29.9950000  0  9 27 10  2  3 31 19 18 16 13
  21092574.808   -24459386.56549 -19044307.78449  21092574.3254   21092579.9594
  22590056.930   -11477204.54949  -8919608.70449  22590055.2804   22590063.4944
  22297258.184    -8414636.71349  -5942846.89749  22297256.6504   22297265.6864
  22120207.894   -11682137.46949  -9085132.06649  22120207.3794   22120214.0314
  20402604.648   -25553222.04149 -19892896.37449  20402604.0514   20402609.5844
  19216458.345   -16270029.29149 -12664072.45649  19216458.1034   19216463.0874
  19006015.368   -11181331.66749  -8700816.54649  19006014.9804   19006020.0154
  22918231.208    11268581.98649   8780000.20249  22918230.7694   22918239.8564
  20185186.890   -24076341.21449 -18151785.90549  20185187.1264   20185190.8004
 98  2  4 18 38 59.9950000  0  9 27 10  2  3 31 19 18 16 13
  21073953.633   -24557241.44849 -19120558.32349  21073953.5264   21073958.7854
  22577133.280   -11545118.08549  -8972528.32249  22577131.6174   22577140.6424
  22275880.241    -8526977.94849  -6030385.42749  22275879.2304   22275886.9734
  22121800.817   -11673767.00749  -9078609.62249  22121800.5364   22121806.8644
  20389414.817   -25622534.75249 -19946906.23249  20389413.9624   20389419.4824
  19207245.467   -16318443.37549 -12701797.72149  19207245.3614   19207250.4774
  19007353.012   -11174302.30549  -8695339.15149  19007352.7444   19007357.8774
  22931228.782    11336884.12349   8833222.46549  22931228.1514   22931238.1734
  20164457.439   -24185275.23749 -18236669.54349  20164457.8864   20164461.1174
 98  2  4 18 39 29.9950000  0  9 27 10  2  3 31 19 18 16 13
  21055344.939   -24655030.69249 -19196757.72049  21055344.7784   21055350.2154
  22564303.570   -11612537.59249  -9025062.97649  22564301.7594   22564310.2954
  22254540.718    -8639117.17249  -6117766.56549  22254540.5124   22254548.5854
  22123482.387   -11664930.52749  -9071724.08349  22123481.2034   22123488.4354
  20376331.249   -25691289.21249 -20000481.08949  20376330.4204   20376336.0224
  19198066.431   -16366679.61749 -12739384.41749  19198066.0454   19198071.3094
  19008780.037   -11166803.55749  -8689496.01049  19008779.8764   19008784.8074
  22944211.016    11405105.48249   8886381.79949  22944210.2744   22944220.0774
  20143779.421   -24293938.89549 -18321342.51249  20143779.4624   20143783.1964
 98  2  4 18 39 59.9950000  0  9 27 10  2  3 31 19 18 16 13
  21036754.434   -24752724.16349 -19272882.48849  21036753.6584   21036759.9934
  22551571.095   -11679446.63749  -9077199.87349  22551569.7234   22551577.6584
  22233244.258    -8751030.54949  -6204971.71749  22233243.3464   22233250.6344
  22125257.333   -11655603.38649  -9064456.17849  22125257.1734   22125262.8114
  20363358.551   -25759460.88949 -20053601.81849  20363357.5014   20363363.3304
  19188927.487   -16414704.97949 -12776806.78449  19188927.0224   19188932.1054
  19010299.421   -11158819.41449  -8683274.63049  19010299.1944   19010304.1114
  22957183.582    11473275.84649   8939501.39849  22957183.3434   22957194.9474
  20123155.733   -24402316.92249 -18405792.90349  20123156.0194   20123159.9674
 98  2  4 18 40 29.9950000  0  9 27 10  2  3 31 19 18 16 13
  21018180.940   -24850327.89249 -19348937.32649  21018180.4964   21018186.5114
  22538932.657   -11745861.47049  -9128951.66749  22538931.6724   22538939.8614
  22211987.684    -8862734.26449  -6292013.49249  22211986.8314   22211994.2694
  22127124.684   -11645790.44449  -9056809.76149  22127124.4014   22127130.3624
  20350493.414   -25827067.57449 -20106282.28849  20350492.8674   20350498.0734
  19179826.932   -16462528.44049 -12814071.82049  19179826.6124   19179831.5534
  19011909.357   -11150359.34449  -8676682.39549  19011909.1394   19011913.9844
  22970146.897    11541397.65749   8992583.17849  22970146.0094   22970155.1564
  20102584.468   -24510419.64349 -18490028.77549  20102584.5604   20102588.7264
 98  2  4 18 40 59.9950000  0  9 27 10  2  3 31 19 18 16 13
  20999625.272   -24947838.47049 -19424919.57449  20999624.9324   20999631.1664
  22526389.458   -11811776.10349  -9180313.69549  22526388.5964   22526396.5454
  22190769.946    -8974234.02449  -6378896.35849  22190769.5604   22190776.6254
  22129083.454   -11635497.04549  -9048788.93149  22129082.5854   22129089.1544
  20337731.647   -25894130.91849 -20158539.37649  20337730.9424   20337736.3684
  19170762.261   -16510163.82149 -12851190.30949  19170761.8484   19170767.3224
  19013610.166   -11141421.77649  -8669718.08149  19013609.9524   19013614.9734
  22983101.629    11609474.31249   9045629.74649  22983101.6304   22983110.1934
  20082061.837   -24618266.63949 -18574065.37849  20082061.7884   20082065.7054
 98  2  4 18 41 29.9950000  0  9 27 10  2  3 31 19 18 16 13
  20981081.527   -25045286.77549 -19500853.30149  20981080.9404   20981086.8464
  22513941.571   -11877190.64549  -9231286.05849  22513940.9734   22513948.3834
  22169590.401    -9085533.33249  -6465623.01949  22169589.6124   22169597.0074
  22131133.768   -11624722.39149  -9040393.11549  22131133.2254   22131138.9874
  20325071.590   -25960659.67449 -20210379.90949  20325070.5564   20325076.5064
  19161730.346   -16557626.86749 -12888174.50849  19161730.0304   19161735.3784
  19015401.177   -11132010.01049  -8662384.26949  19015400.7924   19015405.8734
  22996046.750    11677500.77449   9098637.20949  22996047.4784   22996056.9294
  20061586.288   -24725866.24349 -18657909.21049  20061586.4134   20061590.3724
 98  2  4 18 41 59.9950000  0  9 27 10  2  3 31 19 18 16 13
  20962552.722   -25142655.81549 -19576725.26049  20962551.7274   20962557.7494
  22501595.018   -11942072.71649  -9281843.51449  22501594.4404   22501601.5974
  22148453.244    -9196609.70449  -6552175.96149  22148452.6854   22148459.8134
  22133286.512   -11613409.82749  -9031578.14949  22133286.8744   22133291.9504
  20312520.166   -26026617.39949 -20261775.49649  20312519.4754   20312524.7574
  19152736.551   -16604889.73249 -12925002.72349  19152736.3774   19152741.3614
  19017290.426   -11122081.79049  -8654648.02349  19017290.0844   19017295.1034
  23008987.261    11745502.85449   9151625.68849  23008987.5994   23008996.7264
  20041166.168   -24833174.56549 -18741526.06649  20041166.1094   20041170.5274
 98  2  4 18 42 29.9950000  0  9 27 10  2  3 31 19 18 16 13
  20944040.051   -25239940.18849 -19652531.24049  20944039.4534   20944045.5504
  22489351.774   -12006411.99949  -9331978.02649  22489350.9464   22489357.9534
  22127358.660    -9307462.28849  -6638554.53249  22127357.4294   22127365.3474
  22135541.394   -11601560.28949  -9022344.77749  22135541.6734   22135546.9874
  20300079.573   -26091992.91549 -20312717.40549  20300078.6284   20300084.4304
  19143782.075   -16651945.98649 -12961669.93849  19143781.7264   19143786.9904
  19019280.996   -11111621.49949  -8646497.17849  19019280.7364   19019285.7294
  23021921.183    11813469.74249   9204586.71449  23021922.0254   23021929.5384
  20020805.835   -24940168.75849 -18824898.14849  20020806.0044   20020809.8194
 98  2  4 18 42 59.9950000  0  9 27 10  2  3 31 19 18 16 13
  20925540.898   -25337154.15349 -19728282.36149  20925540.7004   20925546.1604
  22477210.850   -12070213.83349  -9381693.75049  22477210.4314   22477216.5034
  22106307.711    -9418085.55349  -6724754.41249  22106306.8724   22106314.8744
  22137896.413   -11589184.32749  -9012701.18449  22137895.7344   22137902.6854
  20287748.172   -26156794.65449 -20363212.20449  20287747.2054   20287752.7384
  19134867.183   -16698794.10649 -12998174.96949  19134866.7974   19134871.9694
  19021370.458   -11100641.47449  -8637941.35349  19021370.0504   19021375.1714
  23034846.028    11881389.49349   9257511.02749  23034845.9584   23034856.9324
  20000508.811   -25046830.04749 -18908010.82349  20000508.9464   20000512.8404
 98  2  4 18 43 29.9950000  0  9 27 10  2  3 31 19 18 16 13
  20907050.892   -25434319.77849 -19803995.81749  20907050.2204   20907056.3934
  22465169.643   -12133490.91249  -9431000.56349  22465169.1174   22465175.7614
  22085299.926    -9528481.94549  -6810777.51549  22085298.8564   22085306.3124
  22140349.004   -11576295.96649  -9002658.35149  22140348.7854   22140354.8854
  20275526.168   -26221021.56249 -20413259.08649  20275525.3264   20275531.0724
  19125993.154   -16745427.41349 -13034512.61749  19125992.9714   19125997.9444
  19023557.228   -11089150.02949  -8628987.02449  19023556.9464   19023562.0714
  23047760.936    11949257.30949   9310394.84249  23047760.7774   23047772.1334
  19980278.078   -25153143.35949 -18990852.35049  19980278.3214   19980282.2784
 98  2  4 18 43 59.9950000  0  9 27 10  2  3 31 19 18 16 13
  20888570.852   -25531432.82149 -19879668.28849  20888570.8034   20888576.3694
  22453224.833   -12196261.35149  -9479912.61449  22453224.3064   22453230.6024
  22064333.790    -9638659.46649  -6896630.06049  22064332.3614   22064339.5134
  22142895.524   -11562914.28049  -8992231.08149  22142894.8034   22142902.2744
  20263413.253   -26284674.97249 -20462859.08749  20263412.4814   20263418.0434
  19117158.636   -16791853.17749 -13070688.54549  19117158.3274   19117163.4374
  19025840.705   -11077150.30949  -8619636.63349  19025840.4054   19025845.3554
  23060662.778    12017056.60749   9363225.27149  23060662.1064   23060672.4644
  19960112.996   -25259111.56849 -19073424.96049  19960112.9914   19960117.4644
 98  2  4 18 44 29.9950000  0  9 27 10  2  3 31 19 18 16 13
  20870095.832   -25628519.89149 -19955320.53249  20870095.9134   20870101.0924
  22441368.006   -12258570.00249  -9528464.80949  22441366.5554   22441373.5884
  22043404.298    -9748644.35349  -6982332.51749  22043403.9094   22043410.7134
  22145527.212   -11549084.80649  -8981454.90549  22145527.3104   22145532.9604
  20251401.995   -26347794.27849 -20512042.90549  20251401.1474   20251406.8744
  19108355.075   -16838116.22349 -13106737.67549  19108354.9214   19108359.9224
  19028212.615   -11064686.13749  -8609924.32049  19028212.1534   19028217.2394
  23073544.813    12084752.01249   9415974.73749  23073544.0084   23073554.0614
  19940007.041   -25364769.02449 -19155755.42249  19940007.1704   19940010.9404
 98  2  4 18 44 59.9950000  0  9 27 10  2  3 31 19 18 16 13
  20851632.185   -25725547.01449 -20030926.05349  20851631.9064   20851637.3214
  22429608.353   -12320367.39949  -9576618.64149  22429608.0354   22429614.7534
  22022520.143    -9858391.10449  -7067849.40849  22022519.2274   22022526.4664
  22148253.612   -11534757.31749  -8970290.65349  22148253.9834   22148259.8574
  20239498.927   -26410345.15549 -20560783.79549  20239498.4574   20239503.9894
  19099590.007   -16884177.12149 -13142629.28749  19099589.6194   19099595.0134
  19030679.795   -11051721.13449  -8599821.75149  19030679.5354   19030684.5714
  23086417.540    12152397.03049   9468684.95249  23086417.1264   23086427.7824
  19919963.762   -25470097.04149 -19237829.18149  19919963.8864   19919967.7844
 98  2  4 18 45 29.9950000  0  9 27 10  2  3 31 19 18 16 13
  20833178.298   -25822522.92649 -20106491.66749  20833177.8814   20833183.5484
  22417946.211   -12381652.26649  -9624373.07349  22417945.6894   22417951.8934
  22001680.895    -9967902.11649  -7153182.59949  22001679.7544   22001687.6324
  22151073.481   -11519939.01649  -8958743.94649  22151073.5314   22151078.9094
  20227705.278   -26472321.24949 -20609076.81049  20227704.7714   20227710.1954
  19090862.127   -16930042.56649 -13178368.59349  19090861.6124   19090867.0294
  19033243.175   -11038250.57749  -8589325.24549  19033242.7304   19033247.9584
  23099278.822    12219982.59549   9521348.83349  23099278.0434   23099287.9584
  19899980.685   -25575108.56349 -19319656.32249  19899980.4104   19899984.7664
 98  2  4 18 45 59.9950000  0  9 27 10  2  3 31 19 18 16 13
  20814734.910   -25919443.71849 -20182014.33949  20814734.4694   20814740.2894
  22406380.302   -12442431.22249  -9671733.29149  22406379.8164   22406385.8064
  21980886.766   -10077175.59949  -7238330.70549  21980885.6994   21980893.1234
  22153986.573   -11504630.96149  -8946815.63349  22153986.1054   22153993.3034
  20216018.616   -26533735.11549 -20656931.72749  20216017.6324   20216023.3354
  19082168.709   -16975726.60049 -13213966.53849  19082168.3804   19082173.8144
  19035901.670   -11024280.01949  -8578439.13249  19035901.4104   19035906.4844
  23112123.959    12287483.83749   9573946.98149  23112123.3404   23112135.1484
  19880056.345   -25679811.44849 -19401242.97349  19880056.4134   19880060.5654
 98  2  4 18 46 29.9950000  0  9 27 10  2  3 31 19 18 16 13
  20796302.875   -26016304.62849 -20257490.34449  20796302.0604   20796307.8564
  22394915.174   -12502680.28649  -9718680.61449  22394914.7034   22394922.0034
  21960138.688   -10186207.48449  -7323290.54849  21960138.1134   21960145.7114
  22156994.402   -11488824.42049  -8934498.86849  22156994.1324   22157000.9494
  20204439.710   -26594582.47249 -20704345.22049  20204438.8984   20204444.6014
  19073512.863   -17021213.35049 -13249410.75149  19073512.2624   19073517.8644
  19038655.868   -11009806.85849  -8567161.37349  19038655.5134   19038660.6974
  23124958.045    12354926.84649   9626499.76649  23124958.7444   23124968.2784
  19860191.976   -25784199.32649 -19482584.15849  19860192.2554   19860195.8414
 98  2  4 18 46 59.9950000  0  9 27 10  2  3 31 19 18 16 13
  20777878.589   -26113124.58449 -20332934.43849  20777878.2244   20777883.8454
  22383550.146   -12562403.13249  -9765217.88249  22383549.1214   22383556.5154
  21939432.358   -10295019.67449  -7408079.20249  21939431.3284   21939438.6814
  22160093.255   -11472540.13649  -8921809.83149  22160093.5364   22160099.5874
  20192965.804   -26654877.84349 -20751328.60249  20192964.8814   20192970.8234
  19064891.685   -17066517.81249 -13284712.92749  19064891.4304   19064896.5034
  19041501.921   -10994851.10149  -8555507.57149  19041501.6234   19041506.6584
  23137778.661    12422299.08649   9678997.40749  23137779.3994   23137789.4494
  19840383.805   -25888292.09249 -19563695.39449  19840384.1584   19840388.0924
 98  2  4 18 47 29.9950000  0  9 27 10  2  3 31 19 18 16 13
  20759469.942   -26209862.47249 -20408314.57849  20759469.3184   20759474.8704
  22372286.171   -12621595.53149  -9811341.83649  22372285.5594   22372293.7304
  21918772.996   -10403585.03349  -7492675.51849  21918772.5404   21918778.9684
  22163285.658   -11455764.12549  -8908737.64349  22163285.1274   22163291.1334
  20181603.395   -26714587.63149 -20797855.67449  20181602.7474   20181608.0864
  19056308.807   -17111620.98649 -13319858.25349  19056308.4024   19056313.6484
  19044443.783   -10979391.67349  -8543461.29549  19044443.5464   19044448.5834
  23150586.191    12489602.30749   9731441.24149  23150586.5024   23150596.2124
  19820641.063   -25992041.06549 -19644538.73149  19820641.3264   19820645.1284
 98  2  4 18 47 59.9950000  0  9 27 10  2  3 31 19 18 16 13
  20741080.306   -26306500.60249 -20483616.99749  20741079.5994   20741085.2234
  22361121.910   -12680264.67449  -9857058.05549  22361120.6284   22361128.3764
  21898157.607   -10511919.13549  -7577091.64449  21898156.5624   21898164.1434
  22166569.984   -11438504.67149  -8895288.74049  22166569.0544   22166575.9444
  20170351.671   -26773715.72449 -20843929.47449  20170350.8774   20170356.1594
  19047763.670   -17156525.91449 -13354849.10349  19047763.5984   19047768.6934
  19047478.208   -10963445.68849  -8531035.89349  19047478.0454   19047482.9434
  23163379.280    12556829.51749   9783825.85249  23163379.7864   23163389.0724
  19800961.885   -26095455.61749 -19725121.49049  19800962.0494   19800965.9974
 98  2  4 18 48 29.9950000  0  9 27 10  2  3 31 19 18 16 13
  20722705.416   -26403061.23449 -20558859.02149  20722704.8404   20722710.6264
  22350052.135   -12738437.03749  -9902387.17549  22350050.9124   22350059.1824
  21877579.254   -10620058.45449  -7661355.97949  21877577.9384   21877585.1684
  22169939.931   -11420795.52349  -8881489.41549  22169939.2004   22169946.0834
  20159207.585   -26832278.19649 -20889562.53849  20159206.8424   20159212.3274
  19039251.041   -17201260.12649 -13389706.92849  19039250.7514   19039256.0884
  19050600.317   -10947039.22749  -8518251.67449  19050600.1144   19050605.2914
  23176155.661    12623969.17349   9836142.23449  23176154.8124   23176166.7634
  19781340.054   -26198568.95549 -19805469.52549  19781339.9434   19781344.1724
 98  2  4 18 48 59.9950000  0  9 27 10  2  3 31 19 18 16 13
  20704354.425   -26499496.15249 -20634003.08949  20704353.8244   20704359.4494
  22339083.742   -12796076.30849  -9947300.90649  22339083.2144   22339090.2084
  21857048.605   -10727947.14249  -7745425.02249  21857047.5814   21857055.3304
  22173405.814   -11402581.63549  -8867296.78549  22173405.5814   22173411.4314
  20148180.138   -26890227.76049 -20934718.01749  20148179.0964   20148184.3294
  19030779.139   -17245780.28449 -13424397.95849  19030778.7064   19030783.9434
  19053822.170   -10930108.62849  -8505059.04249  19053821.9844   19053827.0164
  23188918.093    12691035.29549   9888401.30649  23188918.3264   23188928.7844
  19761787.797   -26301316.57349 -19885532.59049  19761787.6894   19761791.9314
 98  2  4 18 49 29.9950000  0  9 27 10  2  3 31 19 18 16 13
  20686026.205   -26595811.60949 -20709054.06749  20686025.5034   20686031.0824
  22328214.825   -12853192.89649  -9991807.33849  22328213.7894   22328222.1204
  21836563.544   -10835597.14149  -7829308.07249  21836562.6724   21836570.8124
  22176965.414   -11383875.98949  -8852720.96249  22176965.2564   22176971.2124
  20137268.446   -26947568.67349 -20979399.21649  20137267.5504   20137272.8544
  19022348.615   -17290083.03849 -13458919.58449  19022348.3024   19022353.6524
  19057142.423   -10912660.54949  -8491463.17449  19057142.0054   19057147.1594
  23201661.499    12758001.22449   9940582.31449  23201661.3644   23201673.0544
  19742304.213   -26403703.37249 -19965314.49349  19742304.2074   19742308.5424
 98  2  4 18 49 59.9950000  0  9 27 10  2  3 31 19 18 16 13
  20667713.721   -26692044.28049 -20784040.54149  20667712.8904   20667718.8844
  22317445.585   -12909785.93749 -10035905.83149  22317445.0644   22317452.6674
  21816120.770   -10943024.46349  -7913017.61949  21816119.1654   21816127.3404
  22180616.280   -11364690.02549  -8837770.87649  22180615.8294   22180621.8174
  20126470.239   -27004313.26249 -21023615.75849  20126469.5654   20126474.7244
  19013957.651   -17334177.86349 -13493279.18549  19013957.2614   19013962.4344
  19060557.479   -10894714.37649  -8477479.17749  19060556.9714   19060562.3834
  23214387.214    12824874.32049   9992690.96649  23214387.0744   23214398.3304
  19722883.606   -26505759.33649 -20044838.60849  19722883.5024   19722887.8714
 98  2  4 18 50 29.9950000  0  9 27 10  2  3 31 19 18 16 13
  20649414.198   -26788208.78749 -20858973.90549  20649413.8284   20649419.2754
  22306779.449   -12965837.40049 -10079582.31449  22306778.7784   22306785.2444
  21795724.487   -11050207.32149  -7996536.67749  21795723.7744   21795730.9584
  22184362.270   -11345004.52949  -8822431.55249  22184361.4964   22184369.4164
  20115786.851   -27060454.89149 -21067362.46749  20115786.1614   20115791.7064
  19005608.218   -17378054.41249 -13527468.70449  19005607.8614   19005613.0194
  19064071.653   -10876247.35249  -8463089.32249  19064071.4084   19064076.4404
  23227096.799    12891662.73349  10044733.63449  23227096.9854   23227108.2754
  19703532.322   -26607451.09849 -20124078.91949  19703532.4984   19703536.6064
 98  2  4 18 50 59.9940000  0  8 27 10  2  3 31 19 18 13
  20631124.397   -26884322.35949 -20933867.57149  20631123.9104   20631129.4454
  22296215.209   -13021353.08349 -10122841.32049  22296214.2724   22296220.3724
  21775374.342   -11157147.96449  -8079866.98749  21775373.7424   21775381.2604
  22188202.299   -11324824.78149  -8806707.08449  22188202.6774   22188208.7384
  20105218.176   -27115993.51049 -21110639.28649  20105217.1584   20105222.9764
  18997300.500   -17421711.80649 -13561487.44649  18997299.9834   18997305.2774
  19067679.940   -10857285.96649  -8448314.24049  19067679.6204   19067684.8254
  19684250.966   -26708775.44249 -20203032.93149  19684251.0774   19684255.1974
 98  2  4 18 51 29.9940000  0  8 27 10  2  3 31 19 18 13
  20612841.346   -26980400.08349 -21008733.30849  20612840.6474   20612846.0644
  22285751.426   -13076340.74849 -10165688.86049  22285750.3164   22285758.4224
  21755068.875   -11263853.38549  -8163014.03049  21755067.9004   21755075.5904
  22192133.849   -11304164.48449  -8790608.16949  22192133.6164   22192139.3654
  20094763.312   -27170933.82649 -21153449.91149  20094762.5254   20094768.1824
  18989034.686   -17465148.88349 -13595334.52149  18989034.2854   18989039.4044
  19071377.252   -10837856.68049  -8433174.56749  19071377.0204   19071381.9784
  19665035.009   -26809756.05149 -20281719.10049  19665035.3094   19665038.9884
 98  2  4 18 51 59.9940000  0  8 27 10  2  3 31 19 18 13
  20594565.515   -27076440.23449 -21083569.76149  20594564.8494   20594570.4604
  22275386.902   -13130806.82349 -10208129.98749  22275385.9814   22275392.6594
  21734811.073   -11370308.59949  -8245966.10049  21734810.2344   21734817.9404
  22196157.661   -11283019.28049  -8774131.40149  22196157.3404   22196163.8994
  20084422.240   -27225276.75349 -21195795.02849  20084421.5444   20084426.8544
  18980810.059   -17508369.67949 -13629013.06049  18980809.7494   18980814.8924
  19075164.102   -10817956.80349  -8417668.19849  19075163.6394   19075168.7964
  19645887.341   -26910377.59549 -20360125.47049  19645887.4454   19645891.3164
 98  2  4 18 52 29.9940000  0  8 27 10  2  3 31 19 18 13
  20576299.786   -27172427.13449 -21158364.72149  20576299.3344   20576304.9884
  22265121.143   -13184753.48849 -10250166.36549  22265120.9084   22265128.2704
  21714599.931   -11476518.76049  -8328727.22949  21714598.7964   21714605.9324
  22200271.861   -11261399.03249  -8757284.45349  22200271.2424   22200277.8414
  20074194.933   -27279021.49949 -21237674.03849  20074194.3044   20074199.4044
  18972627.002   -17551372.14149 -13662521.47249  18972626.6444   18972631.8174
  19079040.822   -10797584.52249  -8401793.72649  19079040.5854   19079045.6854
  19626808.523   -27010637.36149 -20438249.94249  19626808.3834   19626812.3564
 98  2  4 18 52 59.9940000  0  8 27 10  2  3 31 19 18 13
  20558049.179   -27268334.44049 -21233097.66449  20558048.6594   20558054.2594
  22254955.170   -13238176.08649 -10291794.37949  22254954.6164   22254959.9994
  21694436.698   -11582477.09849  -8411292.12649  21694436.2244   21694443.4144
  22204476.364   -11239304.46349  -8740067.93849  22204476.2814   22204482.2004
  20064085.030   -27332149.48149 -21279072.45949  20064084.1344   20064089.7414
  18964488.484   -17594140.34549 -13695847.34449  18964488.0884   18964493.4444
  19083007.722   -10776738.34249  -8385549.99249  19083007.1694   19083012.4744
  19607796.746   -27110544.54749 -20516099.67349  19607796.8054   19607800.4734
 98  2  4 18 53 29.9940000  0  8 27 10  2  3 31 19 18 13
  20539804.046   -27364213.31449 -21307808.44949  20539803.6804   20539808.8684
  22244878.195   -13291130.65149 -10333057.68549  22244876.0434   22244883.3494
  21674307.203   -11688258.33749  -8493719.02749  21674306.4204   21674313.5434
  22208756.499   -11216812.55249  -8722541.79949  22208756.6284   22208763.0624
  20054075.915   -27384747.48649 -21320057.90649  20054075.2934   20054080.5894
  18956379.180   -17636755.05649 -13729053.60949  18956378.9124   18956384.1514
  19087054.834   -10755470.70449  -8368977.85349  19087054.4274   19087059.8114
  19588839.697   -27210164.26449 -20593725.39949  19588839.8484   19588843.7484
 98  2  4 18 53 59.9940000  0  8 27 10  2  3 31 19 18 13
  20521578.519   -27459989.37049 -21382439.11149  20521578.2474   20521583.6634
  22234906.894   -13343530.06549 -10373888.41349  22234906.1154   22234912.0504
  21654221.309   -11793810.69649  -8575967.58249  21654220.4454   21654227.1984
  22213125.079   -11193856.25549  -8704653.78949  22213126.2834   22213131.9554
  20044180.674   -27436747.26649 -21360577.19049  20044179.8334   20044185.3424
  18948309.555   -17679160.94349 -13762097.15649  18948309.2484   18948314.4844
  19091195.969   -10733709.25049  -8352020.91449  19091195.6704   19091201.0004
  19569952.591   -27309416.67749 -20671064.91649  19569952.7144   19569956.7214
 98  2  4 18 54 29.9940000  0  8 27 10  2  3 31 19 18 13
  20503373.223   -27555658.79049 -21456986.68249  20503372.7804   20503378.3834
  22225043.483   -13395362.63649 -10414277.43549  22225042.7334   22225050.1524
  21634177.405   -11899141.97549  -8658043.86749  21634176.4714   21634184.3204
  22217581.991   -11170435.91849  -8686404.20149  22217583.1774   22217587.6974
  20034400.238   -27488143.64649 -21400626.29949  20034399.4944   20034405.0554
  18940280.147   -17721355.95549 -13794976.38749  18940279.8174   18940284.9394
  19095430.512   -10711456.68049  -8334681.28549  19095430.2394   19095435.6154
  19551135.063   -27408303.16149 -20748119.29949  19551135.0414   19551139.0114
 98  2  4 18 54 59.9940000  0  8 27 10  2  3 31 19 18 13
  20485187.597   -27651224.85249 -21531453.72249  20485186.9204   20485192.5934
  22215286.367   -13446636.25549 -10454230.91949  22215285.2084   22215292.7164
  21614177.133   -12004244.09349  -8739941.58149  21614176.4774   21614183.6494
  22222127.806   -11146547.89549  -8667790.19249  22222128.8104   22222134.0814
  20024732.858   -27538946.43549 -21440212.87049  20024732.0864   20024737.6164
  18932288.563   -17763352.08349 -13827700.65049  18932288.2204   18932293.2414
  19099757.928   -10688715.98149  -8316961.30349  19099757.6834   19099762.7174
  19532390.652   -27506805.55449 -20824874.39549  19532390.6674   19532394.9114
 98  2  4 18 55 29.9940000  0  8 27 10  2  3 31 19 18 13
  20467017.295   -27746710.41849 -21605858.02949  20467016.5294   20467022.2424
  22205630.829   -13497376.13049 -10493768.49249  22205630.4524   22205637.7234
  21594216.584   -12109137.16449  -8821676.40149  21594216.0854   21594222.8234
  22226758.881   -11122212.02149  -8648827.19649  22226759.0454   22226765.3194
  20015175.143   -27589172.46849 -21479350.01949  20015174.6134   20015179.8704
  18924330.359   -17805172.80149 -13860288.22149  18924330.0494   18924335.1204
  19104174.416   -10665507.43249  -8298876.75549  19104174.2254   19104179.2444
  19513716.732   -27604937.48449 -20901340.81749  19513716.9554   19513720.9664
 98  2  4 18 55 59.9940000  0  8 27 10  2  3 31 19 18 13
  20448860.558   -27842124.46649 -21680206.60349  20448859.7194   20448865.4064
  22196073.890   -13547598.45749 -10532902.78849  22196073.6084   22196080.6944
  21574296.515   -12213817.47249  -8903245.42149  21574295.8964   21574302.5804
  22231476.103   -11097422.72049  -8629510.88249  22231476.3094   22231482.1104
  20005732.438   -27638793.94949 -21518016.09249  20005731.4504   20005736.8874
  18916406.585   -17846812.35949 -13892734.62649  18916406.2344   18916411.5174
  19108680.120   -10641830.02949  -8280426.86149  19108679.7464   19108685.0574
  19495112.731   -27702702.23549 -20977521.11749  19495112.9744   19495116.7104
 98  2  4 18 56 29.9940000  0  8 27 10  2  3 31 19 18 13
  20430714.588   -27937481.92049 -21754511.08949  20430714.3614   20430719.3244
  22186609.942   -13597332.38449 -10571656.52049  22186609.1904   22186616.6794
  21554417.475   -12318282.38449  -8984646.60649  21554416.7484   21554423.6644
  22236277.056   -11072193.27349  -8609851.61249  22236277.5454   22236282.0634
  19996403.237   -27687818.84149 -21556217.29349  19996402.1794   19996407.7674
  18908515.475   -17888280.38849 -13925047.38649  18908515.2174   18908520.3464
  19113272.801   -10617695.35949  -8261620.65749  19113272.3874   19113277.7804
  19476574.491   -27800121.63949 -21053432.33249  19476574.5884   19476578.5164
 98  2  4 18 56 59.9940000  0  8 27 10  2  3 31 19 18 13
  20412582.422   -28032766.86549 -21828759.06649  20412581.6244   20412587.6844
  22177242.655   -13646558.46849 -10610014.52249  22177241.2454   22177249.5724
  21534584.132   -12422507.12749  -9065860.63949  21534582.8984   21534590.6014
  22241165.119   -11046506.23549  -8589835.76149  22241166.0814   22241171.0434
  19987191.733   -27736225.44549 -21593936.69249  19987191.7154   19987196.3994
  18900660.415   -17929558.88849 -13957212.45349  18900660.1754   18900665.2584
  19117956.851   -10593080.36249  -8242440.16149  19117956.4644   19117961.9724
  19458104.205   -27897183.78049 -21129065.15649  19458104.1654   19458108.2194
 98  2  4 18 57 29.9940000  0  8 27 10  2  3 31 19 18 13
  20394471.470   -28127940.30249 -21902920.16449  20394471.1314   20394476.2504
  22167980.986   -13695229.42549 -10647939.96149  22167979.4574   22167987.1024
  21514801.465   -12526465.55349  -9146867.16049  21514800.7634   21514807.7154
  22246148.119   -11020320.57549  -8569431.38449  22246148.7824   22246154.4524
  19978105.982   -27783971.67749 -21631141.52249  19978104.9764   19978110.6094
  18892851.315   -17970596.12649 -13989189.52649  18892851.0314   18892856.0794
  19122740.963   -10567939.78749  -8222850.13649  19122740.5224   19122745.9484
  19439707.554   -27993858.65549 -21204396.21549  19439707.6104   19439711.4454
 98  2  4 18 57 59.9940000  0  8 27 10  2  3 31 19 18 13
  20376373.126   -28223047.70349 -21977029.79549  20376372.6014   20376378.1124
  22158817.970   -13743380.82249 -10685460.54649  22158817.0504   22158823.9864
  21495061.453   -12630199.87849  -9227699.05749  21495060.5694   21495067.8074
  22251216.675   -10993685.14849  -8548676.54249  22251217.1934   22251222.5464
  19969133.846   -27831120.36049 -21667880.73549  19969133.2674   19969138.7784
  18885081.017   -18011429.38849 -14021007.66249  18885080.5314   18885085.6474
  19127614.915   -10542327.08749  -8202892.22349  19127614.7584   19127620.0744
  19421377.007   -28090186.33049 -21279456.72749  19421377.1004   19421380.9734
 98  2  4 18 58 29.9940000  0  8 27 10  2  3 31 19 18 13
  20358288.349   -28318083.69249 -22051083.78349  20358287.6814   20358293.2314
  22149753.487   -13791014.88649 -10722578.00049  22149751.1764   22149759.4894
  21475364.698   -12733706.69649  -9308353.67149  21475364.2654   21475371.5224
  22256370.405   -10966602.32849  -8527573.06849  22256370.3854   22256377.2014
  19960270.872   -27877695.57449 -21704173.07049  19960270.2624   19960275.2634
  18877352.720   -18052041.74249 -14052653.66249  18877352.3314   18877357.4364
  19132577.121   -10516250.52449  -8182572.85549  19132576.8634   19132582.2354
  19403114.652   -28186155.70849 -21354238.04549  19403114.9134   19403118.5274
 98  2  4 18 58 59.9940000  0  8 27 10  2  3 31 19 18 13
  20340223.276   -28413016.08149 -22125057.06049  20340222.6074   20340228.5504
  22140791.822   -13838108.40249 -10759274.26549  22140790.6504   22140798.0274
  21455715.124   -12836965.81749  -9388815.28849  21455714.5184   21455721.9164
  22261612.859   -10939053.49249  -8506106.48349  22261613.1564   22261618.6154
  19951521.041   -27923676.03749 -21740001.97249  19951520.1604   19951525.6034
  18869673.498   -18092396.30249 -14084098.78949  18869673.2074   18869678.4024
  19137632.487   -10489684.53949  -8161872.11949  19137632.1734   19137637.4814
  19384928.906   -28281722.43749 -21428705.61349  19384929.0534   19384932.8314
 98  2  4 18 59 29.9940000  0  8 27 10  2  3 31 19 18 13
  20322182.154   -28507822.67249 -22198932.30149  20322181.3974   20322187.0804
  22131934.082   -13884655.73249 -10795544.91449  22131932.0224   22131941.3764
  21436116.572   -12939956.62849  -9469067.81949  21436115.6764   21436122.7764
  22266943.621   -10911040.36249  -8484278.10249  22266942.4174   22266947.9784
  19942885.899   -27969053.98849 -21775361.38349  19942885.3284   19942891.0564
  18862046.656   -18132475.72449 -14115329.51049  18862046.1574   18862051.4854
  19142780.841   -10462629.86449  -8140790.58249  19142780.4194   19142785.7764
  19366825.434   -28376856.85449 -21502836.30649  19366825.4264   19366829.1854
 98  2  4 18 59 59.9940000  0  8 27 10  2  3 31 19 18 13
  20304161.184   -28602523.29149 -22272724.97749  20304160.7224   20304165.8944
  22123177.580   -13930671.52349 -10831401.40949  22123177.0634   22123183.0214
  21416568.530   -13042681.43349  -9549113.08649  21416567.9794   21416574.7194
  22272357.673   -10882589.31849  -8462108.46849  22272357.8674   22272362.3374
  19934364.103   -28013836.20849 -21810256.57349  19934363.4574   19934368.7614
  18854466.797   -18172308.09149 -14146367.71649  18854466.3854   18854471.7204
  19148016.270   -10435117.40149  -8119352.32849  19148015.8144   19148021.0104
  19348802.468   -28471568.03049 -21576637.20549  19348802.4434   19348806.2764
 98  2  4 19  0 29.9940000  0  8 27 10  2  3 31 19 18 13
  20286154.676   -28697148.15849 -22346458.62049  20286154.1984   20286159.5024
  22114516.848   -13976184.57649 -10866866.14349  22114516.2994   22114523.1064
  21397066.920   -13145162.79349  -9628968.64849  21397066.2394   21397073.7774
  22277851.723   -10853718.46649  -8439611.70149  22277850.6054   22277858.1684
  19925956.380   -28058018.95349 -21844684.65249  19925955.8984   19925961.2794
  18846927.411   -18211927.86749 -14177240.26849  18846927.0544   18846932.4604
  19153336.565   -10407158.86149  -8097566.48649  19153336.2014   19153341.6764
  19330856.571   -28565874.06749 -21650122.41349  19330856.4474   19330860.4614
 98  2  4 19  0 59.9940000  0  8 27 10  2  3 31 19 18 13
  20268162.378   -28791698.27349 -22420134.01649  20268161.8844   20268167.1664
  22105955.696   -14021173.90149 -10901922.78449  22105955.3064   22105962.9424
  21377614.267   -13247387.18649  -9708623.98249  21377613.2164   21377620.4224
  22283426.627   -10824421.79749  -8416783.15349  22283424.8264   22283431.7904
  19917668.227   -28101573.58749 -21878623.29349  19917667.5964   19917673.1734
  18839428.437   -18251335.07149 -14207947.18149  18839428.1054   18839433.4314
  19158743.754   -10378744.06849  -8075425.12249  19158743.5284   19158748.8004
  19312990.046   -28659763.13949 -21723282.70849  19312989.9554   19312994.2704
 98  2  4 19  1 29.9940000  0  8 27 10  2  3 31 19 18 13
  20250176.226   -28886216.39649 -22493784.48449  20250175.6554   20250181.2904
  22097489.458   -14065663.69549 -10936590.17049  22097488.5374   22097495.7904
  21358202.677   -13349395.47849  -9788110.92049  21358201.5054   21358209.1504
  22289079.827   -10794713.93349  -8393634.18849  22289078.6424   22289086.5364
  19909495.719   -28144520.31049 -21912088.23749  19909495.1334   19909500.3724
  18831963.901   -18290561.50549 -14238513.23249  18831963.7834   18831968.6284
  19164232.402   -10349901.31749  -8052950.28549  19164232.1284   19164237.5264
  19295196.056   -28753271.04549 -21796145.98849  19295195.8344   19295200.1474
 98  2  4 19  1 59.9940000  0  8 27 10  2  3 31 19 18 13
  20232199.982   -28980682.13749 -22567394.13549  20232199.3804   20232205.0894
  22089122.960   -14109629.15349 -10970849.00849  22089122.7694   22089130.3954
  21338835.169   -13451172.08049  -9867417.32849  21338834.0434   21338841.8234
  22294821.106   -10764543.52949  -8370124.77449  22294819.9974   22294827.2624
  19901447.062   -28186816.04349 -21945045.92749  19901446.3654   19901451.4184
  18824541.472   -18329566.96449 -14268907.09649  18824541.2814   18824546.4934
  19169811.814   -10320581.50849  -8030103.71549  19169811.5364   19169816.9674
  19277478.765   -28846376.05549 -21868695.32549  19277478.7594   19277482.5394
 98  2  4 19  2 29.9940000  0  8 27 10  2  3 31 19 18 13
  20214232.809   -29075100.23449 -22640966.65449  20214232.2184   20214237.6424
  22080852.559   -14153089.99049 -11004714.60249  22080851.3754   22080859.3734
  21319507.951   -13552737.42049  -9946559.12749  21319507.4124   21319513.7734
  22300646.934   -10733928.83649  -8346269.20549  22300646.1044   22300652.7984
  19893517.946   -28228483.64149 -21977514.16149  19893517.0954   19893522.3684
  18817160.878   -18368352.18949 -14299129.35049  18817160.4514   18817165.7694
  19175480.770   -10290791.25449  -8006890.57249  19175480.5814   19175485.8954
  19259837.213   -28939083.00549 -21940934.49049  19259837.2924   19259841.0664
 98  2  4 19  2 59.9940000  0  8 27 10  2  3 31 19 18 13
  20196281.041   -29169437.46949 -22714476.15949  20196280.4064   20196286.1374
  22072681.172   -14196031.31449 -11038175.38849  22072680.3814   22072687.6474
  21300223.223   -13654079.42549 -10025526.88549  21300223.0824   21300229.7524
  22306558.169   -10702865.19449  -8322063.77049  22306558.1014   22306564.6464
  19885708.000   -28269525.25449 -22009494.60749  19885707.0814   19885712.4334
  18809825.901   -18406897.73949 -14329164.83649  18809825.6694   18809830.9674
  19181238.474   -10260534.68449  -7983314.06149  19181238.1554   19181243.4564
  19242274.922   -29031373.31649 -22012848.99249  19242275.0904   19242279.1194
 98  2  4 19  3 29.9940000  0  8 27 10  2  3 31 19 18 13
  20178346.404   -29263684.32349 -22787915.24249  20178345.5024   20178351.4064
  22064607.293   -14238459.42249 -11071236.26149  22064606.9104   22064613.6424
  21280981.422   -13755195.82849 -10104318.84649  21280980.4844   21280987.6114
  22312554.127   -10671356.38949  -8297511.46249  22312551.4324   22312562.3604
  19878016.165   -28309945.99249 -22040991.26249  19878015.5764   19878020.8554
  18802534.244   -18445215.67349 -14359022.95949  18802534.0274   18802539.1994
  19187082.631   -10229823.66949  -7959383.43949  19187082.4294   19187087.8534
  19224788.533   -29123264.88749 -22084452.79349  19224788.4964   19224792.4164
 98  2  4 19  3 59.9940000  0  8 27 10  2  3 31 19 18 13
  20160431.642   -29357826.78049 -22861272.97049  20160431.1644   20160436.5274
  22056632.913   -14280365.28449 -11103890.16049  22056632.8814   22056640.1614
  21261787.205   -13856062.28949 -10182916.04449  21261786.0924   21261793.5254
  22318630.342   -10639425.11949  -8272629.92149  22318628.8554   22318636.1784
  19870440.570   -28349755.87249 -22072011.93749  19870439.7014   19870445.5534
  18795282.921   -18483321.57149 -14388715.85849  18795282.6174   18795287.8534
  19193010.543   -10198672.56449  -7935109.88549  19193010.4354   19193015.8334
  19207377.990   -29214757.70749 -22155745.87649  19207378.1394   19207381.9694
 98  2  4 19  4 29.9940000  0  8 27 10  2  3 31 19 18 13
  20142544.759   -29451823.02049 -22934516.76649  20142544.1674   20142549.6394
  22048766.523   -14321703.55949 -11136101.79949  22048765.3974   22048772.1534
  21242648.809   -13956635.16249 -10261284.48449  21242647.8814   21242655.0674
  22324791.407   -10607048.13949  -8247401.11649  22324789.7404   22324797.4804
  19862985.033   -28388934.93549 -22102541.07149  19862984.5824   19862989.5624
  18788074.956   -18521199.41849 -14418231.05549  18788074.5874   18788079.7604
  19199025.792   -10167062.64349  -7910478.81349  19199025.4414   19199030.7434
  19190050.843   -29305812.45349 -22226697.60849  19190050.7944   19190054.8784
 98  2  4 19  4 59.9940000  0  8 27 10  2  3 31 19 18 13
  20124675.801   -29545725.05149 -23007687.14749  20124675.3674   20124680.8824
  22041000.521   -14362514.19549 -11167902.30849  22040999.7834   22041007.7324
  21223559.779   -14056948.47249 -10339450.65649  21223558.6864   21223566.4684
  22331030.444   -10574261.57349  -8221853.17149  22331031.6584   22331038.6024
  19855643.187   -28427516.43349 -22132604.57049  19855642.7554   19855647.9874
  18780899.247   -18558907.93449 -14447614.30949  18780899.0544   18780904.1644
  19205121.493   -10135029.78449  -7885518.18049  19205121.3614   19205126.4734
  19172796.398   -29396485.04749 -22297351.56049  19172796.5094   19172800.3894
 98  2  4 19  5 29.9940000  0  8 27 10  2  3 31 19 18 13
  20106829.959   -29639505.46949 -23080762.76649  20106829.4424   20106834.9894
  22033342.275   -14402759.19049 -11199262.04949  22033341.2554   22033348.3524
  21204527.785   -14156961.92449 -10417383.17049  21204526.7524   21204534.1764
  22337353.734   -10541032.49849  -8195960.36449  22337354.8814   22337360.7024
  19848422.409   -28465461.69449 -22162172.29549  19848421.8334   19848426.8344
  18773759.739   -18596426.43349 -14476849.49849  18773759.3774   18773764.4014
  19211307.016   -10102524.81549  -7860189.66849  19211306.7094   19211311.9074
  19155621.538   -29486739.51649 -22367679.69449  19155621.6094   19155625.5454
 98  2  4 19  5 59.9940000  0  8 27 10  2  3 31 19 18 13
  20088993.496   -29733236.63349 -23153800.00849  20088993.2294   20088998.2614
  22025778.681   -14442506.75749 -11230234.20049  22025778.7514   22025784.6324
  21185538.062   -14256753.24349 -10495142.59649  21185537.3284   21185544.1334
  22343747.445   -10507433.26949  -8169779.18849  22343747.9254   22343751.0934
  19841308.775   -28502844.21349 -22191301.53049  19841308.4184   19841313.3054
  18766643.735   -18633821.46549 -14505988.47949  18766643.5034   18766648.4414
  19217571.945   -10069602.52749  -7834535.96949  19217571.6224   19217577.2704
  19138516.734   -29576625.88649 -22437721.00649  19138517.1004   19138520.7364
 98  2  4 19  6 29.9940000  0  8 27 10  2  3 31 19 18 13
  20071183.709   -29826827.69349 -23226728.07649  20071183.2494   20071188.8274
  22018325.387   -14481674.94249 -11260754.88649  22018324.6514   22018331.1864
  21166606.387   -14356239.31749 -10572664.16849  21166605.3144   21166612.5174
  22350231.229   -10473360.75249  -8143229.19849  22350230.6974   22350237.8354
  19834323.984   -28539549.68749 -22219903.20149  19834323.3444   19834328.2804
  18759572.650   -18670980.14949 -14534943.29449  18759572.2684   18759577.4224
  19223937.813   -10036149.68049  -7808468.85149  19223937.5954   19223943.0304
  19121500.550   -29666046.51949 -22507399.41149  19121500.5814   19121504.4984
 98  2  4 19  6 59.9940000  0  8 27 10  2  3 31 19 18 13
  20053391.588   -29920325.75349 -23299583.66149  20053390.6874   20053396.2444
  22010971.974   -14520317.37049 -11290865.88449  22010971.7614   22010977.9644
  21147722.973   -14455472.34849 -10649988.55449  21147721.9274   21147729.3614
  22356794.370   -10438871.13149  -8116354.14949  22356794.7434   22356801.4884
  19827461.252   -28575613.55849 -22248004.92049  19827460.3454   19827465.4174
  18752539.209   -18707941.08549 -14563744.01149  18752538.8674   18752544.2964
  19230395.483   -10002214.41049  -7782025.81249  19230395.2144   19230400.4104
  19104563.810   -29755049.65749 -22576752.48649  19104564.2254   19104567.5984
 98  2  4 19  7 29.9940000  0  8 27 10  2  3 31 19 18 13
  20035623.526   -30013697.11849 -23372340.53849  20035622.8874   20035628.7624
  22003724.542   -14558402.81649 -11320542.87149  22003722.8104   22003731.2374
  21128892.427   -14554427.48049 -10727096.40149  21128891.7234   21128898.7344
  22363442.876   -10403933.86149  -8089130.32049  22363442.4314   22363447.3624
  19820726.543   -28611004.53649 -22275582.31349  19820725.7774   19820731.1634
  18745554.069   -18744648.17449 -14592346.93349  18745553.6134   18745558.8854
  19236949.535    -9967772.88849  -7755188.29749  19236949.3074   19236954.6164
  19087713.280   -29843599.63649 -22645752.45749  19087713.3414   19087717.2434
 98  2  4 19  7 59.9940000  0  8 27 10  2  3 31 19 18 13
  20017863.154   -30107028.52549 -23445066.27149  20017862.7024   20017868.0334
  21996566.182   -14596019.26949 -11349854.43049  21996564.8454   21996573.3484
  21110097.621   -14653194.59149 -10804057.73649  21110096.9244   21110103.7154
  22370162.147   -10368623.46749  -8061615.75149  22370160.0304   22370169.8044
  19814106.328   -28645794.03449 -22302691.01749  19814105.8204   19814110.5874
  18738608.569   -18781146.90749 -14620787.49749  18738608.0824   18738613.5594
  19243583.838    -9932909.56749  -7728022.10649  19243583.1754   19243588.8064
  19070934.192   -29931774.17949 -22714459.87549  19070934.4374   19070938.0494
 98  2  4 19  8 29.9940000  0  8 27 10  2  3 31 19 18 13
  20000125.565   -30200239.95849 -23517698.51849  20000124.5524   20000130.3104
  21989509.805   -14633101.07149 -11378749.34949  21989509.3194   21989516.8594
  21091351.959   -14751703.47849 -10880817.85649  21091350.9624   21091357.8934
  22376966.253   -10332867.76349  -8033754.16049  22376965.5294   22376974.3204
  19807614.166   -28679910.48649 -22329275.28049  19807613.5444   19807618.3684
  18731718.667   -18817353.75449 -14649000.62049  18731718.5214   18731723.7184
  19250309.351    -9897566.82549  -7700482.33949  19250309.0484   19250314.5854
  19054241.286   -30019495.95549 -22782814.49249  19054241.4234   19054245.3874
 98  2  4 19  8 59.9940000  0  8 27 10  2  3 31 19 18 13
  19982404.575   -30293363.75949 -23590262.47949  19982403.6704   19982409.7064
  21982548.955   -14669681.65449 -11407253.71649  21982546.4904   21982555.2134
  21072649.192   -14849987.00849 -10957402.37349  21072648.7694   21072655.4934
  22383847.675   -10296705.95549  -8005576.15649  22383847.6554   22383853.9924
  19801239.461   -28713409.64749 -22355378.53449  19801238.6984   19801244.0534
  18724877.705   -18853303.26749 -14677013.22049  18724877.2574   18724882.4684
  19257115.103    -9861802.22349  -7672613.84749  19257114.9074   19257120.2064
  19037630.387   -30106786.68849 -22850833.22749  19037630.4634   19037634.2734
 98  2  4 19  9 29.9940000  0  8 27 10  2  3 31 19 18 13
  19964698.133   -30386411.75149 -23662767.37249  19964697.4484   19964703.1194
  21975678.595   -14705784.45649 -11435385.80449  21975677.4954   21975685.3384
  21053988.717   -14948048.24649 -11033813.67149  21053988.1274   21053994.8554
  22390802.401   -10260158.69449  -7977097.77249  22390802.3904   22390809.6164
  19794976.668   -28746320.74949 -22381023.55849  19794976.1234   19794981.0504
  18718084.212   -18889003.22249 -14704831.35449  18718083.8704   18718088.8154
  19263998.797    -9825628.39449  -7644426.48049  19263998.5014   19264004.0594
  19021100.157   -30193653.70149 -22918521.78849  19021100.2364   19021104.1274
 98  2  4 19  9 59.9940000  0  8 27 10  2  3 31 19 18 13
  19947008.550   -30479371.19449 -23735203.26449  19947008.0144   19947013.4344
  21968897.214   -14741420.44849 -11463154.11549  21968897.2994   21968904.1314
  21035369.569   -15045892.42549 -11110055.83849  21035368.8574   21035376.0514
  22397830.453   -10223225.91249  -7948318.98949  22397831.0844   22397836.6144
  19788824.154   -28778652.46049 -22406217.11749  19788823.2734   19788828.6924
  18711336.003   -18924465.22449 -14732464.07849  18711335.6324   18711340.7254
  19270959.650    -9789049.27549  -7615923.31049  19270959.2034   19270964.7604
  19004652.254   -30280088.01449 -22985873.18449  19004652.3634   19004656.1004
 98  2  4 19 10 29.9940000  0  8 27 10  2  3 31 19 18 13
  19929344.158   -30572198.32349 -23807536.06349  19929343.5534   19929349.2534
  21962212.360   -14776549.99849 -11490527.81149  21962212.4974   21962219.5304
  21016799.141   -15143480.52149 -11186098.46149  21016798.0934   21016804.9754
  22404936.317   -10185884.68049  -7919221.95249  22404936.6754   22404943.0024
  19782784.112   -28810393.15849 -22430950.14249  19782783.4144   19782788.8934
  18704635.556   -18959676.38949 -14759901.34249  18704635.3004   18704640.3334
  19278001.449    -9752044.55449  -7587088.50849  19278001.2674   19278006.6044
  18988292.942   -30366056.78549 -23052861.82249  18988292.8984   18988296.6744
 98  2  4 19 10 59.9940000  0  8 27 10  2  3 31 19 18 13
  19911702.538   -30664905.43149 -23879775.33749  19911701.8464   19911707.2724
  21955625.448   -14811164.37349 -11517500.06649  21955624.4674   21955631.7994
  20998277.704   -15240811.17049 -11261940.47749  20998276.6464   20998284.1084
  22412119.025   -10148139.29749  -7889809.94549  22412117.7844   22412125.0234
  19776855.508   -28841548.53549 -22455227.07549  19776855.2284   19776860.6884
  18697981.008   -18994646.28849 -14787150.60449  18697980.6274   18697985.7994
  19285123.404    -9714618.64349  -7557925.50149  19285122.9574   19285128.8164
  18972020.424   -30451569.25849 -23119494.90049  18972020.5234   18972024.3424
 98  2  4 19 11 29.9940000  0  8 27 10  2  3 31 19 18 13
  19894080.706   -30757508.77249 -23951933.76049  19894080.2854   19894085.6814
  21949134.980   -14845272.15649 -11544077.56849  21949134.0814   21949141.1384
  20979800.269   -15337910.53249 -11337602.26449  20979799.2374   20979806.3904
  22419377.024   -10109997.34149  -7860088.96149  22419377.5284   22419382.6834
  19771037.295   -28872123.72949 -22479051.89649  19771036.8264   19771041.9924
  18691367.142   -19029402.41349 -14814233.29549  18691366.9964   18691372.1054
  19292325.812    -9676769.83449  -7528432.96849  19292325.4114   19292331.0514
  18955830.523   -30536647.48749 -23185789.60749  18955830.6524   18955834.5234
 98  2  4 19 11 59.9940000  0  8 27 10  2  3 31 19 18 13
  19876474.445   -30850030.19349 -24024028.34649  19876473.6844   19876479.1374
  21942742.601   -14878864.91349 -11570253.78649  21942741.8464   21942750.4514
  20961361.460   -15434807.07649 -11413106.01849  20961361.0724   20961367.3204
  22426709.525   -10071465.18449  -7830063.89949  22426709.8524   22426715.3194
  19765330.116   -28902115.24749 -22502421.90749  19765329.2574   19765334.4254
  18684787.610   -19063978.16549 -14841175.43149  18684787.2414   18684792.3744
  19299605.042    -9638516.95049  -7498625.57049  19299604.6424   19299610.3394
  18939721.292   -30621301.99549 -23251754.14149  18939721.3944   18939725.0494
 98  2  4 19 12 29.9940000  0  8 27 10  2  3 31 19 18 13
  19858887.657   -30942449.10049 -24096043.05249  19858886.8994   19858892.1684
  21936457.259   -14911895.03349 -11595991.57149  21936456.7574   21936464.0584
  20942971.119   -15531448.69349 -11488411.12349  20942970.5734   20942977.1554
  22434118.582   -10032530.53849  -7799725.20649  22434119.1034   22434123.9854
  19759741.928   -28931481.24049 -22525304.48349  19759741.4264   19759746.3754
  18678248.340   -19098342.13649 -14867952.54649  18678248.0484   18678253.1244
  19306964.647    -9599841.94049  -7468489.24549  19306964.2174   19306970.1864
  18923699.764   -30705495.85849 -23317359.73549  18923699.7654   18923703.4864
 98  2  4 19 12 59.9940000  0  8 27 10  2  3 31 19 18 13
  19841317.658   -31034779.70349 -24167988.95149  19841317.2624   19841322.4844
  21930272.833   -14944394.94049 -11621316.22849  21930272.6084   21930279.3684
  20924628.507   -15627839.83049 -11563521.04649  20924627.2324   20924634.6334
  22441601.482    -9993207.82149  -7769084.17949  22441600.7834   22441606.5344
  19754275.015   -28960210.25449 -22547690.71249  19754274.1714   19754279.9194
  18671746.679   -19132508.44049 -14894575.63849  18671746.2694   18671751.3334
  19314404.461    -9560745.58049  -7438024.59849  19314404.1364   19314409.9264
  18907763.469   -30789241.60049 -23382616.14449  18907763.6384   18907767.4254
 98  2  4 19 13 29.9940000  0  8 27 10  2  3 31 19 18 13
  19823761.687   -31127036.84549 -24239877.60249  19823761.0864   19823766.4404
  21924182.551   -14976399.93349 -11646255.19749  21924181.1554   21924188.9034
  20906330.829   -15723994.49949 -11638446.70949  20906329.8794   20906337.0624
  22449153.102    -9953524.29249  -7738161.94149  22449151.1464   22449160.3224
  19748928.338   -28988306.66349 -22569584.00549  19748927.3724   19748932.8004
  18665278.967   -19166496.51949 -14921059.85049  18665278.7564   18665283.9284
  19321920.537    -9521248.59649  -7407247.77449  19321920.1734   19321925.7984
  18891908.875   -30872558.18549 -23447538.14649  18891909.0544   18891912.6964
 98  2  4 19 13 59.9930000  0  8 27 10  2  3 31 19 18 13
  19806228.828   -31219172.78549 -24311671.80449  19806228.1744   19806233.6184
  21918190.519   -15007887.56249 -11670791.03049  21918189.5334   21918197.8364
  20888089.087   -15819855.10749 -11713143.23149  20888088.4074   20888095.3604
  22456776.710    -9913462.19749  -7706944.72949  22456775.1984   22456780.8664
  19743707.455   -29015742.62249 -22590962.64649  19743706.8464   19743712.5564
  18658855.839   -19200250.48449 -14947361.63949  18658855.3734   18658860.4504
  19329515.806    -9481335.29549  -7376146.53849  19329515.7154   19329521.0974
  18876143.021   -30955408.51449 -23512096.82749  18876143.3284   18876146.9754
 98  2  4 19 14 29.9930000  0  8 27 10  2  3 31 19 18 13
  19788718.312   -31311191.23449 -24383374.46749  19788717.5964   19788723.0384
  21912290.398   -15038893.32649 -11694951.39849  21912289.0184   21912297.0334
  20869904.147   -15915417.29949 -11787607.22849  20869903.2374   20869910.3344
  22464471.846    -9873024.15549  -7675434.60949  22464473.5994   22464477.4084
  19738608.098   -29042540.07949 -22611843.74649  19738607.2874   19738612.9924
  18652478.634   -19233762.86749 -14973475.18549  18652478.2184   18652483.5974
  19337191.078    -9441001.76249  -7344717.85949  19337190.8814   19337196.2264
  18860462.620   -31037809.53249 -23576305.40049  18860462.6834   18860466.3364
 98  2  4 19 14 59.9930000  0  8 27 10  2  3 31 19 18 13
  19771226.512   -31403111.06249 -24455000.28649  19771226.1454   19771231.2464
  21906476.115   -15069446.84149 -11718759.36449  21906474.1544   21906481.9924
  20851768.100   -16010722.54449 -11861871.00849  20851767.1724   20851774.1974
  22472237.550    -9832214.55449  -7643634.91849  22472238.0134   22472244.1654
  19733626.097   -29068720.62649 -22632244.12849  19733625.6654   19733630.5794
  18646141.888   -19267062.61349 -14999423.03749  18646141.4754   18646146.6964
  19344945.467    -9400252.49949  -7312965.23449  19344945.1634   19344950.8804
  18844861.596   -31119793.51849 -23640189.01349  18844861.5744   18844865.3914
 98  2  4 19 15 29.9930000  0  8 27 10  2  3 31 19 18 13
  19753758.698   -31494904.95149 -24526527.96249  19753758.1684   19753763.4824
  21900759.172   -15099489.48549 -11742169.26249  21900757.5314   21900764.9104
  20833684.325   -16105752.99249 -11935920.65049  20833683.6314   20833690.7274
  22480080.294    -9791000.14449  -7611519.90849  22480080.7644   22480083.1154
  19728764.893   -29094266.49049 -22652149.95749  19728764.2314   19728769.4394
  18639852.389   -19300113.81049 -15025177.21449  18639852.0694   18639857.4274
  19352784.932    -9359056.08349  -7280864.17349  19352784.4364   19352790.4094
  18829348.541   -31201315.01449 -23703712.23849  18829348.6034   18829352.3594
 98  2  4 19 15 59.9930000  0  8 27 10  2  3 31 19 18 13
  19736313.327   -31586580.57149 -24597963.48249  19736312.7354   19736318.2294
  21895141.069   -15129013.38749 -11765174.95549  21895140.1704   21895147.9384
  20815651.126   -16200518.11349 -12009763.55349  20815650.4254   20815657.4854
  22488000.329    -9749380.07149  -7579088.64349  22487999.4224   22488005.4784
  19724021.605   -29119192.34449 -22671572.66349  19724020.4954   19724026.0474
  18633611.424   -19332910.39049 -15050732.99049  18633611.0794   18633616.3784
  19360709.964    -9317409.78949  -7248412.56949  19360709.6604   19360715.4414
  18813925.692   -31282362.50849 -23766866.11749  18813925.6604   18813929.4364
 98  2  4 19 16 29.9930000  0  8 27 10  2  3 31 19 18 13
  19718885.433   -31678164.83449 -24669327.81749  19718884.9304   19718890.2464
  21889623.171   -15158010.51049 -11787770.14749  21889622.8194   21889629.6814
  20797664.389   -16295039.09149 -12083416.21549  20797663.3274   20797670.0974
  22495997.476    -9707355.84649  -7546342.47449  22495996.2364   22496004.3374
  19719398.036   -29143489.18149 -22690505.21949  19719397.3954   19719402.6294
  18627415.699   -19365469.12649 -15076103.43249  18627415.3294   18627420.3414
  19368720.549    -9275314.09949  -7215610.78349  19368720.3544   19368726.0374
  18798593.806   -31362932.11949 -23829647.61949  18798593.8244   18798597.6644
 98  2  4 19 16 59.9930000  0  8 27 10  2  3 31 19 18 13
  19701470.595   -31769680.19749 -24740638.47149  19701469.8064   19701475.5634
  21884208.327   -15186466.74649 -11809943.84849  21884207.2794   21884214.7004
  20779718.540   -16389344.85049 -12156901.17049  20779717.4514   20779724.2634
  22504066.467    -9664953.32249  -7513301.51549  22504063.5914   22504071.6654
  19714893.282   -29167161.70749 -22708951.30649  19714892.5344   19714897.4644
  18621263.979   -19397796.63949 -15101293.70349  18621263.5284   18621268.7064
  19376812.129    -9232792.89849  -7182477.43549  19376811.6924   19376817.5144
  18783353.749   -31443018.82749 -23892052.83449  18783353.6954   18783357.5054
 98  2  4 19 17 29.9930000  0  8 27 10  2  3 31 19 18 13
  19684066.117   -31861141.31549 -24811906.84349  19684065.5054   19684070.8014
  21878892.268   -15214402.48649 -11831712.00049  21878891.7484   21878899.6254
  20761811.744   -16483445.60749 -12230226.38649  20761810.9974   20761817.3324
  22512198.684    -9622218.19149  -7480001.46149  22512197.8904   22512202.5424
  19710502.652   -29190234.55249 -22726930.10049  19710501.6244   19710506.9894
  18615156.247   -19429892.96349 -15126303.82049  18615155.7964   18615161.1884
  19384975.969    -9189892.04449  -7149048.25249  19384975.6114   19384981.3324
  18768204.314   -31522629.78249 -23954087.32349  18768204.4924   18768208.0744
 98  2  4 19 17 59.9930000  0  8 27 10  2  3 31 19 18 13
  19666681.815   -31952496.10249 -24883092.36049  19666681.3804   19666686.5224
  21873680.655   -15241788.75049 -11853051.99849  21873681.9254   21873688.0024
  20743953.773   -16577289.97749 -12303351.82349  20743953.0204   20743959.5104
  22520402.131    -9579108.80849  -7446409.71949  22520402.6704   22520408.8584
  19706235.766   -29212656.90749 -22744402.02749  19706234.8574   19706239.6004
  18609100.698   -19461715.04149 -15151100.24249  18609100.4984   18609105.3924
  19393217.828    -9146580.85749  -7115299.33749  19393217.5654   19393222.9494
  18753150.546   -31601737.84849 -24015729.95949  18753150.6244   18753154.3044
 98  2  4 19 18 29.9930000  0  8 27 10  2  3 31 19 18 13
  19649320.923   -32043728.06049 -24954182.17149  19649320.3394   19649325.7204
  21868573.360   -15268629.44049 -11873966.83049  21868574.6314   21868580.0984
  20726144.108   -16670880.23749 -12376279.25049  20726143.3404   20726150.4324
  22528675.185    -9535633.93649  -7412533.18549  22528675.8024   22528680.4334
  19702093.723   -29234423.33549 -22761362.85049  19702093.2854   19702098.2704
  18603095.870   -19493270.73449 -15175689.08749  18603095.4154   18603100.5104
  19401537.856    -9102858.82249  -7081230.28149  19401537.1954   19401543.2944
  18738189.895   -31680356.63049 -24076991.33049  18738189.9614   18738193.6994
 98  2  4 19 18 59.9930000  0  8 27 10  2  3 31 19 18 13
  19631981.141   -32134849.25149 -25025185.67049  19631980.5534   19631985.8604
  21863558.189   -15294985.71749 -11894504.18949  21863557.6644   21863562.6624
  20708376.298   -16764250.45349 -12449035.20849  20708375.2704   20708382.1984
  22537009.578    -9491836.56449  -7378405.40149  22537009.1634   22537013.7004
  19698066.255   -29255587.70949 -22777854.53949  19698065.8434   19698070.4974
  18597133.728   -19524601.82549 -15200102.91649  18597133.3824   18597138.5794
  19409928.911    -9058763.37049  -7046870.24949  19409928.5364   19409934.6664
  18723313.392   -31758533.26449 -24137908.16949  18723313.4804   18723316.9924
 98  2  4 19 19 29.9930000  0  8 27 10  2  3 31 19 18 13
  19614673.944   -32225799.15649 -25096055.70249  19614673.3844   19614678.6334
  21858639.302   -15320834.26349 -11914645.94349  21858636.6614   21858644.1264
  20690661.146   -16857343.93749 -12521575.54449  20690660.2944   20690667.0234
  22545415.796    -9447661.68649  -7343983.38349  22545414.3844   22545421.6584
  19694161.269   -29276108.69849 -22793844.90049  19694160.6864   19694165.4514
  18591221.409   -19555671.16049 -15224312.78149  18591221.1754   18591226.2334
  19418400.649    -9014244.30249  -7012180.13449  19418400.2814   19418406.2714
  18708526.916   -31836236.57849 -24198456.19549  18708527.0864   18708530.5664
 98  2  4 19 19 59.9930000  0  8 27 10  2  3 31 19 18 13
  19597391.699   -32316617.95549 -25166823.56549  19597391.2784   19597396.4824
  21853806.972   -15346226.20549 -11934431.91249  21853804.6664   21853812.5304
  20672992.808   -16950191.66749 -12593924.37549  20672992.0254   20672998.6984
  22553890.143    -9403127.97449  -7309281.80249  22553889.9374   22553894.9694
  19690370.589   -29296028.78549 -22809367.01949  19690370.1404   19690374.9154
  18585350.437   -19586523.47349 -15248353.54249  18585350.1304   18585355.1774
  19426948.587    -8969324.86249  -6977178.03749  19426948.2944   19426954.2454
  18693824.090   -31913500.36349 -24258661.73249  18693824.0954   18693827.5944
 98  2  4 19 20 29.9930000  0  8 27 10  2  3 31 19 18 13
  19580131.151   -32407322.37449 -25237502.30649  19580130.7284   19580135.5204
  21849059.742   -15371173.07249 -11953871.08049  21849058.7114   21849065.4104
  20655369.824   -17042800.80449 -12666087.29249  20655369.0564   20655375.9054
  22562430.193    -9358248.92149  -7274311.13949  22562427.5764   22562436.8204
  19686690.872   -29315365.73349 -22824434.74749  19686690.2484   19686695.1484
  18579520.729   -19617158.64849 -15272225.10049  18579520.2764   18579525.3404
  19435571.610    -8924010.73449  -6941868.38949  19435571.0744   19435577.2924
  18679204.921   -31990324.58149 -24318524.75149  18679204.9854   18679208.6404
 98  2  4 19 20 59.9930000  0  8 27 10  2  3 31 19 18 13
  19562896.508   -32497890.90449 -25308075.15549  19562895.9594   19562901.0554
  21844402.841   -15395645.39049 -11972940.44449  21844402.3654   21844410.2194
  20637800.240   -17135129.22049 -12738031.47449  20637799.5994   20637806.0474
  22571043.312    -9312986.51449  -7239041.70949  22571042.6224   22571048.5094
  19683128.474   -29334086.50349 -22839022.34849  19683127.8744   19683132.8094
  18573740.303   -19647534.78649 -15295894.81149  18573739.9474   18573745.2584
  19444273.551    -8878281.92049  -6906235.60949  19444273.2404   19444279.0424
  18664679.439   -32066656.29249 -24378003.99549  18664679.5914   18664683.1624
 98  2  4 19 21 29.9930000  0  8 27 10  2  3 31 19 18 13
  19545682.520   -32588351.03449 -25378563.53449  19545681.9664   19545687.0934
  21839837.459   -15419637.69749 -11991635.77049  21839836.8864   21839845.2214
  20620281.310   -17227191.70149 -12809768.42749  20620280.5374   20620287.2194
  22579726.154    -9267357.34249  -7203486.54949  22579725.9014   22579732.3334
  19679682.788   -29352193.61949 -22853131.78649  19679682.0004   19679687.1964
  18568008.816   -19677654.05449 -15319364.36449  18568008.4854   18568013.7594
  19453051.473    -8832153.89949  -6870291.76149  19453051.1334   19453056.8014
  18650246.640   -32142501.09349 -24437103.82649  18650246.5334   18650250.3764
 98  2  4 19 21 59.9930000  0  8 27 10  2  3 31 19 18 13
  19528492.139   -32678686.75149 -25448954.97249  19528491.5074   19528496.5044
  21835369.039   -15443118.63749 -12009932.64549  21835367.1904   21835376.0954
  20602813.251   -17318986.85149 -12881297.07049  20602812.4704   20602819.1684
  22588479.709    -9221357.11749  -7167642.21949  22588480.2614   22588485.8124
  19676356.844   -29369671.32349 -22866750.77449  19676355.9824   19676361.1784
  18562329.076   -19707501.39749 -15342622.02549  18562328.7374   18562333.9594
  19461909.034    -8785607.23549  -6834021.69749  19461909.0114   19461914.6054
  18635910.365   -32217838.55149 -24495808.32649  18635910.4584   18635914.1484
 98  2  4 19 22 29.9930000  0  8 27 10  2  3 31 19 18 13
  19511327.244   -32768888.69849 -25519242.17449  19511326.5304   19511331.9294
  21831003.483   -15466058.84549 -12027808.18549  21831003.3514   21831009.3684
  20585394.317   -17410523.71049 -12952624.45049  20585393.5394   20585400.1054
  22597304.632    -9174982.65049  -7131506.30949  22597305.0414   22597311.4724
  19673155.196   -29386495.89349 -22879860.83049  19673154.4694   19673159.3144
  18556701.712   -19737073.45349 -15365665.18549  18556701.4534   18556706.1534
  19470848.859    -8738628.67449  -6797415.10049  19470848.4624   19470854.3954
  18621672.344   -32292659.78849 -24554110.58249  18621672.2954   18621676.1884
 98  2  4 19 22 59.9930000  0  8 27 10  2  3 31 19 18 13
  19494176.583   -32859015.64449 -25589470.92749  19494176.1834   19494181.4184
  21826728.801   -15488523.39249 -12045313.04949  21826729.2704   21826735.1304
  20568012.064   -17501868.09249 -13023801.83649  20568011.3024   20568017.6444
  22606188.335    -9128298.98549  -7095129.41849  22606187.5624   22606194.5554
  19670066.601   -29402726.62249 -22892508.14149  19670066.3364   19670070.9574
  18551111.181   -19766451.88249 -15388557.46449  18551110.8334   18551115.9234
  19479856.643    -8691292.53549  -6760529.86149  19479856.4764   19479862.4864
  18607519.539   -32367033.09849 -24612063.79749  18607519.7824   18607523.3234
 98  2  4 19 23 29.9930000  0  8 27 10  2  3 31 19 18 13
  19477044.885   -32949043.47049 -25659622.45349  19477044.2734   19477049.3504
  21822549.858   -15510486.00249 -12062426.79949  21822549.1144   21822556.8094
  20550668.985   -17593006.22149 -13094818.51849  20550668.0394   20550674.8404
  22615135.750    -9081280.16349  -7058491.42549  22615133.6694   22615140.8444
  19667094.568   -29418344.70349 -22904678.08549  19667093.9544   19667099.3544
  18545561.412   -19795616.20849 -15411282.90649  18545561.1654   18545566.1474
  19488937.770    -8643571.22049  -6723344.48749  19488937.5194   19488943.1894
  18593454.369   -32440946.24549 -24669658.44649  18593454.4194   18593458.1674
 98  2  4 19 23 59.9930000  0  8 27 10  2  3 31 19 18 13
  19459940.294   -33038928.59549 -25729662.77649  19459939.9144   19459945.0644
  21818471.696   -15531916.99749 -12079126.30449  21818470.4374   21818478.8804
  20533374.627   -17683888.31949 -13165635.68349  20533373.8214   20533380.3834
  22624154.389    -9033886.64549  -7021561.39949  22624153.9144   22624158.6444
  19664247.190   -29433307.58549 -22916337.47149  19664246.7354   19664251.6104
  18540058.515   -19824534.17849 -15433816.37549  18540058.2954   18540063.3174
  19498097.726    -8595435.43249  -6685836.13949  19498097.5584   19498103.6194
  18579485.175   -32514354.81249 -24726859.91149  18579485.2004   18579488.9524
 98  2  4 19 24 29.9930000  0  8 27 10  2  3 31 19 18 13
  19442861.520   -33128678.40249 -25799597.66049  19442860.9474   19442866.0854
  21814490.617   -15552835.78349 -12095426.72649  21814489.6734   21814497.8104
  20516133.014   -17774493.48949 -13236237.06849  20516132.3974   20516138.8024
  22633243.445    -8986123.10349  -6984343.11249  22633243.6214   22633249.3004
  19661524.860   -29447613.54949 -22927484.98849  19661524.2904   19661528.8554
  18534602.839   -19853204.19049 -15456156.63449  18534602.6424   18534607.8474
  19507333.343    -8546902.22749  -6648018.12849  19507332.9044   19507339.1024
  18565614.113   -32587247.69949 -24783659.55449  18565614.1034   18565617.8014
 98  2  4 19 24 59.9930000  0  8 27 10  2  3 31 19 18 13
  19425805.650   -33218307.44649 -25869438.43949  19425805.0354   19425810.4064
  21810601.064   -15573275.73849 -12111354.00949  21810601.9344   21810608.0674
  20498943.579   -17864824.65949 -13306624.94149  20498942.8074   20498949.6844
  22642396.789    -8938020.38149  -6946860.51849  22642396.3454   22642403.3664
  19658922.007   -29461291.80249 -22938143.37149  19658921.2824   19658926.5034
  18529192.701   -19881634.80849 -15478310.36249  18529192.4674   18529197.5734
  19516638.457    -8498003.94249  -6609915.62749  19516638.0434   19516643.9654
  18551840.181   -32659630.13449 -24840061.43849  18551840.1984   18551843.8174
 98  2  4 19 25 29.9930000  0  8 27 10  2  3 31 19 18 13
  19408772.583   -33307816.72449 -25939185.89949  19408772.0874   19408777.1654
  21806799.321   -15593255.15449 -12126922.41449  21806798.9174   21806805.7764
  20481804.327   -17954891.91649 -13376807.16249  20481803.3134   20481810.1454
  22651610.838    -8889600.59149  -6909130.83549  22651610.2274   22651617.3834
  19656436.363   -29474353.67549 -22948321.44949  19656435.7634   19656440.8644
  18523828.351   -19909824.60649 -15500276.42949  18523827.8914   18523833.0964
  19526010.425    -8448753.94849  -6571539.06749  19526010.1244   19526015.9534
  18538163.382   -32731502.07249 -24896065.52849  18538163.4564   18538167.0744
 98  2  4 19 25 59.9930000  0  8 27 10  2  3 31 19 18 13
  19391766.341   -33397185.02349 -26008823.50549  19391766.0004   19391770.8984
  21803085.299   -15612772.59749 -12142130.84049  21803084.2194   21803091.0274
  20464719.585   -18044672.99949 -13446766.39749  20464718.6804   20464725.2024
  22660884.317    -8840869.31249  -6871158.43349  22660884.6964   22660890.8924
  19654069.286   -29486792.63549 -22958014.14649  19654068.2724   19654073.5084
  18518510.693   -19937769.04849 -15522051.31149  18518510.3524   18518515.3154
  19535450.029    -8399148.53049  -6532885.54649  19535449.8394   19535455.6094
  18524586.963   -32802846.57849 -24951658.63349  18524587.0554   18524590.6344
 98  2  4 19 26 29.9930000  0  7 27 10  2 31 19 18 13
  19374779.496   -33486451.59349 -26078381.84049  19374779.0404   19374783.9324
  21799451.901   -15631865.73849 -12157008.66949  21799450.4944   21799459.1524
  20447678.898   -18134222.17649 -13516544.92449  20447678.2974   20447684.5884
  19651809.105   -29498669.85349 -22967269.11149  19651808.5564   19651813.5204
  18513233.211   -19965502.34649 -15543661.66849  18513232.8064   18513237.7934
  19544949.711    -8349227.54149  -6493986.12949  19544949.3634   19544955.1004
  18511102.048   -32873710.19049 -25006877.01649  18511102.2114   18511105.7334
 98  2  4 19 26 59.9930000  0  7 27 10  2 31 19 18 13
  19357826.471   -33575540.16449 -26147801.48349  19357825.9264   19357830.9064
  21795914.460   -15650455.06249 -12171493.87549  21795912.9434   21795921.5564
  20430690.362   -18223497.03649 -13586109.70449  20430689.5384   20430695.8754
  19649666.808   -29509927.70449 -22976041.45449  19649666.0594   19649671.1484
  18508007.493   -19992963.52349 -15565059.98549  18508006.9134   18508012.2544
  19554520.783    -8298931.59849  -6454794.54149  19554520.6274   19554526.4314
  18497716.857   -32944049.78449 -25061687.07549  18497716.8374   18497720.5434
 98  2  4 19 27 29.9930000  0  7 27 10  2 31 19 18 13
  19340907.017   -33664452.16349 -26217083.53449  19340906.5394   19340911.7044
  21792473.031   -15668540.40649 -12185586.40449  21792473.3054   21792480.6824
  20413750.882   -18312514.12849 -13655473.62249  20413749.8854   20413756.6374
  19647639.624   -29520580.77949 -22984342.54749  19647638.9834   19647644.3854
  18502831.043   -20020165.72849 -15586256.50949  18502830.7274   18502835.9204
  19564163.431    -8248259.42849  -6415309.78849  19564163.0924   19564169.0264
  18484427.764   -33013884.44049 -25116103.68149  18484427.9074   18484431.5664
 98  2  4 19 27 59.9930000  0  7 27 10  2 31 19 18 13
  19324015.564   -33753217.38649 -26286251.20749  19324014.9134   19324020.1784
  21789127.081   -15686124.54149 -12199288.37249  21789126.3324   21789133.5684
  20396856.339   -18401295.32349 -13724653.72949  20396855.7714   20396862.2414
  19645723.991   -29530647.29549 -22992186.57349  19645723.4294   19645728.8354
  18497700.249   -20047128.10949 -15607266.14849  18497699.8094   18497705.0504
  19573877.573    -8197211.33849  -6375532.10749  19573877.3274   19573883.4914
  18471233.380   -33083221.36549 -25170132.43949  18471233.4414   18471237.1324
 98  2  4 19 28 29.9930000  0  7 27 10  2 31 19 18 13
  19307147.510   -33841859.52549 -26355322.97049  19307146.9404   19307152.2494
  21785875.395   -15703212.86349 -12212603.98749  21785874.8734   21785882.5024
  20380003.718   -18489856.20649 -13793662.16249  20380002.7284   20380009.3914
  19643919.130   -29540131.80749 -22999577.08249  19643918.4384   19643923.7994
  18492616.094   -20073845.44349 -15628084.84349  18492615.6294   18492620.8094
  19583661.984    -8145794.14849  -6335466.80949  19583661.8034   19583667.8504
  18458130.746   -33152076.27149 -25223785.60149  18458130.7124   18458134.4204
 98  2  4 19 28 59.9930000  0  7 27 10  2 31 19 18 13
  19290296.132   -33930413.95149 -26424326.39549  19290295.5764   19290300.8474
  21782709.864   -15719848.09049 -12225566.54949  21782708.3454   21782717.3154
  20363188.945   -18578218.24949 -13862515.66349  20363187.7584   20363194.6924
  19642220.136   -29549060.27849 -23006534.32149  19642219.4544   19642225.0434
  18487571.628   -20100354.31749 -15648741.10749  18487571.4114   18487576.3264
  19593511.747    -8094033.57949  -6295133.94749  19593511.4244   19593517.6154
  18445115.419   -33220472.19549 -25277081.11749  18445115.4624   18445119.0954
 98  2  4 19 29 29.9930000  0  7 27 10  2 31 19 18 13
  19273467.464   -34018848.95849 -26493236.76049  19273467.0564   19273472.1824
  21779636.800   -15735997.33149 -12238150.39849  21779635.8024   21779642.8914
  20346423.648   -18666320.20049 -13931166.49249  20346422.8554   20346429.5724
  19640636.534   -29557381.99049 -23013018.76849  19640635.8014   19640641.1144
  18482577.659   -20126597.79049 -15669190.55549  18482577.5884   18482582.4964
  19603438.363    -8041869.00149  -6254486.27149  19603438.1524   19603444.2564
  18432199.632   -33288344.99749 -25329969.00349  18432199.8044   18432203.4534
 98  2  4 19 29 59.9930000  0  7 27 10  2 31 19 18 13
  19256660.219   -34107171.77049 -26562059.70349  19256659.8524   19256664.8844
  21776656.961   -15751656.80449 -12250352.61449  21776656.6444   21776664.0584
  20329710.637   -18754147.56449 -13999603.35949  20329710.0254   20329716.0834
  19639171.435   -29565081.14449 -23019018.09749  19639170.9554   19639176.0584
  18477636.305   -20152565.00549 -15689424.74049  18477636.0194   18477641.0554
  19613440.219    -7989309.27049  -6213530.67949  19613440.2184   19613446.0184
  18419382.509   -33355699.51249 -25382453.02749  18419382.7774   18419385.9294
 98  2  4 19 30 29.9930000  0  7 27 10  2 31 19 18 13
  19239874.504   -34195381.39549 -26630794.45049  19239873.7834   19239878.8804
  21773766.216   -15766847.63749 -12262189.67349  21773766.2254   21773773.0484
  20313047.120   -18841714.95749 -14067837.64749  20313046.3314   20313052.6844
  19637823.836   -29572163.03349 -23024536.43449  19637823.3584   19637828.0764
  18472746.331   -20178262.02849 -15709448.38349  18472745.8944   18472750.9524
  19623510.597    -7936389.18549  -6172294.28749  19623510.3074   19623516.4224
  18406658.658   -33422563.69649 -25434554.97549  18406658.7454   18406662.1824
 98  2  4 19 30 59.9930000  0  7 27 10  2 31 19 18 13
  19223111.047   -34283473.57549 -26699437.68349  19223110.5574   19223115.5294
  21770961.833   -15781585.04149 -12273673.37249  21770960.3484   21770969.5654
  20296428.117   -18929047.95549 -14135889.29349  20296427.1564   20296433.5924
  19636592.444   -29578633.86149 -23029578.63049  19636591.4514   19636597.0324
  18467902.258   -20203717.82149 -15729284.05549  18467901.9084   18467907.0744
  19633647.277    -7883120.79049  -6130786.49149  19633647.1594   19633653.0514
  18394028.054   -33488937.91349 -25486275.13349  18394028.2494   18394031.6754
 98  2  4 19 31 29.9930000  0  7 27 10  2 31 19 18 13
  19206377.545   -34371408.43949 -26767958.33049  19206377.0424   19206382.1054
  21768251.299   -15795829.32749 -12284772.83849  21768250.8244   21768257.7924
  20279858.400   -19016122.15549 -14203739.27349  20279857.8074   20279863.8044
  19635485.983   -29584448.01749 -23034109.13049  19635485.4864   19635490.6414
  18463111.110   -20228895.29949 -15748902.86249  18463110.6244   18463115.8334
  19643854.544    -7829481.46249  -6088989.64449  19643854.0434   19643860.1604
  18381496.990   -33554789.02549 -25537587.67049  18381497.2544   18381500.6794
 98  2  4 19 31 59.9930000  0  7 27 10  2 31 19 18 13
  19189664.233   -34459237.40549 -26836396.46549  19189663.7624   19189668.8324
  21765621.963   -15809647.64849 -12295540.38849  21765620.5644   21765628.7304
  20263327.162   -19102994.38549 -14271431.87549  20263326.5614   20263332.8894
  19634492.446   -29589669.13049 -23038177.52249  19634491.7344   19634496.8704
  18458361.360   -20253855.23249 -15768352.15549  18458360.9234   18458366.1614
  19654118.630    -7775543.68949  -6046960.24349  19654118.8474   19654124.5154
  18369055.471   -33620169.69349 -25588533.62849  18369055.5974   18369058.9434
 98  2  4 19 32 29.9930000  0  7 27 10  2 31 19 18 13
  19172978.023   -34546923.85149 -26904723.54149  19172977.5244   19172982.7164
  21763075.957   -15823027.29149 -12305966.11449  21763073.9774   21763083.1694
  20246838.001   -19189645.58549 -14338952.24349  20246837.1364   20246843.4034
  19633615.076   -29594279.82649 -23041770.27849  19633614.3324   19633619.6664
  18453657.195   -20278575.72749 -15787614.87449  18453656.8794   18453661.8404
  19664447.267    -7721266.53849  -6004666.39449  19664446.8174   19664452.9034
  18356713.523   -33685027.06849 -25639071.82649  18356713.5624   18356717.1014
 98  2  4 19 32 59.9930000  0  7 27 10  2 31 19 18 13
  19156321.184   -34634455.98249 -26972930.37049  19156320.6954   19156325.8514
  21760614.322   -15835960.11449 -12316043.70549  21760614.2104   21760622.0954
  20230397.044   -19276043.19349 -14406275.00949  20230395.9184   20230402.5864
  19632852.771   -29598285.98949 -23044891.96449  19632851.9894   19632856.7784
  18449002.233   -20303037.51249 -15806676.00149  18449001.8524   18449007.1074
  19674845.214    -7666625.34849  -5962088.87849  19674844.8784   19674850.9854
  18344476.805   -33749331.40049 -25689179.08049  18344476.9034   18344480.6194
 98  2  4 19 33 29.9930000  0  7 27 10  2 31 19 18 13
  19139697.724   -34721812.89249 -27041000.66849  19139697.2034   19139702.2414
  21758244.724   -15848413.97149 -12325748.02549  21758245.7604   21758250.9464
  20214015.014   -19362130.94849 -14473356.33249  20214013.8194   20214020.7044
  19632209.748   -29601665.17449 -23047525.09149  19632209.2044   19632213.9914
  18444404.622   -20327198.19549 -15825502.50749  18444404.1754   18444409.4404
  19685315.725    -7611602.57649  -5919214.02449  19685315.2804   19685321.3964
  18332351.249   -33813051.66149 -25738831.22049  18332351.3774   18332354.9134
 98  2  4 19 33 59.9930000  0  7 27 10  2 31 19 18 13
  19123094.353   -34809064.26449 -27108988.72649  19123094.0074   19123099.0664
  21755952.499   -15860462.22149 -12335136.25449  21755950.7294   21755959.0004
  20197679.775   -19447973.06749 -14540246.24949  20197679.1784   20197685.7554
  19631671.302   -29604494.57849 -23049729.82349  19631670.5674   19631675.7984
  18439849.696   -20351134.51049 -15844154.17949  18439849.1284   18439854.3854
  19695845.604    -7556267.74649  -5876096.01649  19695845.4304   19695851.5704
  18320324.119   -33876254.56749 -25788080.22349  18320324.3334   18320327.7624
 98  2  4 19 34 29.9930000  0  7 27 10  2 31 19 18 13
  19106516.980   -34896178.82649 -27176870.17449  19106516.2944   19106521.3804
  21753742.243   -15872075.98549 -12344185.99849  21753741.4084   21753750.3084
  20181392.396   -19533563.72049 -14606940.20649  20181391.3044   20181397.8944
  19631242.122   -29606749.81149 -23051487.13949  19631241.5944   19631246.8444
  18435340.087   -20374832.46049 -15862620.09949  18435339.8004   18435344.9374
  19706437.890    -7500604.99649  -5832722.47449  19706437.5174   19706443.9094
  18308399.230   -33938920.23649 -25836910.59449  18308399.3994   18308402.8374
 98  2  4 19 34 59.9930000  0  7 27 10  2 31 19 18 13
  19089971.117   -34983127.60249 -27244622.44249  19089970.6584   19089975.5564
  21751622.682   -15883214.11049 -12352865.09449  21751622.5354   21751629.9194
  20165158.267   -19618874.40749 -14673416.01749  20165157.3624   20165163.8224
  19630928.172   -29608399.52349 -23052772.63449  19630927.7424   19630932.4564
  18430881.264   -20398263.79349 -15880878.28049  18430880.8974   18430886.0314
  19717093.020    -7444611.92449  -5789091.54849  19717092.4114   19717098.9164
  18296580.919   -34001025.87849 -25885304.58949  18296580.9214   18296584.4704
 98  2  4 19 35 29.9930000  0  7 27 10  2 31 19 18 13
  19073453.857   -35069926.21249 -27312257.69949  19073453.4434   19073458.3074
  21749589.644   -15893899.20349 -12361191.15349  21749588.1134   21749596.5894
  20148970.860   -19703939.68349 -14739700.59849  20148970.3084   20148976.3084
  19630727.386   -29609454.83749 -23053594.95249  19630727.1804   19630731.9404
  18426466.694   -20421462.41849 -15898955.13349  18426466.3634   18426471.3184
  19727806.397    -7388312.78349  -5745222.13249  19727806.3344   19727812.3414
  18284864.961   -34062593.56749 -25933279.39649  18284865.0914   18284868.4894
 98  2  4 19 35 59.9930000  0  7 27 10  2 31 19 18 13
  19056971.307   -35156542.67049 -27379751.02049  19056971.0334   19056975.7004
  21747644.584   -15904119.33749 -12369154.95349  21747643.9294   21747651.7524
  20132830.122   -19788759.83449 -14805794.17949  20132829.3624   20132835.6484
  19630640.677   -29609910.49749 -23053950.01149  19630640.0014   19630645.4754
  18422100.856   -20444405.27849 -15916832.69049  18422100.5454   18422105.5444
  19738583.119    -7331680.74149  -5701093.30649  19738582.7634   19738589.1534
  18273255.276   -34123602.91349 -25980819.13649  18273255.2994   18273258.9794
 98  2  4 19 36 29.9930000  0  7 27 10  2 31 19 18 13
  19040513.297   -35243030.19149 -27447143.86749  19040512.9674   19040517.7314
  21745779.451   -15913920.76849 -12376792.47849  21745779.2804   21745786.7414
  20116724.520   -19873395.39249 -14871743.91649  20116723.8524   20116729.8764
  19630657.611   -29609821.54649 -23053880.69949  19630657.0894   19630662.4844
  18417776.253   -20467131.46049 -15934541.40749  18417775.7694   18417780.7704
  19749413.048    -7274769.31049  -5656746.77849  19749412.6764   19749419.2274
  18261741.156   -34184109.88849 -26027967.41849  18261741.2904   18261744.7354
 98  2  4 19 36 59.9920000  0  7 27 10  2 31 19 18 13
  19024086.933   -35329351.19549 -27514406.95749  19024086.2294   19024091.3424
  21743999.907   -15923273.50349 -12384080.35749  21744001.1814   21744007.1404
  20100664.771   -19957789.72049 -14937505.67949  20100663.9104   20100670.0544
  19630786.307   -29609145.43249 -23053353.85249  19630785.8804   19630790.7824
  18413502.467   -20489590.16249 -15952041.69249  18413502.1984   18413507.0934
  19760304.346    -7217535.42349  -5612148.98049  19760304.2564   19760310.1364
  18250327.646   -34244088.34749 -26074703.86649  18250327.6214   18250331.2224
 98  2  4 19 37 29.9920000  0  7 27 10  2 31 19 18 13
  19007691.969   -35415507.16649 -27581541.45349  19007691.3294   19007696.5454
  21742306.613   -15932173.04249 -12391015.03649  21742303.9664   21742312.8204
  20084651.302   -20041940.94449 -15003078.01049  20084650.3764   20084656.7294
  19631029.165   -29607869.12749 -23052359.31949  19631028.6524   19631033.9134
  18409281.110   -20511773.45349 -15969327.36649  18409280.7004   18409285.8344
  19771261.723    -7159954.31049  -5567280.62349  19771261.4614   19771267.7434
  18239012.525   -34303549.59749 -26121037.29349  18239012.7044   18239016.1074
 98  2  4 19 37 59.9920000  0  7 27 10  2 31 19 18 13
  18991327.011   -35501505.62749 -27648553.21049  18991326.3784   18991331.4504
  21740701.995   -15940603.17749 -12397584.04449  21740700.4664   21740708.4774
  20068686.713   -20125835.21449 -15068450.11849  20068685.6784   20068692.2544
  19631390.485   -29605970.35249 -23050879.74249  19631389.9024   19631395.1904
  18405116.253   -20533660.12449 -15986381.91549  18405115.9234   18405120.8274
  19782285.046    -7102026.72249  -5522142.29349  19782284.8294   19782291.2604
  18227797.673   -34362484.04249 -26166960.22549  18227797.7384   18227801.2544
 98  2  4 19 38 29.9920000  0  7 27 10  2 31 19 18 13
  18974984.809   -35587384.04549 -27715471.43049  18974984.1224   18974989.4684
  21739180.931   -15948597.42049 -12403813.37249  21739178.9304   21739190.5574
  20052766.060   -20209498.51049 -15133642.24349  20052765.2594   20052771.6334
  19631867.340   -29603464.47349 -23048927.10049  19631866.4824   19631871.9024
  18400999.884   -20555291.80849 -16003237.77049  18400999.4434   18401004.4704
  19793367.725    -7043787.29149  -5476760.96949  19793367.5574   19793373.3594
  18216676.266   -34420927.49949 -26212500.56949  18216676.3374   18216679.7874
 98  2  4 19 38 59.9920000  0  7 27 10  2 31 19 18 13
  18958671.863   -35673108.78249 -27782269.89649  18958671.3654   18958676.2674
  21737747.744   -15956128.23049 -12409681.56749  21737746.6114   21737756.4304
  20036898.974   -20292880.44049 -15198615.12149  20036898.2644   20036904.7604
  19632464.888   -29600324.51649 -23046480.36849  19632464.3584   19632469.3164
  18396936.413   -20576645.71049 -16019877.16749  18396936.2364   18396940.9094
  19804518.058    -6985192.11749  -5431102.43849  19804517.5284   19804523.7884
  18205655.837   -34478840.13049 -26257627.27749  18205655.8474   18205659.4014
 98  2  4 19 39 29.9920000  0  7 27 10  2 31 19 18 13
  18942387.260   -35758684.84949 -27848952.51949  18942386.9384   18942391.8204
  21736405.197   -15963181.91249 -12415177.99949  21736403.7214   21736411.5274
  20021084.333   -20375986.76749 -15263373.24649  20021083.5524   20021089.9064
  19633180.301   -29596565.19849 -23043551.02749  19633179.5134   19633184.8734
  18392925.370   -20597723.98349 -16036301.80349  18392924.9234   18392929.9814
  19815735.994    -6926241.67349  -5385167.08849  19815735.9114   19815741.9654
  18194742.303   -34536190.92549 -26302316.20149  18194742.3524   18194745.7874
 98  2  4 19 39 59.9920000  0  7 27 10  2 31 19 18 13
  18926123.942   -35844149.14249 -27915548.03849  18926123.4974   18926128.4244
  21735143.176   -15969815.82849 -12420347.29949  21735141.8044   21735151.6564
  20005313.042   -20458865.06349 -15327953.67649  20005312.1014   20005318.5344
  19634000.602   -29592254.51749 -23040192.04449  19634000.1954   19634005.2194
  18388958.692   -20618568.71849 -16052544.45549  18388958.4294   18388963.4054
  19827010.539    -6866993.77949  -5338999.94249  19827009.9674   19827016.5064
  18183928.066   -34593019.93749 -26346598.53249  18183928.1484   18183931.7244
 98  2  4 19 40 29.9920000  0  7 27 10  2 31 19 18 13
  18909895.041   -35929432.54549 -27982002.60949  18909894.6524   18909899.3944
  21733967.662   -15975992.13649 -12425160.06049  21733966.8584   21733975.0504
  19989592.217   -20541478.10449 -15392327.42049  19989591.1344   19989597.6344
  19634929.239   -29587374.37649 -23036389.32949  19634928.4424   19634933.2794
  18385042.953   -20639145.94649 -16068578.65949  18385042.5404   18385047.8264
  19838349.317    -6807408.26049  -5292569.72949  19838349.1974   19838355.3764
  18173220.819   -34649286.89549 -26390442.90249  18173220.9114   18173224.3514
 98  2  4 19 40 59.9920000  0  8 27 10  7  2 31 19 18 13
  18893692.525   -36014576.96649 -28048348.88049  18893691.9494   18893696.9704
  21732871.946   -15981749.94349 -12429646.71549  21732873.7854   21732879.4924
  22305282.211    -4449092.87749  -3097933.44549  22305280.6864   22305291.3694
  19973913.794   -20623868.47249 -15456527.64849  19973912.9484   19973919.3054
  19635957.577   -29581970.27349 -23032178.32349  19635956.8804   19635961.8564
  18381172.340   -20659486.13949 -16084428.16049  18381172.0094   18381177.0804
  19849741.885    -6747540.34249  -5245919.45249  19849741.7604   19849747.7654
  18162612.711   -34705032.96849 -26433881.38749  18162612.8154   18162616.3394
 98  2  4 19 41 29.9920000  0  8 27 10  7  2 31 19 18 13
  18877522.132   -36099552.82649 -28114563.80649  18877521.5344   18877526.5454
  21731859.818   -15987070.96449 -12433792.99249  21731859.0474   21731867.7104
  22278341.737    -4590665.56049  -3208249.73249  22278340.5264   22278350.9964
  19958279.519   -20706027.11349 -15520547.31049  19958278.8014   19958284.8714
  19637091.273   -29576012.26049 -23027535.70749  19637090.8754   19637095.7284
  18377350.449   -20679570.21549 -16100078.09549  18377349.9854   18377355.1744
  19861187.896    -6687391.48649  -5199050.27649  19861187.9264   19861193.9484
  18152106.669   -34760242.67449 -26476901.92749  18152106.8884   18152110.2084
 98  2  4 19 41 59.9920000  0  8 27 10  7  2 31 19 18 13
  18861384.073   -36184358.82349 -28180646.36549  18861383.6164   18861388.5064
  21730928.340   -15991966.73849 -12437607.90749  21730927.2624   21730933.7464
  22251398.716    -4732251.42949  -3318576.28749  22251397.8484   22251408.5964
  19942688.855   -20787956.43749 -15584388.28049  19942688.0344   19942694.2754
  19638331.623   -29569494.37749 -23022456.83249  19638331.1164   19638336.7094
  18373576.726   -20699401.32749 -16115530.91649  18373576.4984   18373581.8224
  19872686.285    -6626967.40649  -5151966.63149  19872685.9864   19872692.1304
  18141699.005   -34814935.39249 -26519519.61649  18141699.1434   18141702.5214
 98  2  4 19 42 29.9920000  0  8 27 10  7  2 31 19 18 13
  18845274.027   -36269017.80349 -28246614.36949  18845273.5194   18845278.4814
  21730078.065   -15996435.45049 -12441090.03749  21730077.9204   21730084.3634
  22224455.552    -4873838.24149  -3428903.57249  22224454.1514   22224465.4064
  19927141.340   -20869658.89349 -15648052.47149  19927140.2884   19927146.7304
  19639680.323   -29562406.91149 -23016934.13249  19639679.5834   19639684.9904
  18369850.011   -20718985.40749 -16130791.24249  18369849.6284   18369854.8424
  19884238.435    -6566260.79749  -5104662.83949  19884238.3684   19884244.2914
  18131389.632   -34869111.39649 -26561734.67449  18131389.7004   18131393.2044
 98  2  4 19 42 59.9920000  0  8 27 10  7  2 31 19 18 13
  18829198.859   -36353493.29349 -28312439.39149  18829198.2274   18829203.1714
  21729315.019   -16000444.69349 -12444214.15149  21729312.7604   21729321.9964
  22197523.558    -5015366.56949  -3539185.30449  22197522.2654   22197533.1344
  19911645.610   -20951089.41349 -15711504.76249  19911644.6154   19911651.0134
  19641147.331   -29554697.54349 -23010926.82949  19641146.8574   19641151.8044
  18366179.574   -20738273.81349 -16145821.16949  18366179.2694   18366184.1294
  19895853.459    -6505223.55249  -5057101.40649  19895853.2874   19895859.2424
  18121186.237   -34922730.64549 -26603515.89849  18121186.2344   18121189.7954
 98  2  4 19 43 29.9920000  0  8 27 10  7  2 31 19 18 13
  18813152.965   -36437814.73049 -28378144.37049  18813152.1964   18813157.1654
  21728631.726   -16004033.19549 -12447010.44849  21728630.4624   21728640.9654
  22170599.163    -5156854.81449  -3649435.78849  22170598.3244   22170608.1594
  19896195.315   -21032280.99949 -15774770.87049  19896194.3914   19896200.6794
  19642725.803   -29546403.01649 -23004463.56949  19642725.1744   19642730.4304
  18362560.103   -20757294.48349 -16160642.47049  18362559.8444   18362564.7834
  19907527.023    -6443878.64449  -5009300.24449  19907526.2464   19907533.3324
  18111084.750   -34975814.12649 -26644879.64149  18111084.7574   18111088.3254
 98  2  4 19 43 59.9920000  0  8 27 10  7  2 31 19 18 13
  18797142.634   -36521949.34149 -28443703.77649  18797142.2294   18797147.0854
  21728034.467   -16007172.25249 -12449456.46649  21728034.5954   21728042.5484
  22143684.379    -5298292.48449  -3759646.88049  22143682.4484   22143694.4084
  19880798.017   -21113194.07149 -15837819.95549  19880796.9014   19880803.2554
  19644420.883   -29537495.62249 -22997522.73849  19644420.1114   19644425.1144
  18359001.120   -20775997.19949 -16175216.01349  18359000.7984   18359005.7904
  19919268.285    -6382177.84949  -4961221.76649  19919268.0684   19919274.2074
  18101094.077   -35028315.28049 -26685789.62249  18101094.2634   18101097.5944
 98  2  4 19 44 29.9920000  0  8 27 10  7  2 31 19 18 13
  18781168.224   -36605895.45149 -28509116.29949  18781167.6084   18781172.7334
  21727517.459   -16009890.57149 -12451574.65849  21727516.4334   21727522.7344
  22116772.838    -5439712.60449  -3869844.30249  22116771.5184   22116782.0544
  19865450.122   -21193847.20349 -15900666.49549  19865449.1464   19865455.3894
  19646228.702   -29527995.46749 -22990120.03049  19646227.9494   19646232.6624
  18355500.645   -20794392.30649 -16189549.87049  18355500.3914   18355505.5484
  19931071.740    -6320150.47649  -4912888.81449  19931071.5864   19931077.8944
  18091213.510   -35080238.13149 -26726248.98649  18091213.7934   18091216.9944
 98  2  4 19 44 59.9920000  0  8 27 10  7  2 31 19 18 13
  18765223.891   -36689683.33949 -28574405.52949  18765223.4464   18765228.3654
  21727068.230   -16012250.70949 -12453413.76649  21727068.9634   21727075.8394
  22089853.714    -5581173.22549  -3980073.30749  22089852.0144   22089863.5444
  19850141.560   -21274293.83949 -15963352.12449  19850140.5744   19850146.8864
  19648138.618   -29517958.67449 -22982299.15049  19648137.7174   19648142.7254
  18352048.742   -20812532.15449 -16203684.81849  18352048.2814   18352053.5594
  19942923.874    -6257867.38449  -4864356.59649  19942923.8514   19942930.3494
  18081436.289   -35131617.85949 -26766285.13049  18081436.3324   18081439.7064
 98  2  4 19 45 29.9920000  0  8 27 10  7  2 31 19 18 13
  18749312.679   -36773297.33149 -28639559.25849  18749312.2614   18749317.0904
  21726692.619   -16014226.44549 -12454953.29849  21726690.0554   21726699.3104
  22062930.768    -5722654.00149  -4090317.98349  22062930.2014   22062941.2034
  19834877.574   -21354506.46549 -16025855.41049  19834876.6714   19834882.8994
  19650154.288   -29507365.67149 -22974044.86749  19650153.4024   19650158.5274
  18348649.563   -20830395.12049 -16217604.01249  18348648.9654   18348654.0964
  19954826.542    -6195318.51349  -4815617.28449  19954826.4514   19954832.8244
  18071769.578   -35182416.72749 -26805868.65849  18071769.5844   18071773.0874
 98  2  4 19 45 59.9920000  0  8 27 10  7  2 31 19 18 13
  18733433.556   -36856742.76249 -28704581.64349  18733433.0944   18733437.7784
  21726388.347   -16015824.27149 -12456198.40549  21726388.1944   21726396.9724
  22036002.331    -5864163.50349  -4200585.07149  22036001.4344   22036012.7274
  19819656.794   -21434492.17249 -16088181.87849  19819655.8184   19819661.8614
  19652275.535   -29496218.45349 -22965358.72749  19652274.9134   19652280.1164
  18345301.963   -20847986.47249 -16231311.56249  18345301.4824   18345306.7264
  19966777.789    -6132514.69849  -4766679.31149  19966777.7374   19966783.6024
  18062210.133   -35232651.90949 -26845012.95049  18062210.2224   18062213.6874
 98  2  4 19 46 29.9920000  0  8 27 10  7  2 31 19 18 13
  18717584.805   -36940028.46949 -28769479.56549  18717584.2364   18717589.1044
  21726153.514   -16017059.69749 -12457161.08049  21726153.6074   21726159.8294
  22009071.540    -6005685.10549  -4310861.56049  22009071.0474   22009081.6214
  19804475.977   -21514268.00549 -16150344.80849  19804475.1374   19804480.9284
  19654501.807   -29484519.24949 -22956242.46849  19654501.2324   19654506.0164
  18342002.703   -20865324.27149 -16244821.53249  18342002.2964   18342007.4354
  19978774.000    -6069474.64649  -4717557.25349  19978773.9334   19978780.0524
  18052756.327   -35282331.85849 -26883724.59349  18052756.5074   18052759.7284
 98  2  4 19 46 59.9920000  0  8 27 10  7  2 31 19 18 13
  18701772.799   -37023121.13449 -28834227.07349  18701772.4924   18701777.1474
  21725997.361   -16017881.00249 -12457801.08549  21725995.4064   21726004.3444
  21982149.918    -6147158.85449  -4421100.76949  21982149.7444   21982159.2064
  19789344.655   -21593783.19649 -16212304.64549  19789343.6224   19789349.7324
  19656840.731   -29472228.03249 -22946664.90049  19656840.1234   19656844.9184
  18338757.961   -20882375.51949 -16258108.21649  18338757.4624   18338762.6224
  19990827.464    -6006133.21049  -4668200.36249  19990827.1784   19990833.0104
  18043413.112   -35331430.79949 -26921983.50149  18043413.3554   18043416.5074
 98  2  4 19 47 29.9920000  0  8 27 10  7  2 31 19 18 13
  18685996.936   -37106023.79849 -28898826.53249  18685996.3644   18686001.0424
  21725921.231   -16018280.04049 -12458112.04749  21725919.6794   21725927.2684
  21955235.942    -6288592.48849  -4531308.72449  21955235.1574   21955244.8834
  19774262.924   -21673037.75149 -16274061.38849  19774261.8434   19774268.2154
  19659289.806   -29459358.32549 -22936636.56549  19659289.5474   19659294.0264
  18335566.811   -20899145.19449 -16271175.51149  18335566.4714   18335571.3974
  20002941.134    -5942475.54849  -4618597.05949  20002940.5624   20002947.5084
  18034176.960   -35379967.19549 -26959804.06949  18034177.1094   18034180.3174
 98  2  4 19 47 59.9920000  0  8 27 10  7  2 31 19 18 13
  18670252.650   -37188760.29149 -28963296.51249  18670252.1034   18670256.8544
  21725919.984   -16018284.91849 -12458115.90149  21725919.8594   21725927.6294
  21928322.996    -6430020.95449  -4641512.63449  21928322.0694   21928332.8284
  19759224.699   -21752063.77749 -16335640.06149  19759223.9844   19759230.1234
  19661841.577   -29445948.59849 -22926187.43549  19661840.7814   19661846.0894
  18332424.208   -20915659.50349 -16284043.80949  18332423.8674   18332428.8204
  20015110.110    -5878527.49949  -4568767.48049  20015110.0384   20015116.6974
  18025040.588   -35427979.17149 -26997215.99149  18025040.7844   18025043.8874
 98  2  4 19 48 29.9920000  0  8 27 10  7  2 31 19 18 13
  18654543.452   -37271312.67549 -29027623.02849  18654542.8594   18654547.6524
  21725997.724   -16017876.84849 -12457797.94749  21725997.9254   21726005.0474
  21901413.633    -6571430.65549  -4751701.94449  21901413.0874   21901422.4924
  19744233.762   -21830841.73849 -16397025.43449  19744232.8924   19744239.1574
  19664494.420   -29432007.71249 -22915324.41349  19664494.0644   19664499.2464
  18329328.986   -20931925.10949 -16296718.30449  18329328.6304   18329333.7554
  20027334.940    -5814285.74549  -4518709.03949  20027334.4354   20027340.8234
  18016008.258   -35475444.44449 -27034201.91149  18016008.4574   18016011.6384
 98  2  4 19 48 59.9920000  0  8 27 10  7  2 31 19 18 13
  18638871.140   -37353671.01349 -29091798.33949  18638870.7284   18638875.5084
  21726157.674   -16017037.04749 -12457143.59649  21726157.4144   21726164.4064
  21874505.291    -6712834.57349  -4861886.73749  21874504.3764   21874514.8094
  19729293.258   -21909354.63949 -16458204.27349  19729292.5554   19729298.7604
  19667248.214   -29417536.67649 -22904048.30049  19667247.2384   19667253.1284
  18326282.195   -20947936.03249 -16309194.35449  18326281.7494   18326287.0064
  20039615.478    -5749751.25449  -4468422.49749  20039614.9234   20039621.3854
  18007079.401   -35522365.82849 -27070764.02249  18007079.4384   18007082.8424
 98  2  4 19 49 29.9920000  0  8 27 10  7  2 31 19 18 13
  18623237.283   -37435827.26249 -29155816.17749  18623236.7314   18623241.6234
  21726402.646   -16015749.19849 -12456140.13649  21726402.3154   21726410.3074
  21847603.364    -6854204.82049  -4972045.30049  21847602.0504   21847612.6934
  19714405.977   -21987587.66849 -16519165.02349  19714405.0414   19714411.1954
  19670108.911   -29402503.73849 -22892334.34149  19670108.3674   19670113.3184
  18323291.315   -20963653.22549 -16321441.52349  18323290.9304   18323296.1604
  20051949.658    -5684934.96549  -4417916.36849  20051949.4944   20051956.1804
  17998261.207   -35568705.76749 -27106873.06049  17998261.2534   17998264.9004
 98  2  4 19 49 59.9920000  0  8 27 10  7  2 31 19 18 13
  18607641.851   -37517781.80349 -29219676.84749  18607641.5284   18607646.1364
  21726731.246   -16014023.85749 -12454795.71149  21726730.5874   21726738.0494
  21820712.746    -6995515.99049  -5082157.82549  21820712.0454   21820722.3024
  19699571.642   -22065542.55249 -16579909.04349  19699570.8314   19699576.8344
  19673079.210   -29386894.77749 -22880171.52549  19673078.6814   19673083.6334
  18320359.059   -20979062.20949 -16333448.53649  18320358.8104   18320363.8194
  20064336.596    -5619841.58949  -4367194.33549  20064336.4994   20064342.8734
  17989556.477   -35614449.31449 -27142517.38049  17989556.6594   17989560.1864
 98  2  4 19 50 29.9920000  0  8 27 10  7  2 31 19 18 13
  18592080.439   -37599557.56149 -29283398.19849  18592079.8114   18592084.6274
  21727136.679   -16011892.92949 -12453135.32649  21727135.0974   21727145.3804
  21793830.878    -7136780.54849  -5192234.04949  21793829.8964   21793839.8074
  19684784.650   -22143248.59549 -16640459.15149  19684783.6884   19684789.7134
  19676156.924   -29370721.42849 -22867568.93349  19676156.2904   19676161.5134
  18317480.438   -20994189.49749 -16345236.04249  18317480.2924   18317485.1644
  20076772.160    -5554492.46949  -4316273.00749  20076771.7104   20076778.7054
  17980962.316   -35659611.82549 -27177708.93949  17980962.3294   17980966.0064
 98  2  4 19 50 59.9920000  0  8 27 10  7  2 31 19 18 13
  18576545.527   -37681193.90249 -29347010.91249  18576545.0454   18576549.6724
  21727611.307   -16009398.74049 -12451191.83349  21727612.0974   21727617.5154
  21766954.118    -7278018.36449  -5302289.44049  21766953.0224   21766964.4264
  19670037.021   -22220747.64149 -16700847.97049  19670035.9074   19670042.1474
  19679338.645   -29354001.42249 -22854540.37449  19679338.4084   19679342.8794
  18314654.332   -21009040.86049 -16356808.54349  18314654.1194   18314659.0944
  20089253.650    -5488902.24149  -4265163.80949  20089253.2994   20089259.8364
  17972471.064   -35704233.65549 -27212479.19349  17972471.2774   17972474.6434
 98  2  4 19 51 29.9920000  0  8 27 10  7  2 31 19 18 13
  18561040.858   -37762671.56249 -29410499.98149  18561040.3794   18561045.0134
  21728154.843   -16006541.84449 -12448965.71649  21728153.6124   21728161.7744
  21740087.501    -7419202.80549  -5412303.24249  21740086.0724   21740097.3474
  19655328.121   -22298043.11749 -16761078.15949  19655327.3404   19655333.3514
  19682623.575   -29336739.02149 -22841089.17249  19682622.7844   19682628.4124
  18311884.245   -21023597.94149 -16368151.73249  18311884.0064   18311889.0004
  20101786.061    -5423044.32149  -4213846.02649  20101786.1534   20101792.3434
  17964086.901   -35748292.69349 -27246810.90549  17964086.9514   17964090.5344
 98  2  4 19 51 59.9920000  0  8 27 10  7  2 31 19 18 13
  18545573.466   -37843953.23349 -29473836.33249  18545572.9474   18545577.8054
  21728771.759   -16003300.53749 -12446440.09449  21728772.0244   21728778.4174
  21713232.869    -7560324.16049  -5522267.89449  21713232.2224   21713242.6294
  19640662.697   -22375110.51649 -16821130.63049  19640662.0034   19640667.7854
  19686014.552   -29318918.82749 -22827203.32649  19686013.8264   19686019.1294
  18309172.363   -21037849.08749 -16379256.53049  18309171.9344   18309177.0134
  20114375.650    -5356886.03049  -4162294.18549  20114375.4284   20114381.5814
  17955813.577   -35791769.27049 -27280688.75549  17955813.6994   17955817.1424
 98  2  4 19 52 29.9920000  0  8 27 10  7  2 31 19 18 13
  18530149.944   -37925004.32549 -29536993.00949  18530149.4644   18530154.1314
  21729467.405   -15999644.70149 -12443591.43949  21729468.0224   21729474.0674
  21686394.129    -7701362.23749  -5632167.65249  21686394.1124   21686403.0814
  19626046.291   -22451920.38949 -16880982.43249  19626045.1724   19626051.1964
  19689516.586   -29300515.48149 -22812863.08549  19689515.7324   19689521.1134
  18306521.461   -21051779.59849 -16390111.48449  18306521.0194   18306526.0144
  20127024.230    -5290417.48849  -4110500.59249  20127024.0614   20127030.3554
  17947654.692   -35834644.51849 -27314098.03849  17947654.8774   17947658.1584
 98  2  4 19 52 59.9920000  0  8 27 10  7  2 31 19 18 13
  18514761.415   -38005871.59049 -29600006.44049  18514761.0284   18514765.6974
  21730231.055   -15995633.07249 -12440465.49149  21730230.4844   21730239.2534
  21659559.997    -7842376.42749  -5742048.78149  21659558.4604   21659569.3034
  19611469.856   -22528519.54749 -16940670.04049  19611469.0824   19611475.0144
  19693116.651   -29281597.14649 -22798121.53449  19693116.2094   19693121.4314
  18303920.589   -21065447.26949 -16400761.62849  18303920.5294   18303925.4734
  20139718.188    -5223710.17949  -4058520.93349  20139717.6044   20139724.2614
  17939599.907   -35876972.70549 -27347081.03449  17939599.9334   17939603.4134
 98  2  4 19 53 29.9920000  0  8 27 10  7  2 31 19 18 13
  18499417.582   -38086503.68649 -29662836.62649  18499417.2004   18499421.9584
  21731072.165   -15991213.03849 -12437021.36949  21731070.0834   21731079.6554
  21632737.535    -7983328.84149  -5851881.78149  21632737.8574   21632746.5944
  19596944.561   -22604850.13749 -17000148.37649  19596943.5084   19596949.8884
  19696825.630   -29262106.60649 -22782934.12049  19696825.3024   19696829.6774
  18301377.566   -21078811.04749 -16411174.97849  18301377.3004   18301382.3054
  20152460.795    -5156748.02149  -4006342.70349  20152460.5224   20152466.8624
  17931661.901   -35918687.01949 -27379585.68949  17931662.0294   17931665.4194
 98  2  4 19 53 59.9920000  0  8 27 10  7  2 31 19 18 13
  18484107.977   -38166956.13249 -29725526.81649  18484107.5194   18484112.3364
  21731984.637   -15986418.17249 -12433285.18049  21731985.0204   21731991.8064
  21605917.500    -8124268.89649  -5961705.12949  21605916.5954   21605927.3974
  19582463.336   -22680948.85449 -17059446.03149  19582462.3034   19582468.6704
  19700636.950   -29242078.18949 -22767327.57749  19700636.7734   19700641.5524
  18298882.218   -21091924.08949 -16421392.94149  18298881.7384   18298886.9604
  20165239.343    -5089596.56749  -3954016.96249  20165238.6664   20165245.5574
  17923831.605   -35959835.56249 -27411649.48149  17923831.6604   17923835.1314
 98  2  4 19 54 29.9920000  0  8 27 10  7  2 31 19 18 13
  18468839.583   -38247192.10649 -29788048.33649  18468839.2394   18468843.9834
  21732975.518   -15981211.96949 -12429228.43149  21732974.9654   21732984.1054
  21579106.737    -8265160.39949  -6071490.65049  21579105.5564   21579115.3474
  19568033.757   -22756776.51649 -17118532.48049  19568033.0534   19568039.2224
  19704555.083   -29221488.33549 -22751283.54249  19704554.1914   19704559.6714
  18296440.888   -21104753.42449 -16431389.84749  18296440.6784   18296445.8854
  20178061.088    -5022218.04349  -3901514.28949  20178060.9094   20178067.5474
  17916116.353   -36000379.54449 -27443242.19249  17916116.5914   17916119.8314
 98  2  4 19 54 59.9920000  0  8 27 10  7  2 31 19 18 13
  18453609.053   -38327229.02049 -29850414.74449  18453608.5534   18453613.3434
  21734041.733   -15975608.61849 -12424862.23049  21734041.2964   21734048.2574
  21552302.380    -8406018.61449  -6181250.21749  21552302.1924   21552312.5684
  19553654.317   -22832341.24949 -17177414.04749  19553653.5674   19553659.5094
  19708576.570   -29200355.06849 -22734816.06749  19708575.7874   19708581.4764
  18294054.758   -21117292.84649 -16441160.83349  18294054.3904   18294059.5614
  20190926.457    -4954610.21649  -3848832.92949  20190925.7234   20190933.4004
  17908513.340   -36040333.72949 -27474375.31449  17908513.4344   17908516.9984
 98  2  4 19 55 29.9920000  0  8 27 10  7  2 31 19 18 13
  18438408.782   -38407106.81549 -29912657.16249  18438408.4154   18438413.0564
  21735177.693   -15969638.78049 -12420210.48849  21735177.6304   21735185.9074
  21525497.930    -8546876.77149  -6291009.72649  21525497.4784   21525507.4104
  19539315.775   -22907690.99949 -17236128.09449  19539314.9744   19539320.8444
  19712694.537   -29178714.87249 -22717953.58649  19712693.6464   19712699.0924
  18291716.699   -21129579.31149 -16450734.70249  18291716.4584   18291721.5154
  20203829.969    -4886801.94249  -3795995.38749  20203829.8704   20203836.5964
  17901010.465   -36079761.57349 -27505098.31049  17901010.5284   17901013.9244
 98  2  4 19 55 59.9920000  0  8 27 10  7  2 31 19 18 13
  18423249.831   -38486767.65349 -29974730.51949  18423249.4404   18423254.0854
  21736389.611   -15963270.57949 -12415248.28349  21736388.6114   21736398.7034
  21498704.256    -8687677.96849  -6400724.84449  21498703.7974   21498714.0924
  19525026.273   -22982782.54049 -17294640.94049  19525025.3664   19525031.4744
  19716914.357   -29156539.59849 -22700674.15249  19716913.7354   19716919.1214
  18289434.110   -21141574.61949 -16460081.70549  18289434.0484   18289439.0884
  20216783.862    -4818729.07949  -3742951.66349  20216783.7824   20216790.7064
  17893613.363   -36118633.69649 -27535388.26949  17893613.5094   17893616.8624
 98  2  4 19 56 29.9920000  0  8 27 10  7  2 31 19 18 13
  18408131.639   -38566214.24749 -30036636.93549  18408131.2064   18408135.8394
  21737671.372   -15956534.87649 -12409999.73649  21737670.4644   21737678.3214
  21471921.162    -8828423.83949  -6510396.84049  21471919.3204   21471930.6254
  19510784.136   -23057625.13149 -17352959.80349  19510783.2464   19510789.2434
  19721233.898   -29133840.28849 -22682986.37649  19721233.0244   19721238.7194
  18287208.187   -21153272.05649 -16469196.60949  18287207.7304   18287213.0314
  20229785.569    -4750405.08849  -3689712.27149  20229785.6614   20229792.2904
  17886318.380   -36156969.11349 -27565260.01449  17886318.3594   17886321.8744
 98  2  4 19 56 59.9920000  0  8 27 10  7  2 31 19 18 13
  18393049.535   -38645471.22849 -30098395.59749  18393049.0674   18393053.7404
  21739017.104   -15949462.86649 -12404489.15249  21739017.3114   21739026.2834
  21445146.461    -8969125.75749  -6620034.58449  21445145.1854   21445155.7084
  19496583.287   -23132250.84149 -17411109.66349  19496582.3174   19496588.5314
  19725649.780   -29110634.54149 -22664903.97349  19725648.9674   19725653.7564
  18285036.668   -21164683.42849 -16478088.61249  18285036.3934   18285041.4694
  20242828.571    -4681863.98649  -3636303.68349  20242828.3424   20242834.4884
  17879119.870   -36194797.27149 -27594736.49849  17879120.0134   17879123.3514
 98  2  4 19 57 29.9920000  0  8 27 10  7  2 31 19 18 13
  18378013.194   -38724487.54749 -30159966.73449  18378012.8264   18378017.3564
  21740433.214   -15942022.01949 -12398691.13249  21740432.8724   21740440.1444
  21418391.068    -9109725.95549  -6729593.05249  21418390.2374   21418400.5754
  19482431.524   -23206618.58449 -17469058.51249  19482430.6144   19482436.5404
  19730170.318   -29086878.81949 -22646393.01049  19730170.0474   19730175.1194
  18282924.960   -21175780.61449 -16486735.78849  18282924.8944   18282929.8194
  20255918.843    -4613074.11349  -3582701.26049  20255918.2704   20255925.0454
  17872030.138   -36232053.99849 -27623767.70949  17872030.2514   17872033.6714
 98  2  4 19 57 59.9920000  0  8 27 10  7  2 31 19 18 13
  18363006.055   -38803350.57449 -30221418.42449  18363005.4864   18363010.2634
  21741902.072   -15934302.74449 -12392676.17749  21741901.4654   21741909.9904
  21391639.962    -9250303.43749  -6839133.81749  21391638.6774   21391649.0764
  19468314.699   -23280802.98349 -17526864.49749  19468313.8974   19468319.7004
  19734778.480   -29062662.62549 -22627523.24549  19734777.9774   19734783.3724
  18280859.097   -21186636.92949 -16495195.25549  18280858.8454   18280863.9004
  20269038.715    -4544129.25949  -3528978.06749  20269038.3574   20269045.4984
  17865039.167   -36268792.00549 -27652394.73149  17865039.3914   17865042.6034
 98  2  4 19 58 29.9920000  0  8 27 10  7  2 31 19 18 13
  18348046.215   -38881964.85049 -30282676.28049  18348045.7224   18348050.5214
  21743443.695   -15926201.61549 -12386363.67049  21743442.3084   21743451.9754
  21364911.144    -9390763.88749  -6948583.39049  21364910.1404   21364920.3024
  19454250.011   -23354713.41649 -17584456.99749  19454249.1044   19454254.9254
  19739493.383   -29037886.05649 -22608216.81749  19739492.6344   19739497.9294
  18278858.551   -21197149.98649 -16503387.25049  18278858.2404   18278863.1044
  20282207.355    -4474928.12049  -3475055.17549  20282207.5204   20282213.4474
  17858166.898   -36304905.97249 -27680535.48349  17858166.9184   17858170.4654
 98  2  4 19 58 59.9920000  0  8 27 10  7  2 31 19 18 13
  18333125.449   -38960374.10649 -30343774.38449  18333125.0524   18333129.6624
  21745049.636   -15917762.29549 -12379787.64049  21745047.1874   21745058.0374
  21338196.913    -9531147.72349  -7057973.26449  21338195.7844   21338205.8364
  19440228.347   -23428397.71849 -17641873.29349  19440227.3914   19440233.1984
  19744305.654   -29012597.53749 -22588511.46849  19744305.2624   19744310.4834
  18276908.474   -21207397.62049 -16511372.43249  18276908.1204   18276913.2054
  20295417.613    -4405508.05549  -3420961.69649  20295416.7654   20295423.3474
  17851406.713   -36340431.00549 -27708217.32949  17851406.7784   17851410.4114
 98  2  4 19 59 29.9910000  0  8 27 10  7  2 31 19 18 13
  18318244.054   -39038576.19249 -30404711.05049  18318243.7444   18318248.2864
  21746720.051   -15908984.61449 -12372947.95349  21746718.7404   21746728.1854
  21311497.914    -9671452.06249  -7167301.19049  21311497.0184   21311506.8734
  19426249.875   -23501854.72549 -17699112.47849  19426248.9684   19426255.0024
  19749212.042   -28986814.48849 -22568420.77749  19749211.8454   19749216.8054
  18275005.094   -21217400.01649 -16519166.51949  18275004.7674   18275009.8484
  20308668.261    -4335875.74249  -3366702.82349  20308668.2224   20308674.5464
  17844756.837   -36375376.21549 -27735447.36149  17844756.9924   17844760.2974
 98  2  4 19 59 59.9910000  0  8 27 10  7  2 31 19 18 13
  18303408.914   -39116535.30749 -30465458.39049  18303408.3944   18303413.1214
  21748464.322   -15899817.87849 -12365805.11849  21748465.2714   21748471.1704
  21284820.572    -9811642.26149  -7276540.16849  21284819.6264   21284830.0674
  19412320.709   -23575052.82949 -17756149.92449  19412319.7714   19412325.5884
  19754221.919   -28960487.77749 -22547906.44449  19754221.1374   19754225.9724
  18273156.777   -21227113.13849 -16526735.19049  18273156.2474   18273161.3174
  20321969.613    -4265977.14549  -3312236.46749  20321969.3534   20321977.0134
  17838221.558   -36409719.42049 -27762208.30349  17838221.7864   17838225.0324
 98  2  4 20  0 29.9910000  0  8 27 10  7  2 31 19 18 13
  18288609.865   -39194304.82549 -30526057.99249  18288609.3194   18288614.1734
  21750270.345   -15890327.91349 -12358410.40949  21750269.9614   21750276.1834
  21258156.072    -9951764.78349  -7385726.42249  21258154.7064   21258164.6214
  19398427.861   -23648060.01049 -17813038.60049  19398427.0284   19398432.8784
  19759326.603   -28933662.12449 -22527003.33549  19759325.7334   19759331.2394
  18271348.004   -21236618.19349 -16534141.72449  18271347.5994   18271352.6004
  20335309.108    -4195878.10549  -3257613.91349  20335308.6794   20335316.6844
  17831788.296   -36443526.37749 -27788551.39049  17831788.3004   17831791.7584
 98  2  4 20  0 59.9910000  0  8 27 10  7  2 31 19 18 13
  18273851.199   -39271862.13349 -30586492.24049  18273850.5074   18273855.3904
  21752142.390   -15880490.92049 -12350745.28649  21752141.5664   21752150.1694
  21231510.893   -10091785.48349  -7494833.30949  21231509.6924   21231519.0124
  19384576.464   -23720849.82649 -17869757.90349  19384575.7474   19384581.3264
  19764528.775   -28906324.42949 -22505701.24349  19764528.3024   19764532.8484
  18269585.649   -21245879.65349 -16541358.45649  18269585.1494   18269590.2094
  20348686.516    -4125579.59049  -3202835.93149  20348686.3784   20348693.2924
  17825462.693   -36476767.53549 -27814453.59749  17825462.7694   17825466.2004
 98  2  4 20  1 29.9910000  0  8 27 10  7  2 31 19 18 13
  18259132.053   -39349211.35049 -30646764.33849  18259131.4764   18259136.2024
  21754080.889   -15870303.95849 -12342807.46249  21754080.4734   21754089.8634
  21204885.285   -10231703.25749  -7603859.99749  21204883.4754   21204893.3704
  19370766.908   -23793419.57849 -17926305.72249  19370765.9584   19370771.6934
  19769827.809   -28878477.68849 -22484002.49249  19769827.4934   19769832.6584
  18267876.152   -21254862.91149 -16548358.40549  18267875.6734   18267880.9214
  20362101.043    -4055086.11549  -3147906.03149  20362100.7114   20362108.2174
  17819245.560   -36509438.91949 -27839911.82149  17819245.6434   17819249.1514
 98  2  4 20  1 59.9910000  0  8 27 10  7  2 31 19 18 13
  18244454.830   -39426340.72749 -30706865.13549  18244454.3874   18244459.0064
  21756085.419   -15859770.16549 -12334599.37949  21756085.6054   21756092.8124
  21178280.688   -10371510.48949  -7712800.50949  21178279.2624   21178288.5434
  19357000.542   -23865762.03449 -17982676.42849  19356999.5184   19357005.2914
  19775226.595   -28850106.91349 -22461895.41049  19775225.7964   19775230.8574
  18266224.047   -21263544.91849 -16555123.61249  18266224.0264   18266229.0094
  20375554.982    -3984385.52149  -3092814.73449  20375554.0174   20375562.0024
  17813142.418   -36541511.18749 -27864903.20249  17813142.6484   17813145.9694
 98  2  4 20  2 29.9910000  0  8 27 10  7  2 31 19 18 13
  18229815.608   -39503270.44249 -30766810.35849  18229815.1924   18229819.7994
  21758149.050   -15848926.84049 -12326150.09849  21758148.3874   21758156.7944
  21151690.987   -10511239.20349  -7821679.83149  21151689.3804   21151699.1654
  19343273.916   -23937895.51749 -18038884.30449  19343272.8914   19343278.5904
  19780715.026   -28821264.70849 -22439420.98649  19780714.8164   19780719.8184
  18264629.036   -21271926.66649 -16561654.84449  18264628.6814   18264633.5594
  20389041.013    -3913516.06149  -3037591.86549  20389039.8514   20389047.9534
  17807151.676   -36572992.93749 -27889434.44449  17807151.7454   17807155.1374
 98  2  4 20  2 59.9910000  0  8 27 10  7  2 31 19 18 13
  18215216.672   -39579988.48249 -30826590.63149  18215216.1684   18215220.7904
  21760272.201   -15837769.44849 -12317456.08749  21760271.3384   21760280.6444
  21125116.798   -10650886.69049  -7930495.81349  21125115.7774   21125127.4104
  19329591.422   -24009797.17049 -18094911.52849  19329590.5734   19329596.2174
  19786290.721   -28791964.41449 -22416589.61149  19786289.9964   19786295.3984
  18263098.115   -21279971.60249 -16567923.62749  18263097.8204   18263102.7154
  20402563.135    -3842457.17849  -2982221.37849  20402562.8304   20402569.8114
  17801274.845   -36603875.80149 -27913499.01249  17801274.8844   17801278.4154
 98  2  4 20  3 29.9910000  0  8 27 10  7  2 31 19 18 13
  18200660.210   -39656483.11049 -30886196.82549  18200659.5064   18200664.4054
  21762456.076   -15826293.32249 -12308513.71149  21762455.6554   21762463.8934
  21098559.259   -10790446.42949  -8039243.39549  21098557.9424   21098569.2854
  19315957.055   -24081446.33349 -18150742.01049  19315956.3724   19315961.9034
  19791958.648   -28762179.30349 -22393380.47049  19791958.2624   19791962.9894
  18261631.999   -21287676.23049 -16573927.24449  18261631.5064   18261636.5684
  20416127.244    -3771177.36049  -2926678.74049  20416126.1304   20416133.5164
  17795513.432   -36634152.05349 -27937090.89849  17795513.5324   17795516.9754
 98  2  4 20  3 59.9910000  0  8 27 10  7  2 31 19 18 13
  18186147.006   -39732750.25549 -30945625.75949  18186146.4034   18186151.1254
  21764699.434   -15814504.42549 -12299327.64849  21764700.3514   21764705.4694
  21072016.412   -10929928.78149  -8147930.66749  21072014.9484   21072024.6884
  19302368.484   -24152854.77749 -18206384.91849  19302367.4994   19302373.2244
  19797718.222   -28731912.22949 -22369795.77349  19797717.6054   19797722.4484
  18260230.772   -21295039.52649 -16579664.87749  18260230.5454   18260235.7864
  20429732.304    -3699682.69049  -2870968.68349  20429732.3614   20429739.1144
  17789865.089   -36663834.34549 -27960219.95949  17789865.2334   17789868.6504
 98  2  4 20  4 29.9910000  0  8 27 10  7  2 31 19 18 13
  18171680.967   -39808769.62749 -31004861.62049  18171680.6074   18171685.2904
  21767008.685   -15802369.20749 -12289871.67649  21767007.2844   21767016.3584
  21045493.963   -11069303.94049  -8256534.36749  21045492.0994   21045502.9164
  19288831.502   -24223991.84449 -18261816.36249  19288830.7304   19288836.4044
  19803574.407   -28701137.84449 -22345815.77549  19803574.0214   19803579.2814
  18258900.043   -21302032.75849 -16585114.14149  18258899.7974   18258904.8614
  20443381.965    -3627953.54949  -2815075.92149  20443381.9714   20443388.6884
  17784330.969   -36692916.24949 -27982881.18049  17784330.9744   17784334.5954
 98  2  4 20  4 59.9910000  0  8 27 10  7  2 31 19 18 13
  18157254.623   -39884580.51349 -31063935.02449  18157254.2044   18157258.7974
  21769380.053   -15789906.56649 -12280160.59349  21769379.6624   21769388.6504
  21018987.715   -11208594.05549  -8365071.81149  21018986.6084   21018995.9124
  19275338.464   -24294897.97749 -18317067.85849  19275337.6414   19275343.2664
  19809524.963   -28669867.67249 -22321449.45249  19809524.2724   19809529.5044
  18257627.596   -21308719.52749 -16590324.60349  18257627.2984   18257632.3644
  20457072.002    -3556012.41749  -2759017.96849  20457071.9644   20457079.1424
  17778900.388   -36721454.30449 -28005118.62349  17778900.4134   17778903.7384
 98  2  4 20  5 29.9910000  0  8 27 10  7  2 31 19 18 13
  18142862.556   -39960211.17549 -31122867.99249  18142862.0984   18142866.8494
  21771809.695   -15777138.33949 -12270211.38349  21771809.3904   21771816.6784
  20992491.903   -11347829.38049  -8473566.55549  20992490.5614   20992500.5464
  19261879.717   -24365623.97449 -18372178.99149  19261878.8194   19261884.6714
  19815565.037   -28638126.98649 -22296716.49749  19815564.3404   19815569.8694
  18256405.460   -21315141.81749 -16595328.97349  18256405.0144   18256410.1744
  20470794.062    -3483902.36449  -2702828.40549  20470794.1844   20470801.0284
  17773565.915   -36749487.06949 -28026962.33449  17773566.1164   17773569.4884
 98  2  4 20  5 59.9910000  0  8 27 10  7  2 31 19 18 13
  18128519.818   -40035582.66349 -31181599.01149  18128519.5174   18128524.1014
  21774312.608   -15763987.20749 -12259963.79549  21774311.5784   21774320.3714
  20966022.847   -11486924.08249  -8581951.72149  20966021.2854   20966031.1834
  19248466.570   -24436110.74649 -18427103.71049  19248465.7744   19248471.4934
  19821704.650   -28605863.34349 -22271576.04049  19821704.0304   19821709.1894
  18255245.619   -21321236.98849 -16600078.45949  18255245.3274   18255250.4494
  20484558.791    -3411568.70249  -2646464.59849  20484558.2554   20484565.6724
  17768341.786   -36776940.27649 -28048354.44249  17768341.8734   17768345.3764
 98  2  4 20  6 29.9910000  0  8 27 10  7  2 31 19 18 13
  18114224.051   -40110707.56849 -31240137.88149  18114223.5844   18114228.2994
  21776884.899   -15750470.94949 -12249431.70049  21776884.4874   21776892.8494
  20939580.404   -11625879.19349  -8690228.13049  20939578.7514   20939588.3784
  19235096.736   -24506369.68749 -18481850.90049  19235095.8404   19235101.4544
  19827938.297   -28573105.60049 -22246050.57149  19827937.4354   19827942.6224
  18254138.791   -21327053.45149 -16604610.76649  18254138.2834   18254143.5284
  20498360.645    -3339039.70149  -2589948.57249  20498360.3404   20498367.4424
  17763226.693   -36803820.25849 -28069299.87849  17763226.8144   17763230.1914
 98  2  4 20  6 59.9910000  0  8 27 10  7  2 31 19 18 13
  18099974.898   -40185587.29649 -31298485.71449  18099974.3884   18099979.1134
  21779521.699   -15736614.84549 -12238634.81049  21779522.1514   21779529.5914
  20913161.540   -11764710.58749  -8798408.15649  20913160.4404   20913169.3344
  19221764.356   -24576431.45149 -18536444.44849  19221763.3204   19221769.2914
  19834263.227   -28539868.08049 -22220151.24349  19834263.0554   19834267.9254
  18253080.595   -21332614.32349 -16608943.91649  18253080.3154   18253085.5714
  20512194.801    -3266341.18749  -2533300.47249  20512194.3534   20512201.8754
  17758222.319   -36830118.44849 -28089791.97649  17758222.2894   17758225.7654
 98  2  4 20  7 29.9910000  0  8 27 10  7  2 31 19 18 13
  18085776.103   -40260202.36449 -31356627.31249  18085775.5284   18085780.3494
  21782221.275   -15722429.04749 -12227580.98849  21782220.0734   21782229.6334
  20886766.542   -11903416.47849  -8906490.40249  20886764.8544   20886774.7104
  19208472.198   -24646281.81549 -18590873.27049  19208471.4224   19208477.2904
  19840678.167   -28506157.61949 -22193883.37949  19840677.2354   19840683.2084
  18252076.526   -21337890.85049 -16613055.48849  18252076.1614   18252081.4654
  20526060.291    -3193477.71649  -2476523.81249  20526059.5454   20526067.9274
  17753333.882   -36855807.29249 -28109809.25349  17753334.0534   17753337.5814
 98  2  4 20  7 59.9910000  0  8 27 10  7  2 31 19 18 13
  18071628.079   -40334550.74949 -31414561.10949  18071627.5434   18071632.2724
  21784979.942   -15707931.41149 -12216284.19749  21784979.2434   21784987.3484
  20860395.376   -12041997.04949  -9014474.99749  20860394.1504   20860403.0734
  19195222.023   -24715911.85949 -18645130.42049  19195221.0754   19195226.6994
  19847182.654   -28471976.37749 -22167248.68149  19847182.2224   19847187.4344
  18251125.225   -21342889.69949 -16616950.69949  18251124.7994   18251129.7454
  20539956.228    -3120454.19449  -2419622.46249  20539955.2854   20539962.9734
  17748562.255   -36880882.34249 -28129348.25849  17748562.4064   17748565.9134
 98  2  4 20  8 29.9910000  0  8 27 10  7  2 31 19 18 13
  18057532.493   -40408623.49149 -31472280.11749  18057532.1714   18057536.9524
  21787799.000   -15693117.78449 -12204741.16449  21787798.1914   21787807.0914
  20834048.182   -12180451.04649  -9122360.98049  20834047.1894   20834055.9794
  19182017.534   -24785301.74349 -18699200.43249  19182016.7164   19182022.3314
  19853782.483   -28437294.18149 -22140223.61949  19853782.4524   19853786.8414
  18250233.155   -21347577.60749 -16620603.62349  18250232.7074   18250237.7444
  20553887.201    -3047246.46649  -2362577.57349  20553887.3904   20553894.7554
  17743908.828   -36905336.32249 -28148403.31249  17743908.9974   17743912.2894
 98  2  4 20  8 59.9910000  0  8 27 10  7  2 31 19 18 13
  18043485.038   -40482443.17549 -31529801.93549  18043484.5264   18043489.4154
  21790673.187   -15678013.71249 -12192971.83549  21790672.5714   21790682.5204
  20807720.582   -12318802.62249  -9230167.15949  20807719.2364   20807727.8294
  19168858.302   -24854453.90149 -18753085.20349  19168857.5964   19168863.1384
  19860477.353   -28402112.78249 -22112809.55849  19860476.3984   19860482.1184
  18249400.952   -21351950.79749 -16624011.30649  18249400.7534   18249405.7814
  20567852.949    -2973856.93649  -2305391.01049  20567851.9024   20567860.3694
  17739367.998   -36929198.56049 -28166997.26449  17739368.0714   17739371.4714
 98  2  4 20  9 29.9910000  0  8 27 10  7  2 31 19 18 13
  18029486.293   -40556007.22249 -31587124.55849  18029485.8674   18029490.5734
  21793604.336   -15662610.13749 -12180969.09449  21793602.6534   21793611.9914
  20781415.797   -12457034.44449  -9337880.01949  20781414.6664   20781424.4224
  19155750.440   -24923336.05849 -18806759.58449  19155749.6204   19155755.1884
  19867267.004   -28366433.26249 -22085007.33949  19867265.8584   19867271.4754
  18248630.127   -21356001.53849 -16627167.72749  18248629.6874   18248634.7584
  20581855.352    -2900273.85949  -2248053.64249  20581854.9684   20581862.9944
  17734936.953   -36952483.80249 -28185141.61149  17734937.1394   17734940.6694
 98  2  4 20  9 59.9910000  0  8 27 10  7  2 31 19 18 13
  18015536.223   -40629315.37849 -31644247.79149  18015535.9844   18015540.6924
  21796592.810   -15646906.43449 -12168732.50149  21796592.2734   21796601.0864
  20755137.709   -12595125.62949  -9445483.31649  20755136.2984   20755145.0444
  19142695.932   -24991937.75649 -18860215.43149  19142695.1284   19142700.7344
  19874153.635   -28330243.87849 -22056807.83949  19874152.8104   19874158.1384
  18247919.789   -21359734.60149 -16630076.61149  18247919.5084   18247924.7564
  20595894.635    -2826497.33149  -2190565.54549  20595893.6804   20595901.5814
  17730616.088   -36975190.16749 -28202834.89149  17730616.3204   17730619.6684
